| time (UTC) | temp F | wind direction | speed knots | gust knots | rain 1hr in | rain 24hr in | rain mn in | humidity % | barometer mb |
| 20260509123001 | 70 | 168 | 3.5 | 7.0 | 0.00 | 0.00 | 0.00 | 44 | 1013.5 |
| 20260509122901 | 70 | 156 | 2.6 | 7.8 | 0.00 | 0.00 | 0.00 | 45 | 1013.6 |
| 20260509122800 | 71 | 202 | 2.6 | 7.8 | 0.00 | 0.00 | 0.00 | 44 | 1013.5 |
| 20260509122700 | 71 | 118 | 2.6 | 7.8 | 0.00 | 0.00 | 0.00 | 44 | 1013.6 |
| 20260509122600 | 71 | 119 | 2.6 | 7.8 | 0.00 | 0.00 | 0.00 | 46 | 1013.5 |
| 20260509122458 | 71 | 159 | 2.6 | 7.8 | 0.00 | 0.00 | 0.00 | 44 | 1013.6 |
| 20260509122358 | 71 | 92 | 2.6 | 10.4 | 0.00 | 0.00 | 0.00 | 44 | 1013.6 |
| 20260509122305 | 71 | 150 | 2.6 | 10.4 | 0.00 | 0.00 | 0.00 | 45 | 1013.6 |
| 20260509122258 | 71 | 150 | 2.6 | 10.4 | 0.00 | 0.00 | 0.00 | 45 | 1013.6 |
| 20260509122158 | 71 | 106 | 2.6 | 10.4 | 0.00 | 0.00 | 0.00 | 45 | 1013.6 |
| 20260509122058 | 71 | 98 | 2.6 | 10.4 | 0.00 | 0.00 | 0.00 | 47 | 1013.6 |
| 20260509122026 | 71 | 334 | 2.6 | 10.4 | 0.00 | 0.00 | 0.00 | 48 | 1013.5 |
| 20260509122020 | 71 | 80 | 2.6 | 10.4 | 0.00 | 0.00 | 0.00 | 47 | 1013.6 |
| 20260509122016 | 71 | 47 | 2.6 | 10.4 | 0.00 | 0.00 | 0.00 | 47 | 1013.5 |
| 20260509121753 | 71 | 334 | 2.6 | 10.4 | 0.00 | 0.00 | 0.00 | 48 | 1013.6 |
| 20260509121653 | 71 | 322 | 2.6 | 10.4 | 0.00 | 0.00 | 0.00 | 48 | 1013.6 |
| 20260509121551 | 70 | 321 | 2.6 | 10.4 | 0.00 | 0.00 | 0.00 | 50 | 1013.6 |
| 20260509121527 | 70 | 86 | 1.7 | 5.2 | 0.00 | 0.00 | 0.00 | 49 | 1013.6 |
| 20260509121521 | 70 | 25 | 1.7 | 10.4 | 0.00 | 0.00 | 0.00 | 49 | 1013.7 |
| 20260509121517 | 70 | 48 | 1.7 | 8.7 | 0.00 | 0.00 | 0.00 | 48 | 1013.6 |
| 20260509121246 | 70 | 5 | 1.7 | 5.2 | 0.00 | 0.00 | 0.00 | 49 | 1013.6 |
| 20260509121146 | 69 | 91 | 1.7 | 5.2 | 0.00 | 0.00 | 0.00 | 47 | 1013.6 |
| 20260509121048 | 69 | 87 | 1.7 | 5.2 | 0.00 | 0.00 | 0.00 | 46 | 1013.6 |
| 20260509120943 | 69 | 55 | 1.7 | 6.1 | 0.00 | 0.00 | 0.00 | 47 | 1013.7 |
| 20260509120841 | 69 | 55 | 1.7 | 6.1 | 0.00 | 0.00 | 0.00 | 48 | 1013.7 |
| 20260509120802 | 69 | 55 | 1.7 | 6.1 | 0.00 | 0.00 | 0.00 | 48 | 1013.7 |
| 20260509120740 | 69 | 55 | 1.7 | 6.1 | 0.00 | 0.00 | 0.00 | 49 | 1013.7 |
| 20260509120640 | 69 | 105 | 1.7 | 6.1 | 0.00 | 0.00 | 0.00 | 47 | 1013.7 |
| 20260509120540 | 69 | 345 | 1.7 | 6.1 | 0.00 | 0.00 | 0.00 | 46 | 1013.8 |
| 20260509120434 | 69 | 65 | 1.7 | 6.1 | 0.00 | 0.00 | 0.00 | 47 | 1013.8 |
| 20260509120335 | 69 | 71 | 1.7 | 6.1 | 0.00 | 0.00 | 0.00 | 47 | 1013.8 |
| 20260509120300 | 69 | 70 | 1.7 | 6.1 | 0.00 | 0.00 | 0.00 | 47 | 1013.8 |
| 20260509120234 | 69 | 103 | 1.7 | 6.1 | 0.00 | 0.00 | 0.00 | 48 | 1013.8 |
| 20260509120134 | 68 | 109 | 1.7 | 6.1 | 0.00 | 0.00 | 0.00 | 48 | 1013.7 |
| 20260509120034 | 68 | 66 | 1.7 | 6.1 | 0.00 | 0.00 | 0.00 | 47 | 1013.8 |
| 20260509115935 | 68 | 136 | 1.7 | 6.1 | 0.00 | 0.00 | 0.00 | 47 | 1013.8 |
| 20260509115835 | 68 | 93 | 1.7 | 6.1 | 0.00 | 0.00 | 0.00 | 47 | 1013.8 |
| 20260509115801 | 69 | 65 | 1.7 | 6.1 | 0.00 | 0.00 | 0.00 | 46 | 1013.8 |
| 20260509115735 | 69 | 84 | 1.7 | 6.1 | 0.00 | 0.00 | 0.00 | 47 | 1013.8 |
| 20260509115635 | 69 | 111 | 1.7 | 6.1 | 0.00 | 0.00 | 0.00 | 46 | 1013.8 |
| 20260509115534 | 69 | 107 | 1.7 | 6.1 | 0.00 | 0.00 | 0.00 | 47 | 1013.8 |
| 20260509115432 | 69 | 86 | 1.7 | 6.1 | 0.00 | 0.00 | 0.00 | 48 | 1013.8 |
| 20260509115332 | 69 | 87 | 1.7 | 6.1 | 0.00 | 0.00 | 0.00 | 48 | 1013.8 |
| 20260509115301 | 69 | 76 | 1.7 | 6.1 | 0.00 | 0.00 | 0.00 | 47 | 1013.8 |
| 20260509115232 | 69 | 62 | 1.7 | 6.1 | 0.00 | 0.00 | 0.00 | 47 | 1013.8 |
| 20260509115132 | 69 | 86 | 1.7 | 5.2 | 0.00 | 0.00 | 0.00 | 48 | 1013.8 |
| 20260509115033 | 69 | 94 | 1.7 | 7.0 | 0.00 | 0.00 | 0.00 | 47 | 1013.8 |
| 20260509114931 | 69 | 95 | 1.7 | 7.0 | 0.00 | 0.00 | 0.00 | 48 | 1013.9 |
| 20260509114830 | 69 | 32 | 1.7 | 7.0 | 0.00 | 0.00 | 0.00 | 47 | 1013.8 |
| 20260509114800 | 69 | 31 | 1.7 | 7.0 | 0.00 | 0.00 | 0.00 | 49 | 1013.8 |
| 20260509114730 | 69 | 18 | 1.7 | 7.0 | 0.00 | 0.00 | 0.00 | 49 | 1013.9 |
| 20260509114630 | 69 | 111 | 1.7 | 7.0 | 0.00 | 0.00 | 0.00 | 49 | 1013.9 |
| 20260509114530 | 69 | 78 | 1.7 | 7.0 | 0.00 | 0.00 | 0.00 | 49 | 1013.9 |
| 20260509114430 | 69 | 107 | 1.7 | 7.0 | 0.00 | 0.00 | 0.00 | 49 | 1013.9 |
| 20260509114301 | 68 | 17 | 1.7 | 7.0 | 0.00 | 0.00 | 0.00 | 48 | 1013.9 |
| 20260509114229 | 68 | 17 | 1.7 | 7.0 | 0.00 | 0.00 | 0.00 | 48 | 1013.9 |
| 20260509114129 | 68 | 17 | 1.7 | 7.0 | 0.00 | 0.00 | 0.00 | 49 | 1013.9 |
| 20260509114029 | 68 | 17 | 1.7 | 6.1 | 0.00 | 0.00 | 0.00 | 48 | 1013.9 |
| 20260509113929 | 68 | 72 | 1.7 | 6.1 | 0.00 | 0.00 | 0.00 | 47 | 1013.9 |
| 20260509113829 | 68 | 91 | 1.7 | 6.1 | 0.00 | 0.00 | 0.00 | 47 | 1013.9 |
| 20260509113803 | 68 | 96 | 1.7 | 6.1 | 0.00 | 0.00 | 0.00 | 48 | 1013.9 |
| 20260509113729 | 68 | 19 | 1.7 | 6.1 | 0.00 | 0.00 | 0.00 | 48 | 1013.9 |
| 20260509113629 | 68 | 70 | 1.7 | 6.1 | 0.00 | 0.00 | 0.00 | 48 | 1014.1 |
| 20260509113529 | 68 | 95 | 1.7 | 6.1 | 0.00 | 0.00 | 0.00 | 48 | 1014.1 |
| 20260509113429 | 68 | 102 | 1.7 | 6.1 | 0.00 | 0.00 | 0.00 | 48 | 1014.1 |
| 20260509113329 | 68 | 100 | 1.7 | 6.1 | 0.00 | 0.00 | 0.00 | 48 | 1014.1 |
| 20260509113300 | 68 | 86 | 1.7 | 6.1 | 0.00 | 0.00 | 0.00 | 48 | 1014.1 |
| 20260509113229 | 68 | 182 | 1.7 | 6.1 | 0.00 | 0.00 | 0.00 | 48 | 1014.1 |
| 20260509113129 | 68 | 107 | 1.7 | 6.1 | 0.00 | 0.00 | 0.00 | 47 | 1014.1 |
| 20260509113029 | 69 | 111 | 1.7 | 6.1 | 0.00 | 0.00 | 0.00 | 47 | 1014.1 |
| 20260509112928 | 69 | 103 | 1.7 | 6.1 | 0.00 | 0.00 | 0.00 | 48 | 1014.1 |
| 20260509112828 | 69 | 107 | 1.7 | 6.1 | 0.00 | 0.00 | 0.00 | 48 | 1014.1 |
| 20260509112800 | 69 | 124 | 1.7 | 6.1 | 0.00 | 0.00 | 0.00 | 48 | 1014.1 |
| 20260509112729 | 69 | 173 | 1.7 | 5.2 | 0.00 | 0.00 | 0.00 | 47 | 1014.1 |
| 20260509112629 | 69 | 71 | 1.7 | 5.2 | 0.00 | 0.00 | 0.00 | 47 | 1014.1 |
| 20260509112527 | 69 | 71 | 1.7 | 7.0 | 0.00 | 0.00 | 0.00 | 47 | 1014.2 |
| 20260509112427 | 69 | 67 | 1.7 | 7.0 | 0.00 | 0.00 | 0.00 | 47 | 1014.1 |
| 20260509112326 | 69 | 80 | 1.7 | 7.0 | 0.00 | 0.00 | 0.00 | 47 | 1014.1 |
| 20260509112307 | 69 | 79 | 1.7 | 7.0 | 0.00 | 0.00 | 0.00 | 47 | 1014.1 |
| 20260509112226 | 69 | 105 | 1.7 | 7.0 | 0.00 | 0.00 | 0.00 | 49 | 1014.1 |
| 20260509112124 | 69 | 103 | 1.7 | 7.0 | 0.00 | 0.00 | 0.00 | 46 | 1014.2 |
| 20260509112028 | 69 | 96 | 1.7 | 7.0 | 0.00 | 0.00 | 0.00 | 49 | 1014.2 |
| 20260509112024 | 69 | 76 | 1.7 | 7.0 | 0.00 | 0.00 | 0.00 | 49 | 1014.2 |
| 20260509112019 | 69 | 100 | 1.7 | 7.0 | 0.00 | 0.00 | 0.00 | 47 | 1014.2 |
| 20260509112015 | 69 | 82 | 1.7 | 7.0 | 0.00 | 0.00 | 0.00 | 49 | 1014.2 |
| 20260509111718 | 68 | 83 | 1.7 | 7.0 | 0.00 | 0.00 | 0.00 | 49 | 1014.2 |
| 20260509111618 | 69 | 84 | 1.7 | 7.0 | 0.00 | 0.00 | 0.00 | 50 | 1014.2 |
| 20260509111512 | 68 | 92 | 1.7 | 7.0 | 0.00 | 0.00 | 0.00 | 48 | 1014.2 |
| 20260509111412 | 68 | 65 | 1.7 | 7.0 | 0.00 | 0.00 | 0.00 | 48 | 1014.2 |
| 20260509111313 | 68 | 98 | 1.7 | 7.0 | 0.00 | 0.00 | 0.00 | 47 | 1014.2 |
| 20260509111301 | 68 | 114 | 1.7 | 7.0 | 0.00 | 0.00 | 0.00 | 47 | 1014.2 |
| 20260509111212 | 68 | 92 | 1.7 | 7.0 | 0.00 | 0.00 | 0.00 | 49 | 1014.2 |
| 20260509111111 | 68 | 76 | 1.7 | 6.1 | 0.00 | 0.00 | 0.00 | 49 | 1014.3 |
| 20260509111006 | 68 | 87 | 0.9 | 6.1 | 0.00 | 0.00 | 0.00 | 49 | 1014.2 |
| 20260509110906 | 68 | 121 | 0.9 | 3.5 | 0.00 | 0.00 | 0.00 | 49 | 1014.3 |
| 20260509110807 | 68 | 100 | 0.9 | 3.5 | 0.00 | 0.00 | 0.00 | 48 | 1014.2 |
| 20260509110803 | 68 | 98 | 0.9 | 3.5 | 0.00 | 0.00 | 0.00 | 48 | 1014.2 |
| 20260509110706 | 68 | 99 | 0.9 | 3.5 | 0.00 | 0.00 | 0.00 | 47 | 1014.3 |
| 20260509110606 | 68 | 71 | 1.7 | 8.7 | 0.00 | 0.00 | 0.00 | 47 | 1014.3 |
| 20260509110505 | 68 | 143 | 1.7 | 8.7 | 0.00 | 0.00 | 0.00 | 46 | 1014.3 |
| 20260509110404 | 69 | 96 | 1.7 | 8.7 | 0.00 | 0.00 | 0.00 | 48 | 1014.3 |
| 20260509110301 | 69 | 97 | 1.7 | 8.7 | 0.00 | 0.00 | 0.00 | 47 | 1014.3 |
| 20260509110204 | 69 | 103 | 1.7 | 8.7 | 0.00 | 0.00 | 0.00 | 45 | 1014.3 |
| 20260509110104 | 69 | 104 | 1.7 | 8.7 | 0.00 | 0.00 | 0.00 | 45 | 1014.3 |
| 20260509110004 | 69 | 104 | 1.7 | 8.7 | 0.00 | 0.00 | 0.00 | 45 | 1014.4 |
| 20260509105905 | 69 | 97 | 1.7 | 8.7 | 0.00 | 0.00 | 0.00 | 46 | 1014.3 |
| 20260509105802 | 69 | 139 | 1.7 | 8.7 | 0.00 | 0.00 | 0.00 | 44 | 1014.4 |
| 20260509105704 | 69 | 125 | 1.7 | 8.7 | 0.00 | 0.00 | 0.00 | 47 | 1014.4 |
| 20260509105604 | 69 | 123 | 1.7 | 7.0 | 0.00 | 0.00 | 0.00 | 47 | 1014.4 |
| 20260509105504 | 69 | 52 | 1.7 | 7.0 | 0.00 | 0.00 | 0.00 | 46 | 1014.4 |
| 20260509105404 | 69 | 51 | 2.6 | 7.8 | 0.00 | 0.00 | 0.00 | 46 | 1014.4 |
| 20260509105305 | 68 | 53 | 2.6 | 7.8 | 0.00 | 0.00 | 0.00 | 46 | 1014.4 |
| 20260509105202 | 68 | 95 | 2.6 | 7.8 | 0.00 | 0.00 | 0.00 | 48 | 1014.4 |
| 20260509105102 | 68 | 96 | 3.5 | 7.8 | 0.00 | 0.00 | 0.00 | 47 | 1014.4 |
| 20260509105001 | 68 | 118 | 3.5 | 8.7 | 0.00 | 0.00 | 0.00 | 47 | 1014.4 |
| 20260509104901 | 68 | 117 | 3.5 | 8.7 | 0.00 | 0.00 | 0.00 | 48 | 1014.4 |
| 20260509104804 | 68 | 82 | 4.3 | 9.6 | 0.00 | 0.00 | 0.00 | 47 | 1014.4 |
| 20260509104800 | 68 | 82 | 4.3 | 9.6 | 0.00 | 0.00 | 0.00 | 47 | 1014.4 |
| 20260509104700 | 68 | 109 | 5.2 | 9.6 | 0.00 | 0.00 | 0.00 | 49 | 1014.5 |
| 20260509104600 | 68 | 112 | 5.2 | 9.6 | 0.00 | 0.00 | 0.00 | 48 | 1014.5 |
| 20260509104500 | 68 | 123 | 5.2 | 9.6 | 0.00 | 0.00 | 0.00 | 47 | 1014.5 |
| 20260509104359 | 68 | 105 | 4.3 | 9.6 | 0.00 | 0.00 | 0.00 | 47 | 1014.5 |
| 20260509104301 | 68 | 142 | 4.3 | 9.6 | 0.00 | 0.00 | 0.00 | 48 | 1014.5 |
| 20260509104254 | 68 | 140 | 4.3 | 9.6 | 0.00 | 0.00 | 0.00 | 48 | 1014.5 |
| 20260509104154 | 68 | 148 | 4.3 | 9.6 | 0.00 | 0.00 | 0.00 | 47 | 1014.5 |
| 20260509104054 | 68 | 133 | 4.3 | 9.6 | 0.00 | 0.00 | 0.00 | 46 | 1014.5 |
| 20260509103954 | 68 | 150 | 3.5 | 9.6 | 0.00 | 0.00 | 0.00 | 48 | 1014.5 |
| 20260509103854 | 67 | 134 | 2.6 | 9.6 | 0.00 | 0.00 | 0.00 | 48 | 1014.6 |
| 20260509103801 | 67 | 132 | 2.6 | 9.6 | 0.00 | 0.00 | 0.00 | 49 | 1014.6 |
| 20260509103750 | 67 | 136 | 1.7 | 9.6 | 0.00 | 0.00 | 0.00 | 49 | 1014.6 |
| 20260509103650 | 67 | 124 | 1.7 | 7.8 | 0.00 | 0.00 | 0.00 | 49 | 1014.6 |
| 20260509103550 | 67 | 146 | 1.7 | 7.0 | 0.00 | 0.00 | 0.00 | 48 | 1014.6 |
| 20260509103450 | 67 | 124 | 1.7 | 7.0 | 0.00 | 0.00 | 0.00 | 46 | 1014.7 |
| 20260509103347 | 67 | 96 | 1.7 | 7.0 | 0.00 | 0.00 | 0.00 | 48 | 1014.7 |
| 20260509103301 | 67 | 96 | 1.7 | 7.0 | 0.00 | 0.00 | 0.00 | 47 | 1014.7 |
| 20260509103244 | 67 | 96 | 1.7 | 7.0 | 0.00 | 0.00 | 0.00 | 47 | 1014.7 |
| 20260509103142 | 67 | 96 | 1.7 | 7.0 | 0.00 | 0.00 | 0.00 | 46 | 1014.7 |
| 20260509103042 | 67 | 91 | 2.6 | 7.0 | 0.00 | 0.00 | 0.00 | 47 | 1014.7 |
| 20260509102942 | 67 | 91 | 2.6 | 7.0 | 0.00 | 0.00 | 0.00 | 47 | 1014.7 |
| 20260509102842 | 67 | 92 | 2.6 | 7.0 | 0.00 | 0.00 | 0.00 | 48 | 1014.7 |
| 20260509102800 | 67 | 84 | 2.6 | 7.0 | 0.00 | 0.00 | 0.00 | 47 | 1014.7 |
| 20260509102736 | 67 | 141 | 2.6 | 7.8 | 0.00 | 0.00 | 0.00 | 47 | 1014.7 |
| 20260509102636 | 67 | 71 | 2.6 | 7.8 | 0.00 | 0.00 | 0.00 | 48 | 1014.7 |
| 20260509102536 | 67 | 61 | 2.6 | 7.8 | 0.00 | 0.00 | 0.00 | 47 | 1014.8 |
| 20260509102436 | 67 | 144 | 2.6 | 7.8 | 0.00 | 0.00 | 0.00 | 47 | 1014.7 |
| 20260509102335 | 67 | 147 | 2.6 | 7.8 | 0.00 | 0.00 | 0.00 | 48 | 1014.8 |
| 20260509102301 | 67 | 109 | 2.6 | 7.8 | 0.00 | 0.00 | 0.00 | 48 | 1014.8 |
| 20260509102234 | 67 | 57 | 2.6 | 7.8 | 0.00 | 0.00 | 0.00 | 47 | 1014.8 |
| 20260509102130 | 67 | 95 | 2.6 | 7.8 | 0.00 | 0.00 | 0.00 | 49 | 1014.8 |
| 20260509102030 | 67 | 146 | 1.7 | 7.8 | 0.00 | 0.00 | 0.00 | 48 | 1014.8 |
| 20260509101930 | 67 | 94 | 1.7 | 7.8 | 0.00 | 0.00 | 0.00 | 47 | 1014.8 |
| 20260509101830 | 67 | 109 | 1.7 | 7.8 | 0.00 | 0.00 | 0.00 | 46 | 1014.8 |
| 20260509101801 | 67 | 59 | 1.7 | 7.8 | 0.00 | 0.00 | 0.00 | 46 | 1014.8 |
| 20260509101728 | 67 | 65 | 0.9 | 7.8 | 0.00 | 0.00 | 0.00 | 48 | 1014.8 |
| 20260509101628 | 67 | 135 | 0.9 | 7.8 | 0.00 | 0.00 | 0.00 | 48 | 1014.8 |
| 20260509101526 | 67 | 131 | 1.7 | 5.2 | 0.00 | 0.00 | 0.00 | 50 | 1014.8 |
| 20260509101426 | 67 | 109 | 1.7 | 6.1 | 0.00 | 0.00 | 0.00 | 50 | 1014.8 |
| 20260509101324 | 67 | 115 | 1.7 | 6.1 | 0.00 | 0.00 | 0.00 | 51 | 1014.8 |
| 20260509101302 | 67 | 107 | 1.7 | 6.1 | 0.00 | 0.00 | 0.00 | 51 | 1014.8 |
| 20260509101218 | 67 | 74 | 1.7 | 6.1 | 0.00 | 0.00 | 0.00 | 50 | 1014.8 |
| 20260509101118 | 67 | 82 | 1.7 | 6.1 | 0.00 | 0.00 | 0.00 | 48 | 1014.8 |
| 20260509101018 | 67 | 69 | 1.7 | 6.1 | 0.00 | 0.00 | 0.00 | 50 | 1014.8 |
| 20260509100918 | 67 | 105 | 1.7 | 6.1 | 0.00 | 0.00 | 0.00 | 49 | 1014.9 |
| 20260509100818 | 67 | 107 | 1.7 | 6.1 | 0.00 | 0.00 | 0.00 | 50 | 1014.9 |
| 20260509100801 | 67 | 108 | 1.7 | 6.1 | 0.00 | 0.00 | 0.00 | 50 | 1014.9 |
| 20260509100714 | 67 | 108 | 1.7 | 6.1 | 0.00 | 0.00 | 0.00 | 49 | 1014.9 |
| 20260509100612 | 67 | 99 | 1.7 | 6.1 | 0.00 | 0.00 | 0.00 | 52 | 1014.9 |
| 20260509100512 | 66 | 116 | 1.7 | 5.2 | 0.00 | 0.00 | 0.00 | 50 | 1015.0 |
| 20260509100412 | 66 | 140 | 1.7 | 5.2 | 0.00 | 0.00 | 0.00 | 51 | 1014.9 |
| 20260509100300 | 66 | 180 | 1.7 | 5.2 | 0.00 | 0.00 | 0.00 | 50 | 1014.9 |
| 20260509100207 | 66 | 198 | 1.7 | 5.2 | 0.00 | 0.00 | 0.00 | 51 | 1014.9 |
| 20260509100108 | 66 | 142 | 1.7 | 5.2 | 0.00 | 0.00 | 0.00 | 52 | 1014.9 |
| 20260509100029 | 66 | 148 | 1.7 | 5.2 | 0.00 | 0.00 | 0.00 | 53 | 1014.9 |
| 20260509100021 | 66 | 142 | 1.7 | 5.2 | 0.00 | 0.00 | 0.00 | 51 | 1014.9 |
| 20260509100017 | 66 | 142 | 1.7 | 5.2 | 0.00 | 0.00 | 0.00 | 50 | 1014.9 |
| 20260509100013 | 66 | 142 | 1.7 | 5.2 | 0.00 | 0.00 | 0.00 | 53 | 1014.9 |
| 20260509095706 | 66 | 194 | 1.7 | 5.2 | 0.00 | 0.00 | 0.00 | 51 | 1014.9 |
| 20260509095604 | 66 | 202 | 2.6 | 5.2 | 0.00 | 0.00 | 0.00 | 50 | 1014.9 |
| 20260509095526 | 66 | 235 | 1.7 | 6.1 | 0.00 | 0.00 | 0.00 | 49 | 1014.9 |
| 20260509095518 | 66 | 202 | 2.6 | 6.1 | 0.00 | 0.00 | 0.00 | 51 | 1015.0 |
| 20260509095514 | 66 | 206 | 1.7 | 6.1 | 0.00 | 0.00 | 0.00 | 51 | 1014.9 |
| 20260509095510 | 66 | 236 | 1.7 | 6.1 | 0.00 | 0.00 | 0.00 | 49 | 1014.9 |
| 20260509095202 | 66 | 255 | 1.7 | 6.1 | 0.00 | 0.00 | 0.00 | 49 | 1014.9 |
| 20260509095101 | 66 | 164 | 1.7 | 6.1 | 0.00 | 0.00 | 0.00 | 49 | 1015.0 |
| 20260509095001 | 66 | 163 | 1.7 | 6.1 | 0.00 | 0.00 | 0.00 | 51 | 1015.0 |
| 20260509094901 | 66 | 163 | 1.7 | 6.1 | 0.00 | 0.00 | 0.00 | 52 | 1015.0 |
| 20260509094801 | 66 | 162 | 1.7 | 6.1 | 0.00 | 0.00 | 0.00 | 49 | 1015.0 |
| 20260509094754 | 66 | 162 | 1.7 | 6.1 | 0.00 | 0.00 | 0.00 | 49 | 1015.0 |
| 20260509094702 | 66 | 142 | 1.7 | 7.0 | 0.00 | 0.00 | 0.00 | 53 | 1015.0 |
| 20260509094601 | 66 | 127 | 1.7 | 7.0 | 0.00 | 0.00 | 0.00 | 51 | 1015.0 |
| 20260509094501 | 66 | 96 | 1.7 | 7.0 | 0.00 | 0.00 | 0.00 | 50 | 1015.0 |
| 20260509094401 | 66 | 92 | 2.6 | 7.0 | 0.00 | 0.00 | 0.00 | 51 | 1015.0 |
| 20260509094301 | 65 | 93 | 2.6 | 7.0 | 0.00 | 0.00 | 0.00 | 50 | 1015.0 |
| 20260509094248 | 65 | 97 | 2.6 | 7.0 | 0.00 | 0.00 | 0.00 | 50 | 1015.0 |
| 20260509094201 | 65 | 86 | 2.6 | 7.0 | 0.00 | 0.00 | 0.00 | 53 | 1015.0 |
| 20260509094100 | 65 | 82 | 2.6 | 7.0 | 0.00 | 0.00 | 0.00 | 50 | 1015.0 |
| 20260509094007 | 65 | 101 | 2.6 | 7.0 | 0.00 | 0.00 | 0.00 | 52 | 1015.0 |
| 20260509094001 | 65 | 110 | 2.6 | 7.0 | 0.00 | 0.00 | 0.00 | 50 | 1015.0 |
| 20260509093956 | 65 | 84 | 2.6 | 7.0 | 0.00 | 0.00 | 0.00 | 51 | 1015.0 |
| 20260509093953 | 65 | 101 | 2.6 | 7.0 | 0.00 | 0.00 | 0.00 | 52 | 1015.0 |
| 20260509093701 | 65 | 103 | 2.6 | 7.0 | 0.00 | 0.00 | 0.00 | 53 | 1015.0 |
| 20260509093600 | 65 | 134 | 1.7 | 6.1 | 0.00 | 0.00 | 0.00 | 52 | 1015.0 |
| 20260509093501 | 65 | 131 | 1.7 | 5.2 | 0.00 | 0.00 | 0.00 | 53 | 1015.0 |
| 20260509093401 | 65 | 138 | 1.7 | 5.2 | 0.00 | 0.00 | 0.00 | 53 | 1015.0 |
| 20260509093301 | 65 | 104 | 1.7 | 5.2 | 0.00 | 0.00 | 0.00 | 54 | 1015.0 |
| 20260509093235 | 65 | 103 | 1.7 | 5.2 | 0.00 | 0.00 | 0.00 | 54 | 1015.0 |
| 20260509093201 | 65 | 101 | 1.7 | 5.2 | 0.00 | 0.00 | 0.00 | 54 | 1015.0 |
| 20260509093101 | 65 | 111 | 1.7 | 5.2 | 0.00 | 0.00 | 0.00 | 53 | 1015.0 |
| 20260509093001 | 65 | 112 | 0.9 | 3.5 | 0.00 | 0.00 | 0.00 | 53 | 1014.9 |
| 20260509092901 | 65 | 128 | 0.9 | 3.5 | 0.00 | 0.00 | 0.00 | 55 | 1015.0 |
| 20260509092738 | 64 | 91 | 1.7 | 5.2 | 0.00 | 0.00 | 0.00 | 54 | 1015.0 |
| 20260509092701 | 64 | 84 | 1.7 | 7.0 | 0.00 | 0.00 | 0.00 | 57 | 1015.0 |
| 20260509092601 | 64 | 84 | 1.7 | 7.0 | 0.00 | 0.00 | 0.00 | 55 | 1014.9 |
| 20260509092500 | 64 | 79 | 1.7 | 7.0 | 0.00 | 0.00 | 0.00 | 56 | 1015.0 |
| 20260509092400 | 64 | 65 | 1.7 | 7.0 | 0.00 | 0.00 | 0.00 | 56 | 1014.9 |
| 20260509092300 | 64 | 146 | 1.7 | 7.0 | 0.00 | 0.00 | 0.00 | 57 | 1015.0 |
| 20260509092236 | 64 | 146 | 1.7 | 7.0 | 0.00 | 0.00 | 0.00 | 57 | 1015.0 |
| 20260509092201 | 64 | 146 | 1.7 | 7.0 | 0.00 | 0.00 | 0.00 | 57 | 1015.0 |
| 20260509092102 | 64 | 117 | 1.7 | 7.0 | 0.00 | 0.00 | 0.00 | 56 | 1015.0 |
| 20260509092002 | 64 | 117 | 1.7 | 7.0 | 0.00 | 0.00 | 0.00 | 54 | 1015.0 |
| 20260509091955 | 64 | 150 | 1.7 | 7.0 | 0.00 | 0.00 | 0.00 | 56 | 1015.0 |
| 20260509091950 | 64 | 117 | 1.7 | 7.0 | 0.00 | 0.00 | 0.00 | 56 | 1015.0 |
| 20260509091946 | 64 | 149 | 1.7 | 7.0 | 0.00 | 0.00 | 0.00 | 56 | 1015.0 |
| 20260509091658 | 64 | 136 | 1.7 | 7.0 | 0.00 | 0.00 | 0.00 | 59 | 1015.0 |
| 20260509091558 | 64 | 137 | 0.9 | 4.3 | 0.00 | 0.00 | 0.00 | 59 | 1015.0 |
| 20260509091456 | 64 | 137 | 1.7 | 4.3 | 0.00 | 0.00 | 0.00 | 59 | 1015.0 |
| 20260509091353 | 64 | 137 | 1.7 | 5.2 | 0.00 | 0.00 | 0.00 | 60 | 1015.0 |
| 20260509091234 | 64 | 136 | 1.7 | 5.2 | 0.00 | 0.00 | 0.00 | 60 | 1015.0 |
| 20260509091152 | 64 | 87 | 1.7 | 5.2 | 0.00 | 0.00 | 0.00 | 59 | 1015.0 |
| 20260509091052 | 64 | 88 | 1.7 | 5.2 | 0.00 | 0.00 | 0.00 | 58 | 1015.0 |
| 20260509090950 | 64 | 178 | 2.6 | 5.2 | 0.00 | 0.00 | 0.00 | 60 | 1015.0 |
| 20260509090848 | 63 | 224 | 1.7 | 5.2 | 0.00 | 0.00 | 0.00 | 60 | 1015.0 |
| 20260509090732 | 63 | 286 | 2.6 | 5.2 | 0.00 | 0.00 | 0.00 | 58 | 1015.0 |
| 20260509090642 | 63 | 287 | 1.7 | 5.2 | 0.00 | 0.00 | 0.00 | 59 | 1015.0 |
| 20260509090542 | 63 | 284 | 1.7 | 5.2 | 0.00 | 0.00 | 0.00 | 59 | 1015.0 |
| 20260509090442 | 63 | 215 | 1.7 | 5.2 | 0.00 | 0.00 | 0.00 | 58 | 1015.0 |
| 20260509090342 | 63 | 221 | 1.7 | 4.3 | 0.00 | 0.00 | 0.00 | 59 | 1015.0 |
| 20260509090231 | 63 | 221 | 1.7 | 4.3 | 0.00 | 0.00 | 0.00 | 60 | 1015.1 |
| 20260509090136 | 63 | 214 | 0.9 | 4.3 | 0.00 | 0.00 | 0.00 | 60 | 1015.0 |
| 20260509090036 | 63 | 244 | 0.9 | 4.3 | 0.00 | 0.00 | 0.00 | 60 | 1015.0 |
| 20260509085936 | 63 | 144 | 0.9 | 3.5 | 0.00 | 0.00 | 0.00 | 59 | 1015.0 |
| 20260509085836 | 63 | 123 | 0.9 | 3.5 | 0.00 | 0.00 | 0.00 | 61 | 1015.0 |
| 20260509085731 | 63 | 128 | 0.9 | 3.5 | 0.00 | 0.00 | 0.00 | 60 | 1015.0 |
| 20260509085634 | 63 | 115 | 0.9 | 3.5 | 0.00 | 0.00 | 0.00 | 59 | 1015.0 |
| 20260509085534 | 62 | 115 | 0.9 | 3.5 | 0.00 | 0.00 | 0.00 | 61 | 1015.0 |
| 20260509085432 | 62 | 119 | 0.9 | 3.5 | 0.00 | 0.00 | 0.00 | 60 | 1015.0 |
| 20260509085329 | 62 | 119 | 0.9 | 3.5 | 0.00 | 0.00 | 0.00 | 60 | 1015.1 |
| 20260509085229 | 62 | 110 | 0.9 | 3.5 | 0.00 | 0.00 | 0.00 | 60 | 1015.1 |
| 20260509085129 | 62 | 110 | 0.9 | 3.5 | 0.00 | 0.00 | 0.00 | 63 | 1015.0 |
| 20260509085029 | 62 | 125 | 0.9 | 3.5 | 0.00 | 0.00 | 0.00 | 63 | 1015.0 |
| 20260509084930 | 62 | 125 | 0.9 | 3.5 | 0.00 | 0.00 | 0.00 | 62 | 1015.0 |
| 20260509084830 | 62 | 136 | 0.9 | 3.5 | 0.00 | 0.00 | 0.00 | 63 | 1015.1 |
| 20260509084729 | 62 | 138 | 0.9 | 3.5 | 0.00 | 0.00 | 0.00 | 63 | 1015.1 |
| 20260509084629 | 62 | 105 | 0.9 | 7.0 | 0.00 | 0.00 | 0.00 | 63 | 1015.1 |
| 20260509084529 | 62 | 105 | 0.9 | 7.0 | 0.00 | 0.00 | 0.00 | 63 | 1015.1 |
| 20260509084429 | 62 | 105 | 0.9 | 7.0 | 0.00 | 0.00 | 0.00 | 64 | 1015.0 |
| 20260509084329 | 62 | 105 | 0.9 | 7.0 | 0.00 | 0.00 | 0.00 | 64 | 1015.0 |
| 20260509084229 | 61 | 104 | 0.9 | 7.0 | 0.00 | 0.00 | 0.00 | 64 | 1015.1 |
| 20260509084129 | 61 | 103 | 0.9 | 7.0 | 0.00 | 0.00 | 0.00 | 64 | 1015.0 |
| 20260509084029 | 61 | 103 | 1.7 | 7.0 | 0.00 | 0.00 | 0.00 | 64 | 1015.1 |
| 20260509083950 | 61 | 105 | 1.7 | 7.0 | 0.00 | 0.00 | 0.00 | 65 | 1015.0 |
| 20260509083946 | 61 | 105 | 1.7 | 7.0 | 0.00 | 0.00 | 0.00 | 63 | 1015.1 |
| 20260509083942 | 61 | 133 | 1.7 | 7.0 | 0.00 | 0.00 | 0.00 | 63 | 1015.1 |
| 20260509083632 | 61 | 146 | 1.7 | 5.2 | 0.00 | 0.00 | 0.00 | 63 | 1015.1 |
| 20260509083528 | 61 | 122 | 1.7 | 5.2 | 0.00 | 0.00 | 0.00 | 63 | 1015.1 |
| 20260509083428 | 61 | 122 | 1.7 | 5.2 | 0.00 | 0.00 | 0.00 | 63 | 1015.1 |
| 20260509083328 | 61 | 153 | 1.7 | 5.2 | 0.00 | 0.00 | 0.00 | 62 | 1015.1 |
| 20260509083229 | 61 | 153 | 1.7 | 5.2 | 0.00 | 0.00 | 0.00 | 63 | 1015.1 |
| 20260509083129 | 61 | 211 | 1.7 | 5.2 | 0.00 | 0.00 | 0.00 | 65 | 1015.1 |
| 20260509083029 | 61 | 212 | 0.9 | 5.2 | 0.00 | 0.00 | 0.00 | 65 | 1015.1 |
| 20260509082929 | 60 | 175 | 0.9 | 4.3 | 0.00 | 0.00 | 0.00 | 65 | 1015.1 |
| 20260509082827 | 60 | 192 | 1.7 | 4.3 | 0.00 | 0.00 | 0.00 | 65 | 1015.1 |
| 20260509082727 | 60 | 192 | 1.7 | 4.3 | 0.00 | 0.00 | 0.00 | 65 | 1015.1 |
| 20260509082628 | 60 | 159 | 1.7 | 4.3 | 0.00 | 0.00 | 0.00 | 65 | 1015.1 |
| 20260509082528 | 60 | 157 | 1.7 | 4.3 | 0.00 | 0.00 | 0.00 | 65 | 1015.1 |
| 20260509082427 | 60 | 122 | 1.7 | 4.3 | 0.00 | 0.00 | 0.00 | 66 | 1015.1 |
| 20260509082327 | 60 | 132 | 1.7 | 4.3 | 0.00 | 0.00 | 0.00 | 65 | 1015.1 |
| 20260509082228 | 60 | 132 | 2.6 | 4.3 | 0.00 | 0.00 | 0.00 | 65 | 1015.1 |
| 20260509082128 | 60 | 132 | 2.6 | 7.0 | 0.00 | 0.00 | 0.00 | 65 | 1015.1 |
| 20260509082027 | 60 | 132 | 2.6 | 7.0 | 0.00 | 0.00 | 0.00 | 65 | 1015.1 |
| 20260509081925 | 60 | 131 | 2.6 | 7.0 | 0.00 | 0.00 | 0.00 | 65 | 1015.1 |
| 20260509081822 | 60 | 163 | 2.6 | 7.0 | 0.00 | 0.00 | 0.00 | 65 | 1015.1 |
| 20260509081722 | 60 | 171 | 2.6 | 7.0 | 0.00 | 0.00 | 0.00 | 66 | 1015.2 |
| 20260509081622 | 60 | 146 | 2.6 | 7.0 | 0.00 | 0.00 | 0.00 | 67 | 1015.1 |
| 20260509081522 | 60 | 191 | 1.7 | 7.0 | 0.00 | 0.00 | 0.00 | 66 | 1015.2 |
| 20260509081420 | 60 | 173 | 1.7 | 7.0 | 0.00 | 0.00 | 0.00 | 67 | 1015.1 |
| 20260509081315 | 60 | 181 | 1.7 | 7.0 | 0.00 | 0.00 | 0.00 | 67 | 1015.1 |
| 20260509081229 | 60 | 155 | 1.7 | 7.0 | 0.00 | 0.00 | 0.00 | 68 | 1015.1 |
| 20260509081214 | 60 | 146 | 1.7 | 7.0 | 0.00 | 0.00 | 0.00 | 68 | 1015.1 |
| 20260509081114 | 60 | 183 | 1.7 | 6.1 | 0.00 | 0.00 | 0.00 | 69 | 1015.1 |
| 20260509081014 | 60 | 151 | 1.7 | 5.2 | 0.00 | 0.00 | 0.00 | 70 | 1015.1 |
| 20260509080914 | 60 | 163 | 1.7 | 5.2 | 0.00 | 0.00 | 0.00 | 71 | 1015.1 |
| 20260509080810 | 60 | 158 | 1.7 | 5.2 | 0.00 | 0.00 | 0.00 | 71 | 1015.1 |
| 20260509080708 | 60 | 173 | 1.7 | 5.2 | 0.00 | 0.00 | 0.00 | 70 | 1015.0 |
| 20260509080611 | 59 | 155 | 1.7 | 5.2 | 0.00 | 0.00 | 0.00 | 72 | 1015.0 |
| 20260509080508 | 59 | 163 | 2.6 | 5.2 | 0.00 | 0.00 | 0.00 | 71 | 1015.0 |
| 20260509080408 | 59 | 163 | 2.6 | 6.1 | 0.00 | 0.00 | 0.00 | 71 | 1015.1 |
| 20260509080304 | 59 | 163 | 2.6 | 6.1 | 0.00 | 0.00 | 0.00 | 70 | 1015.0 |
| 20260509080202 | 59 | 163 | 2.6 | 6.1 | 0.00 | 0.00 | 0.00 | 70 | 1015.0 |
| 20260509080001 | 59 | 123 | 1.7 | 6.1 | 0.00 | 0.00 | 0.00 | 72 | 1015.0 |
| 20260509075901 | 59 | 123 | 1.7 | 6.1 | 0.00 | 0.00 | 0.00 | 72 | 1015.0 |
| 20260509075801 | 59 | 147 | 1.7 | 6.1 | 0.00 | 0.00 | 0.00 | 72 | 1015.0 |
| 20260509075702 | 59 | 143 | 1.7 | 6.1 | 0.00 | 0.00 | 0.00 | 73 | 1015.0 |
| 20260509075606 | 59 | 157 | 1.7 | 6.1 | 0.00 | 0.00 | 0.00 | 72 | 1015.0 |
| 20260509075502 | 58 | 115 | 1.7 | 6.1 | 0.00 | 0.00 | 0.00 | 73 | 1015.0 |
| 20260509075401 | 58 | 144 | 0.9 | 6.1 | 0.00 | 0.00 | 0.00 | 73 | 1015.0 |
| 20260509075301 | 58 | 134 | 0.9 | 4.3 | 0.00 | 0.00 | 0.00 | 74 | 1015.0 |
| 20260509075213 | 58 | 141 | 0.9 | 3.5 | 0.00 | 0.00 | 0.00 | 75 | 1015.0 |
| 20260509075201 | 58 | 147 | 0.9 | 3.5 | 0.00 | 0.00 | 0.00 | 75 | 1015.0 |
| 20260509075106 | 58 | 151 | 0.9 | 3.5 | 0.00 | 0.00 | 0.00 | 74 | 1015.0 |
| 20260509075001 | 58 | 151 | 0.9 | 3.5 | 0.00 | 0.00 | 0.00 | 73 | 1015.0 |
| 20260509074943 | 58 | 154 | 0.9 | 3.5 | 0.00 | 0.00 | 0.00 | 75 | 1015.1 |
| 20260509074929 | 58 | 151 | 0.9 | 3.5 | 0.00 | 0.00 | 0.00 | 73 | 1015.1 |
| 20260509074925 | 58 | 152 | 0.9 | 3.5 | 0.00 | 0.00 | 0.00 | 74 | 1015.1 |
| 20260509074701 | 58 | 154 | 0.9 | 3.5 | 0.00 | 0.00 | 0.00 | 75 | 1015.1 |
| 20260509074604 | 57 | 155 | 0.9 | 4.3 | 0.00 | 0.00 | 0.00 | 74 | 1015.1 |
| 20260509074501 | 57 | 155 | 0.9 | 4.3 | 0.00 | 0.00 | 0.00 | 73 | 1015.1 |
| 20260509074435 | 57 | 142 | 0.9 | 4.3 | 0.00 | 0.00 | 0.00 | 76 | 1015.1 |
| 20260509074428 | 57 | 155 | 0.9 | 4.3 | 0.00 | 0.00 | 0.00 | 75 | 1015.2 |
| 20260509074424 | 57 | 160 | 0.9 | 4.3 | 0.00 | 0.00 | 0.00 | 77 | 1015.1 |
| 20260509074201 | 57 | 142 | 0.9 | 4.3 | 0.00 | 0.00 | 0.00 | 76 | 1015.1 |
| 20260509074101 | 57 | 142 | 0.9 | 4.3 | 0.00 | 0.00 | 0.00 | 76 | 1015.1 |
| 20260509073955 | 57 | 142 | 0.9 | 4.3 | 0.00 | 0.00 | 0.00 | 75 | 1015.1 |
| 20260509073853 | 57 | 142 | 0.9 | 4.3 | 0.00 | 0.00 | 0.00 | 75 | 1015.1 |
| 20260509073753 | 57 | 142 | 0.9 | 4.3 | 0.00 | 0.00 | 0.00 | 75 | 1015.1 |
| 20260509073709 | 57 | 142 | 0.9 | 4.3 | 0.00 | 0.00 | 0.00 | 75 | 1015.1 |
| 20260509073653 | 57 | 143 | 0.9 | 4.3 | 0.00 | 0.00 | 0.00 | 75 | 1015.1 |
| 20260509073557 | 57 | 101 | 0.9 | 2.6 | 0.00 | 0.00 | 0.00 | 76 | 1015.0 |
| 20260509073454 | 56 | 101 | 0.9 | 2.6 | 0.00 | 0.00 | 0.00 | 76 | 1015.1 |
| 20260509073354 | 56 | 101 | 0.9 | 2.6 | 0.00 | 0.00 | 0.00 | 76 | 1015.1 |
| 20260509073254 | 56 | 101 | 0.9 | 2.6 | 0.00 | 0.00 | 0.00 | 76 | 1015.1 |
| 20260509073210 | 56 | 101 | 0.9 | 2.6 | 0.00 | 0.00 | 0.00 | 76 | 1015.1 |
| 20260509073154 | 56 | 101 | 0.9 | 2.6 | 0.00 | 0.00 | 0.00 | 76 | 1015.1 |
| 20260509073056 | 56 | 101 | 0.9 | 5.2 | 0.00 | 0.00 | 0.00 | 77 | 1015.0 |
| 20260509072953 | 56 | 101 | 0.9 | 5.2 | 0.00 | 0.00 | 0.00 | 76 | 1015.1 |
| 20260509072854 | 56 | 101 | 0.9 | 5.2 | 0.00 | 0.00 | 0.00 | 76 | 1015.0 |
| 20260509072752 | 56 | 101 | 0.9 | 5.2 | 0.00 | 0.00 | 0.00 | 76 | 1015.0 |
| 20260509072711 | 56 | 101 | 0.9 | 5.2 | 0.00 | 0.00 | 0.00 | 76 | 1015.0 |
| 20260509072652 | 56 | 101 | 0.9 | 5.2 | 0.00 | 0.00 | 0.00 | 76 | 1015.0 |
| 20260509072554 | 56 | 101 | 0.9 | 5.2 | 0.00 | 0.00 | 0.00 | 76 | 1015.0 |
| 20260509072447 | 56 | 101 | 0.9 | 5.2 | 0.00 | 0.00 | 0.00 | 76 | 1015.0 |
| 20260509072347 | 56 | 101 | 0.9 | 5.2 | 0.00 | 0.00 | 0.00 | 76 | 1015.0 |
| 20260509072245 | 56 | 115 | 0.9 | 5.2 | 0.00 | 0.00 | 0.00 | 76 | 1015.0 |
| 20260509072209 | 56 | 116 | 0.9 | 5.2 | 0.00 | 0.00 | 0.00 | 76 | 1015.0 |
| 20260509072146 | 56 | 116 | 0.9 | 5.2 | 0.00 | 0.00 | 0.00 | 76 | 1015.0 |
| 20260509072051 | 56 | 127 | 0.9 | 3.5 | 0.00 | 0.00 | 0.00 | 76 | 1015.0 |
| 20260509071944 | 56 | 128 | 0.9 | 3.5 | 0.00 | 0.00 | 0.00 | 76 | 1015.1 |
| 20260509071844 | 56 | 127 | 0.9 | 3.5 | 0.00 | 0.00 | 0.00 | 76 | 1015.1 |
| 20260509071744 | 56 | 128 | 0.9 | 3.5 | 0.00 | 0.00 | 0.00 | 76 | 1015.1 |
| 20260509071708 | 56 | 128 | 0.9 | 3.5 | 0.00 | 0.00 | 0.00 | 77 | 1015.1 |
| 20260509071643 | 56 | 98 | 0.9 | 3.5 | 0.00 | 0.00 | 0.00 | 77 | 1015.1 |
| 20260509071545 | 56 | 97 | 0.9 | 3.5 | 0.00 | 0.00 | 0.00 | 76 | 1015.1 |
| 20260509071443 | 56 | 96 | 0.9 | 3.5 | 0.00 | 0.00 | 0.00 | 76 | 1015.1 |
| 20260509071338 | 56 | 96 | 0.9 | 3.5 | 0.00 | 0.00 | 0.00 | 77 | 1015.2 |
| 20260509071238 | 56 | 101 | 0.9 | 3.5 | 0.00 | 0.00 | 0.00 | 76 | 1015.1 |
| 20260509071209 | 56 | 101 | 0.9 | 3.5 | 0.00 | 0.00 | 0.00 | 77 | 1015.1 |
| 20260509071137 | 56 | 101 | 0.9 | 3.5 | 0.00 | 0.00 | 0.00 | 77 | 1015.1 |
| 20260509071038 | 56 | 115 | 0.9 | 3.5 | 0.00 | 0.00 | 0.00 | 76 | 1015.1 |
| 20260509070938 | 55 | 115 | 1.7 | 5.2 | 0.00 | 0.00 | 0.00 | 76 | 1015.1 |
| 20260509070834 | 55 | 115 | 1.7 | 6.1 | 0.00 | 0.00 | 0.00 | 76 | 1015.1 |
| 20260509070731 | 55 | 116 | 1.7 | 6.1 | 0.00 | 0.00 | 0.00 | 76 | 1015.1 |
| 20260509070708 | 55 | 107 | 1.7 | 6.1 | 0.00 | 0.00 | 0.00 | 76 | 1015.1 |
| 20260509070631 | 55 | 90 | 1.7 | 6.1 | 0.00 | 0.00 | 0.00 | 76 | 1015.1 |
| 20260509070532 | 55 | 97 | 1.7 | 6.1 | 0.00 | 0.00 | 0.00 | 76 | 1015.2 |
| 20260509070432 | 55 | 119 | 1.7 | 6.1 | 0.00 | 0.00 | 0.00 | 76 | 1015.2 |
| 20260509070332 | 55 | 119 | 1.7 | 6.1 | 0.00 | 0.00 | 0.00 | 76 | 1015.2 |
| 20260509070230 | 55 | 127 | 1.7 | 6.1 | 0.00 | 0.00 | 0.00 | 76 | 1015.2 |
| 20260509070207 | 55 | 111 | 1.7 | 6.1 | 0.00 | 0.00 | 0.00 | 76 | 1015.2 |
| 20260509070130 | 55 | 111 | 1.7 | 6.1 | 0.00 | 0.00 | 0.00 | 76 | 1015.2 |
| 20260509070030 | 55 | 112 | 1.7 | 6.1 | 0.00 | 0.00 | 0.00 | 76 | 1015.2 |
| 20260509065930 | 55 | 88 | 1.7 | 6.1 | 0.00 | 0.00 | 0.00 | 76 | 1015.2 |
| 20260509065830 | 55 | 121 | 1.7 | 5.2 | 0.00 | 0.00 | 0.00 | 76 | 1015.2 |
| 20260509065707 | 55 | 105 | 1.7 | 5.2 | 0.00 | 0.00 | 0.00 | 76 | 1015.2 |
| 20260509065629 | 55 | 127 | 1.7 | 5.2 | 0.00 | 0.00 | 0.00 | 75 | 1015.2 |
| 20260509065529 | 55 | 108 | 1.7 | 5.2 | 0.00 | 0.00 | 0.00 | 76 | 1015.2 |
| 20260509065429 | 55 | 103 | 0.9 | 5.2 | 0.00 | 0.00 | 0.00 | 76 | 1015.2 |
| 20260509065329 | 55 | 121 | 1.7 | 5.2 | 0.00 | 0.00 | 0.00 | 75 | 1015.2 |
| 20260509065205 | 55 | 105 | 1.7 | 5.2 | 0.00 | 0.00 | 0.00 | 76 | 1015.2 |
| 20260509065125 | 55 | 128 | 0.9 | 5.2 | 0.00 | 0.00 | 0.00 | 76 | 1015.2 |
| 20260509065023 | 55 | 101 | 0.9 | 5.2 | 0.00 | 0.00 | 0.00 | 76 | 1015.2 |
| 20260509064923 | 55 | 109 | 0.9 | 5.2 | 0.00 | 0.00 | 0.00 | 76 | 1015.2 |
| 20260509064821 | 55 | 107 | 0.9 | 5.2 | 0.00 | 0.00 | 0.00 | 75 | 1015.2 |
| 20260509064722 | 55 | 113 | 0.9 | 6.1 | 0.00 | 0.00 | 0.00 | 76 | 1015.2 |
| 20260509064705 | 55 | 128 | 0.9 | 6.1 | 0.00 | 0.00 | 0.00 | 76 | 1015.2 |
| 20260509064622 | 55 | 119 | 1.7 | 6.1 | 0.00 | 0.00 | 0.00 | 76 | 1015.2 |
| 20260509064521 | 55 | 120 | 1.7 | 6.1 | 0.00 | 0.00 | 0.00 | 76 | 1015.3 |
| 20260509064421 | 55 | 120 | 1.7 | 6.1 | 0.00 | 0.00 | 0.00 | 76 | 1015.2 |
| 20260509064321 | 55 | 121 | 1.7 | 6.1 | 0.00 | 0.00 | 0.00 | 76 | 1015.2 |
| 20260509064219 | 55 | 122 | 1.7 | 6.1 | 0.00 | 0.00 | 0.00 | 76 | 1015.2 |
| 20260509064204 | 55 | 119 | 1.7 | 6.1 | 0.00 | 0.00 | 0.00 | 76 | 1015.2 |
| 20260509064120 | 55 | 119 | 1.7 | 6.1 | 0.00 | 0.00 | 0.00 | 76 | 1015.2 |
| 20260509064018 | 55 | 119 | 2.6 | 7.0 | 0.00 | 0.00 | 0.00 | 76 | 1015.2 |
| 20260509063918 | 55 | 119 | 2.6 | 7.0 | 0.00 | 0.00 | 0.00 | 76 | 1015.2 |
| 20260509063818 | 55 | 119 | 2.6 | 7.0 | 0.00 | 0.00 | 0.00 | 76 | 1015.2 |
| 20260509063718 | 55 | 113 | 2.6 | 7.0 | 0.00 | 0.00 | 0.00 | 77 | 1015.2 |
| 20260509063703 | 55 | 100 | 2.6 | 7.0 | 0.00 | 0.00 | 0.00 | 77 | 1015.2 |
| 20260509063617 | 55 | 134 | 1.7 | 7.0 | 0.00 | 0.00 | 0.00 | 77 | 1015.2 |
| 20260509063518 | 55 | 154 | 1.7 | 7.0 | 0.00 | 0.00 | 0.00 | 77 | 1015.1 |
| 20260509063418 | 55 | 173 | 1.7 | 7.0 | 0.00 | 0.00 | 0.00 | 77 | 1015.1 |
| 20260509063316 | 55 | 91 | 1.7 | 7.0 | 0.00 | 0.00 | 0.00 | 76 | 1015.2 |
| 20260509063203 | 55 | 91 | 2.6 | 7.0 | 0.00 | 0.00 | 0.00 | 76 | 1015.1 |
| 20260509063115 | 55 | 138 | 2.6 | 7.0 | 0.00 | 0.00 | 0.00 | 76 | 1015.1 |
| 20260509063016 | 55 | 136 | 1.7 | 6.1 | 0.00 | 0.00 | 0.00 | 76 | 1015.1 |
| 20260509062916 | 55 | 121 | 1.7 | 6.1 | 0.00 | 0.00 | 0.00 | 77 | 1015.1 |
| 20260509062815 | 54 | 138 | 1.7 | 6.1 | 0.00 | 0.00 | 0.00 | 77 | 1015.1 |
| 20260509062703 | 54 | 97 | 1.7 | 6.1 | 0.00 | 0.00 | 0.00 | 77 | 1015.1 |
| 20260509062615 | 54 | 82 | 1.7 | 6.1 | 0.00 | 0.00 | 0.00 | 77 | 1015.1 |
| 20260509062516 | 54 | 147 | 1.7 | 6.1 | 0.00 | 0.00 | 0.00 | 77 | 1015.1 |
| 20260509062432 | 53 | 106 | 1.7 | 5.2 | 0.00 | 0.00 | 0.00 | 77 | 1015.1 |
| 20260509062423 | 54 | 130 | 1.7 | 5.2 | 0.00 | 0.00 | 0.00 | 77 | 1015.1 |
| 20260509062419 | 54 | 130 | 1.7 | 5.2 | 0.00 | 0.00 | 0.00 | 77 | 1015.1 |
| 20260509062415 | 53 | 133 | 1.7 | 5.2 | 0.00 | 0.00 | 0.00 | 77 | 1015.1 |
| 20260509062116 | 53 | 111 | 0.9 | 5.2 | 0.00 | 0.00 | 0.00 | 77 | 1015.1 |
| 20260509062015 | 53 | 119 | 0.9 | 5.2 | 0.00 | 0.00 | 0.00 | 77 | 1015.1 |
| 20260509061915 | 53 | 108 | 0.9 | 3.5 | 0.00 | 0.00 | 0.00 | 77 | 1015.0 |
| 20260509061815 | 53 | 121 | 0.9 | 3.5 | 0.00 | 0.00 | 0.00 | 77 | 1015.0 |
| 20260509061715 | 53 | 153 | 0.9 | 3.5 | 0.00 | 0.00 | 0.00 | 77 | 1015.0 |
| 20260509061704 | 53 | 111 | 0.9 | 3.5 | 0.00 | 0.00 | 0.00 | 77 | 1015.0 |
| 20260509061616 | 53 | 105 | 0.9 | 3.5 | 0.00 | 0.00 | 0.00 | 78 | 1015.0 |
| 20260509061512 | 53 | 105 | 0.9 | 3.5 | 0.00 | 0.00 | 0.00 | 78 | 1015.0 |
| 20260509061411 | 53 | 112 | 0.9 | 2.6 | 0.00 | 0.00 | 0.00 | 79 | 1015.0 |
| 20260509061311 | 52 | 119 | 0.9 | 2.6 | 0.00 | 0.00 | 0.00 | 78 | 1015.0 |
| 20260509061205 | 52 | 127 | 0.9 | 2.6 | 0.00 | 0.00 | 0.00 | 79 | 1015.0 |
| 20260509061112 | 52 | 127 | 0.9 | 2.6 | 0.00 | 0.00 | 0.00 | 79 | 1015.0 |
| 20260509061011 | 52 | 108 | 0.9 | 2.6 | 0.00 | 0.00 | 0.00 | 79 | 1015.0 |
| 20260509060911 | 52 | 108 | 0.9 | 2.6 | 0.00 | 0.00 | 0.00 | 79 | 1015.0 |
| 20260509060811 | 52 | 108 | 0.9 | 2.6 | 0.00 | 0.00 | 0.00 | 79 | 1015.0 |
| 20260509060703 | 52 | 108 | 0.9 | 2.6 | 0.00 | 0.00 | 0.00 | 80 | 1015.0 |
| 20260509060611 | 52 | 111 | 0.0 | 2.6 | 0.00 | 0.00 | 0.00 | 80 | 1015.0 |
| 20260509060516 | 51 | 109 | 0.0 | 2.6 | 0.00 | 0.00 | 0.00 | 79 | 1015.0 |
| 20260509060411 | 51 | 109 | 0.9 | 2.6 | 0.00 | 0.00 | 0.00 | 79 | 1015.0 |
| 20260509060311 | 51 | 109 | 0.9 | 2.6 | 0.00 | 0.00 | 0.00 | 79 | 1015.0 |
| 20260509060204 | 51 | 113 | 0.9 | 2.6 | 0.00 | 0.00 | 0.00 | 80 | 1015.0 |
| 20260509060112 | 51 | 113 | 0.0 | 2.6 | 0.00 | 0.00 | 0.00 | 80 | 1015.0 |
| 20260509060016 | 51 | 113 | 0.9 | 2.6 | 0.00 | 0.00 | 0.00 | 80 | 1015.0 |
| 20260509055924 | 51 | 113 | 0.9 | 2.6 | 0.00 | 0.00 | 0.00 | 80 | 1015.0 |
| 20260509055920 | 51 | 113 | 0.9 | 5.2 | 0.00 | 0.00 | 0.00 | 80 | 1015.0 |
| 20260509055916 | 51 | 107 | 0.9 | 5.2 | 0.00 | 0.00 | 0.00 | 80 | 1015.0 |
| 20260509055607 | 51 | 105 | 0.9 | 5.2 | 0.00 | 0.00 | 0.00 | 80 | 1015.0 |
| 20260509055507 | 51 | 105 | 0.9 | 5.2 | 0.00 | 0.00 | 0.00 | 80 | 1015.0 |
| 20260509055407 | 51 | 105 | 0.9 | 5.2 | 0.00 | 0.00 | 0.00 | 81 | 1015.0 |
| 20260509055307 | 51 | 105 | 0.9 | 5.2 | 0.00 | 0.00 | 0.00 | 81 | 1015.0 |
| 20260509055204 | 50 | 105 | 0.9 | 5.2 | 0.00 | 0.00 | 0.00 | 80 | 1015.0 |
| 20260509055108 | 50 | 105 | 0.9 | 5.2 | 0.00 | 0.00 | 0.00 | 80 | 1015.0 |
| 20260509055008 | 50 | 106 | 0.9 | 5.2 | 0.00 | 0.00 | 0.00 | 80 | 1015.0 |
| 20260509054908 | 50 | 121 | 0.0 | 5.2 | 0.00 | 0.00 | 0.00 | 81 | 1015.0 |
| 20260509054808 | 50 | 98 | 0.0 | 2.6 | 0.00 | 0.00 | 0.00 | 81 | 1015.0 |
| 20260509054707 | 50 | 96 | 0.0 | 2.6 | 0.00 | 0.00 | 0.00 | 81 | 1015.0 |
| 20260509054703 | 50 | 99 | 0.0 | 2.6 | 0.00 | 0.00 | 0.00 | 81 | 1015.0 |
| 20260509054607 | 50 | 105 | 0.0 | 2.6 | 0.00 | 0.00 | 0.00 | 81 | 1015.0 |
| 20260509054508 | 50 | 111 | 0.9 | 2.6 | 0.00 | 0.00 | 0.00 | 81 | 1015.0 |
| 20260509054408 | 50 | 110 | 0.9 | 2.6 | 0.00 | 0.00 | 0.00 | 82 | 1014.9 |
| 20260509054307 | 49 | 111 | 0.9 | 2.6 | 0.00 | 0.00 | 0.00 | 82 | 1015.0 |
| 20260509054205 | 49 | 111 | 0.9 | 2.6 | 0.00 | 0.00 | 0.00 | 82 | 1015.0 |
| 20260509054107 | 49 | 110 | 0.9 | 2.6 | 0.00 | 0.00 | 0.00 | 82 | 1015.0 |
| 20260509054007 | 49 | 110 | 0.9 | 2.6 | 0.00 | 0.00 | 0.00 | 81 | 1015.0 |
| 20260509053907 | 49 | 110 | 0.9 | 2.6 | 0.00 | 0.00 | 0.00 | 82 | 1015.0 |
| 20260509053807 | 49 | 111 | 0.9 | 2.6 | 0.00 | 0.00 | 0.00 | 82 | 1015.0 |
| 20260509053703 | 49 | 108 | 0.9 | 2.6 | 0.00 | 0.00 | 0.00 | 82 | 1015.1 |
| 20260509053603 | 49 | 111 | 0.9 | 2.6 | 0.00 | 0.00 | 0.00 | 82 | 1015.1 |
| 20260509053503 | 49 | 112 | 0.0 | 2.6 | 0.00 | 0.00 | 0.00 | 83 | 1015.1 |
| 20260509053423 | 49 | 113 | 0.0 | 1.7 | 0.00 | 0.00 | 0.00 | 83 | 1015.1 |
| 20260509053419 | 49 | 113 | 0.9 | 1.7 | 0.00 | 0.00 | 0.00 | 83 | 1015.1 |
| 20260509053415 | 49 | 113 | 0.9 | 2.6 | 0.00 | 0.00 | 0.00 | 83 | 1015.1 |
| 20260509053104 | 49 | 113 | 0.9 | 2.6 | 0.00 | 0.00 | 0.00 | 83 | 1015.1 |
| 20260509053004 | 49 | 113 | 0.9 | 2.6 | 0.00 | 0.00 | 0.00 | 82 | 1015.1 |
| 20260509052903 | 49 | 113 | 0.9 | 2.6 | 0.00 | 0.00 | 0.00 | 82 | 1015.1 |
| 20260509052803 | 49 | 113 | 0.9 | 2.6 | 0.00 | 0.00 | 0.00 | 82 | 1015.1 |
| 20260509052701 | 49 | 113 | 0.9 | 3.5 | 0.00 | 0.00 | 0.00 | 82 | 1015.1 |
| 20260509052601 | 49 | 113 | 0.9 | 3.5 | 0.00 | 0.00 | 0.00 | 82 | 1015.1 |
| 20260509052502 | 49 | 113 | 0.9 | 3.5 | 0.00 | 0.00 | 0.00 | 82 | 1015.1 |
| 20260509052423 | 49 | 113 | 0.9 | 3.5 | 0.00 | 0.00 | 0.00 | 82 | 1015.1 |
| 20260509052419 | 49 | 113 | 0.9 | 3.5 | 0.00 | 0.00 | 0.00 | 82 | 1015.0 |
| 20260509052415 | 49 | 113 | 0.9 | 3.5 | 0.00 | 0.00 | 0.00 | 83 | 1015.0 |
| 20260509052101 | 49 | 113 | 0.9 | 3.5 | 0.00 | 0.00 | 0.00 | 83 | 1015.0 |
| 20260509052001 | 49 | 113 | 1.7 | 4.3 | 0.00 | 0.00 | 0.00 | 83 | 1015.0 |
| 20260509051901 | 49 | 115 | 1.7 | 4.3 | 0.00 | 0.00 | 0.00 | 84 | 1015.0 |
| 20260509051801 | 49 | 115 | 1.7 | 4.3 | 0.00 | 0.00 | 0.00 | 84 | 1015.0 |
| 20260509051701 | 49 | 123 | 1.7 | 4.3 | 0.00 | 0.00 | 0.00 | 84 | 1015.0 |
| 20260509051601 | 49 | 124 | 1.7 | 4.3 | 0.00 | 0.00 | 0.00 | 84 | 1015.0 |
| 20260509051501 | 49 | 126 | 1.7 | 4.3 | 0.00 | 0.00 | 0.00 | 84 | 1015.0 |
| 20260509051401 | 49 | 129 | 1.7 | 4.3 | 0.00 | 0.00 | 0.00 | 84 | 1015.0 |
| 20260509051301 | 49 | 129 | 1.7 | 4.3 | 0.00 | 0.00 | 0.00 | 84 | 1015.0 |
| 20260509051201 | 49 | 143 | 1.7 | 4.3 | 0.00 | 0.00 | 0.00 | 84 | 1015.1 |
| 20260509051101 | 49 | 144 | 1.7 | 4.3 | 0.00 | 0.00 | 0.00 | 84 | 1015.0 |
| 20260509051001 | 49 | 134 | 0.9 | 3.5 | 0.00 | 0.00 | 0.00 | 84 | 1015.1 |
| 20260509050900 | 49 | 125 | 0.9 | 3.5 | 0.00 | 0.00 | 0.00 | 84 | 1015.0 |
| 20260509050800 | 49 | 122 | 0.9 | 2.6 | 0.00 | 0.00 | 0.00 | 84 | 1015.1 |
| 20260509050700 | 49 | 120 | 0.9 | 2.6 | 0.00 | 0.00 | 0.00 | 84 | 1015.0 |
| 20260509050601 | 49 | 119 | 0.9 | 2.6 | 0.00 | 0.00 | 0.00 | 83 | 1015.0 |
| 20260509050501 | 49 | 119 | 0.9 | 2.6 | 0.00 | 0.00 | 0.00 | 83 | 1015.0 |
| 20260509050423 | 48 | 117 | 0.9 | 2.6 | 0.00 | 0.00 | 0.00 | 83 | 1015.0 |
| 20260509050419 | 49 | 119 | 0.9 | 2.6 | 0.00 | 0.00 | 0.00 | 84 | 1015.0 |
| 20260509050415 | 49 | 119 | 1.7 | 2.6 | 0.00 | 0.00 | 0.00 | 83 | 1015.0 |
| 20260509050407 | 49 | 119 | 1.7 | 2.6 | 0.00 | 0.00 | 0.00 | 83 | 1015.0 |
| 20260509050148 | 49 | 119 | 1.7 | 2.6 | 0.00 | 0.00 | 0.00 | 83 | 1015.0 |
| 20260509050144 | 48 | 119 | 1.7 | 2.6 | 0.00 | 0.00 | 0.00 | 83 | 1015.0 |
| 20260509045920 | 48 | 119 | 0.9 | 2.6 | 0.00 | 0.00 | 0.00 | 83 | 1015.0 |
| 20260509045916 | 48 | 117 | 0.9 | 2.6 | 0.00 | 0.00 | 0.00 | 83 | 1015.0 |
| 20260509045912 | 48 | 117 | 0.9 | 2.6 | 0.00 | 0.00 | 0.00 | 83 | 1015.0 |
| 20260509045601 | 48 | 117 | 0.9 | 2.6 | 0.00 | 0.00 | 0.00 | 83 | 1015.0 |
| 20260509045501 | 48 | 115 | 0.9 | 1.7 | 0.00 | 0.00 | 0.00 | 83 | 1014.9 |
| 20260509045401 | 48 | 115 | 0.9 | 1.7 | 0.00 | 0.00 | 0.00 | 83 | 1015.0 |
| 20260509045301 | 48 | 115 | 0.9 | 1.7 | 0.00 | 0.00 | 0.00 | 83 | 1014.9 |
| 20260509045202 | 48 | 115 | 0.9 | 1.7 | 0.00 | 0.00 | 0.00 | 83 | 1014.9 |
| 20260509045101 | 48 | 115 | 0.9 | 1.7 | 0.00 | 0.00 | 0.00 | 83 | 1014.9 |
| 20260509045000 | 48 | 115 | 0.0 | 1.7 | 0.00 | 0.00 | 0.00 | 83 | 1014.9 |
| 20260509044901 | 48 | 115 | 0.0 | 1.7 | 0.00 | 0.00 | 0.00 | 83 | 1014.9 |
| 20260509044801 | 48 | 115 | 0.0 | 1.7 | 0.00 | 0.00 | 0.00 | 83 | 1014.9 |
| 20260509044701 | 48 | 115 | 0.9 | 3.5 | 0.00 | 0.00 | 0.00 | 83 | 1014.9 |
| 20260509044601 | 48 | 115 | 0.9 | 3.5 | 0.00 | 0.00 | 0.00 | 83 | 1014.9 |
| 20260509044500 | 48 | 115 | 0.9 | 3.5 | 0.00 | 0.00 | 0.00 | 83 | 1014.9 |
| 20260509044421 | 48 | 115 | 0.9 | 3.5 | 0.00 | 0.00 | 0.00 | 83 | 1014.9 |
| 20260509044417 | 48 | 115 | 0.9 | 3.5 | 0.00 | 0.00 | 0.00 | 83 | 1014.8 |
| 20260509044412 | 48 | 115 | 0.9 | 5.2 | 0.00 | 0.00 | 0.00 | 83 | 1014.8 |
| 20260509044100 | 48 | 115 | 0.9 | 5.2 | 0.00 | 0.00 | 0.00 | 83 | 1014.8 |
| 20260509044001 | 48 | 115 | 1.7 | 5.2 | 0.00 | 0.00 | 0.00 | 83 | 1014.8 |
| 20260509043900 | 48 | 115 | 1.7 | 5.2 | 0.00 | 0.00 | 0.00 | 83 | 1014.8 |
| 20260509043800 | 48 | 116 | 1.7 | 5.2 | 0.00 | 0.00 | 0.00 | 83 | 1014.8 |
| 20260509043701 | 48 | 135 | 1.7 | 5.2 | 0.00 | 0.00 | 0.00 | 83 | 1014.8 |
| 20260509043601 | 48 | 114 | 1.7 | 5.2 | 0.00 | 0.00 | 0.00 | 83 | 1014.7 |
| 20260509043501 | 48 | 103 | 1.7 | 5.2 | 0.00 | 0.00 | 0.00 | 83 | 1014.7 |
| 20260509043401 | 48 | 103 | 1.7 | 5.2 | 0.00 | 0.00 | 0.00 | 83 | 1014.7 |
| 20260509043301 | 48 | 109 | 1.7 | 5.2 | 0.00 | 0.00 | 0.00 | 83 | 1014.6 |
| 20260509043201 | 48 | 121 | 1.7 | 4.3 | 0.00 | 0.00 | 0.00 | 83 | 1014.6 |
| 20260509043156 | 48 | 121 | 1.7 | 4.3 | 0.00 | 0.00 | 0.00 | 83 | 1014.6 |
| 20260509043056 | 48 | 113 | 2.6 | 6.1 | 0.00 | 0.00 | 0.00 | 82 | 1014.6 |
| 20260509042955 | 48 | 95 | 2.6 | 6.1 | 0.00 | 0.00 | 0.00 | 82 | 1014.6 |
| 20260509042918 | 48 | 103 | 2.6 | 6.1 | 0.00 | 0.00 | 0.00 | 82 | 1014.6 |
| 20260509042913 | 48 | 98 | 2.6 | 6.1 | 0.00 | 0.00 | 0.00 | 82 | 1014.6 |
| 20260509042656 | 48 | 141 | 3.5 | 7.0 | 0.00 | 0.00 | 0.00 | 81 | 1014.6 |
| 20260509042652 | 48 | 93 | 2.6 | 6.1 | 0.00 | 0.00 | 0.00 | 82 | 1014.6 |
| 20260509042648 | 48 | 95 | 3.5 | 7.0 | 0.00 | 0.00 | 0.00 | 82 | 1014.6 |
| 20260509042644 | 48 | 112 | 3.5 | 7.0 | 0.00 | 0.00 | 0.00 | 82 | 1014.6 |
| 20260509042418 | 48 | 113 | 3.5 | 7.0 | 0.00 | 0.00 | 0.00 | 82 | 1014.5 |
| 20260509042414 | 48 | 128 | 3.5 | 7.0 | 0.00 | 0.00 | 0.00 | 81 | 1014.6 |
| 20260509042146 | 48 | 134 | 3.5 | 7.0 | 0.00 | 0.00 | 0.00 | 81 | 1014.6 |
| 20260509042046 | 48 | 121 | 3.5 | 7.8 | 0.00 | 0.00 | 0.00 | 81 | 1014.6 |
| 20260509041945 | 48 | 157 | 3.5 | 7.8 | 0.00 | 0.00 | 0.00 | 81 | 1014.5 |
| 20260509041843 | 48 | 150 | 4.3 | 7.8 | 0.00 | 0.00 | 0.00 | 81 | 1014.6 |
| 20260509041741 | 48 | 130 | 4.3 | 7.8 | 0.00 | 0.00 | 0.00 | 81 | 1014.5 |
| 20260509041701 | 48 | 140 | 4.3 | 7.8 | 0.00 | 0.00 | 0.00 | 81 | 1014.5 |
| 20260509041638 | 48 | 142 | 3.5 | 7.8 | 0.00 | 0.00 | 0.00 | 81 | 1014.5 |
| 20260509041538 | 48 | 135 | 3.5 | 7.8 | 0.00 | 0.00 | 0.00 | 81 | 1014.5 |
| 20260509041437 | 48 | 137 | 3.5 | 7.8 | 0.00 | 0.00 | 0.00 | 81 | 1014.5 |
| 20260509041335 | 48 | 146 | 3.5 | 7.8 | 0.00 | 0.00 | 0.00 | 81 | 1014.5 |
| 20260509041236 | 48 | 140 | 3.5 | 7.8 | 0.00 | 0.00 | 0.00 | 81 | 1014.5 |
| 20260509041201 | 48 | 142 | 3.5 | 7.8 | 0.00 | 0.00 | 0.00 | 81 | 1014.5 |
| 20260509041135 | 48 | 138 | 3.5 | 7.8 | 0.00 | 0.00 | 0.00 | 81 | 1014.5 |
| 20260509041035 | 48 | 140 | 2.6 | 6.1 | 0.00 | 0.00 | 0.00 | 81 | 1014.5 |
| 20260509040935 | 48 | 132 | 2.6 | 6.1 | 0.00 | 0.00 | 0.00 | 81 | 1014.5 |
| 20260509040835 | 48 | 136 | 1.7 | 6.1 | 0.00 | 0.00 | 0.00 | 81 | 1014.5 |
| 20260509040735 | 48 | 143 | 1.7 | 6.1 | 0.00 | 0.00 | 0.00 | 81 | 1014.5 |
| 20260509040700 | 48 | 132 | 1.7 | 6.1 | 0.00 | 0.00 | 0.00 | 81 | 1014.5 |
| 20260509040635 | 48 | 143 | 0.9 | 6.1 | 0.00 | 0.00 | 0.00 | 81 | 1014.6 |
| 20260509040534 | 48 | 138 | 0.9 | 5.2 | 0.00 | 0.00 | 0.00 | 81 | 1014.5 |
| 20260509040434 | 48 | 146 | 0.9 | 4.3 | 0.00 | 0.00 | 0.00 | 82 | 1014.6 |
| 20260509040332 | 48 | 136 | 0.9 | 3.5 | 0.00 | 0.00 | 0.00 | 82 | 1014.5 |
| 20260509040231 | 48 | 164 | 0.0 | 2.6 | 0.00 | 0.00 | 0.00 | 82 | 1014.5 |
| 20260509040200 | 48 | 148 | 0.0 | 2.6 | 0.00 | 0.00 | 0.00 | 82 | 1014.5 |
| 20260509040131 | 48 | 143 | 0.0 | 1.7 | 0.00 | 0.00 | 0.00 | 82 | 1014.5 |
| 20260509040031 | 48 | 140 | 0.0 | 2.6 | 0.00 | 0.00 | 0.00 | 82 | 1014.6 |
| 20260509035929 | 48 | 140 | 0.0 | 2.6 | 0.00 | 0.00 | 0.00 | 82 | 1014.5 |
| 20260509035829 | 48 | 140 | 0.0 | 2.6 | 0.00 | 0.00 | 0.00 | 81 | 1014.5 |
| 20260509035701 | 48 | 140 | 0.9 | 2.6 | 0.00 | 0.00 | 0.00 | 81 | 1014.5 |
| 20260509035629 | 48 | 140 | 0.9 | 2.6 | 0.00 | 0.00 | 0.00 | 81 | 1014.5 |
| 20260509035530 | 48 | 140 | 0.9 | 2.6 | 0.00 | 0.00 | 0.00 | 81 | 1014.5 |
| 20260509035429 | 48 | 140 | 0.9 | 2.6 | 0.00 | 0.00 | 0.00 | 81 | 1014.5 |
| 20260509035330 | 48 | 140 | 0.9 | 2.6 | 0.00 | 0.00 | 0.00 | 81 | 1014.5 |
| 20260509035203 | 48 | 140 | 0.9 | 2.6 | 0.00 | 0.00 | 0.00 | 81 | 1014.6 |
| 20260509035159 | 48 | 140 | 0.9 | 2.6 | 0.00 | 0.00 | 0.00 | 81 | 1014.6 |
| 20260509035029 | 48 | 141 | 0.9 | 2.6 | 0.00 | 0.00 | 0.00 | 81 | 1014.6 |
| 20260509034929 | 48 | 141 | 0.9 | 2.6 | 0.00 | 0.00 | 0.00 | 81 | 1014.6 |
| 20260509034829 | 48 | 140 | 0.9 | 2.6 | 0.00 | 0.00 | 0.00 | 81 | 1014.6 |
| 20260509034729 | 48 | 140 | 0.9 | 2.6 | 0.00 | 0.00 | 0.00 | 81 | 1014.6 |
| 20260509034701 | 48 | 123 | 0.9 | 2.6 | 0.00 | 0.00 | 0.00 | 81 | 1014.6 |
| 20260509034628 | 48 | 123 | 0.0 | 2.6 | 0.00 | 0.00 | 0.00 | 81 | 1014.6 |
| 20260509034528 | 48 | 123 | 0.0 | 1.7 | 0.00 | 0.00 | 0.00 | 81 | 1014.5 |
| 20260509034429 | 48 | 123 | 0.0 | 1.7 | 0.00 | 0.00 | 0.00 | 81 | 1014.5 |
| 20260509034328 | 48 | 123 | 0.0 | 0.9 | 0.00 | 0.00 | 0.00 | 81 | 1014.5 |
| 20260509034201 | 48 | 123 | 0.0 | 0.9 | 0.00 | 0.00 | 0.00 | 81 | 1014.4 |
| 20260509034129 | 48 | 123 | 0.0 | 0.9 | 0.00 | 0.00 | 0.00 | 81 | 1014.5 |
| 20260509034029 | 48 | 123 | 0.0 | 0.9 | 0.00 | 0.00 | 0.00 | 81 | 1014.5 |
| 20260509033929 | 48 | 123 | 0.0 | 0.9 | 0.00 | 0.00 | 0.00 | 81 | 1014.4 |
| 20260509033829 | 48 | 123 | 0.0 | 0.9 | 0.00 | 0.00 | 0.00 | 81 | 1014.4 |
| 20260509033701 | 48 | 123 | 0.0 | 0.9 | 0.00 | 0.00 | 0.00 | 81 | 1014.5 |
| 20260509033628 | 48 | 123 | 0.0 | 0.9 | 0.00 | 0.00 | 0.00 | 81 | 1014.5 |
| 20260509033528 | 48 | 123 | 0.0 | 0.9 | 0.00 | 0.00 | 0.00 | 81 | 1014.4 |
| 20260509033428 | 48 | 123 | 0.0 | 0.9 | 0.00 | 0.00 | 0.00 | 81 | 1014.5 |
| 20260509033329 | 48 | 123 | 0.0 | 0.9 | 0.00 | 0.00 | 0.00 | 81 | 1014.5 |
| 20260509033229 | 48 | 123 | 0.0 | 0.9 | 0.00 | 0.00 | 0.00 | 81 | 1014.5 |
| 20260509033200 | 49 | 123 | 0.0 | 0.9 | 0.00 | 0.00 | 0.00 | 81 | 1014.5 |
| 20260509033128 | 49 | 123 | 0.0 | 0.9 | 0.00 | 0.00 | 0.00 | 81 | 1014.4 |
| 20260509033029 | 49 | 123 | 0.0 | 0.9 | 0.00 | 0.00 | 0.00 | 81 | 1014.4 |
| 20260509032929 | 49 | 123 | 0.0 | 0.9 | 0.00 | 0.00 | 0.00 | 81 | 1014.4 |
| 20260509032829 | 49 | 123 | 0.0 | 1.7 | 0.00 | 0.00 | 0.00 | 81 | 1014.4 |
| 20260509032701 | 49 | 123 | 0.0 | 1.7 | 0.00 | 0.00 | 0.00 | 81 | 1014.4 |
| 20260509032629 | 49 | 123 | 0.0 | 1.7 | 0.00 | 0.00 | 0.00 | 81 | 1014.4 |
| 20260509032530 | 49 | 123 | 0.0 | 1.7 | 0.00 | 0.00 | 0.00 | 81 | 1014.4 |
| 20260509032429 | 49 | 123 | 0.0 | 1.7 | 0.00 | 0.00 | 0.00 | 81 | 1014.5 |
| 20260509032329 | 49 | 123 | 0.0 | 1.7 | 0.00 | 0.00 | 0.00 | 81 | 1014.5 |
| 20260509032201 | 49 | 123 | 0.0 | 1.7 | 0.00 | 0.00 | 0.00 | 81 | 1014.5 |
| 20260509032129 | 49 | 123 | 0.0 | 1.7 | 0.00 | 0.00 | 0.00 | 81 | 1014.5 |
| 20260509032029 | 49 | 123 | 0.0 | 1.7 | 0.00 | 0.00 | 0.00 | 81 | 1014.5 |
| 20260509031930 | 49 | 123 | 0.0 | 1.7 | 0.00 | 0.00 | 0.00 | 81 | 1014.5 |
| 20260509031926 | 49 | 123 | 0.0 | 0.9 | 0.00 | 0.00 | 0.00 | 81 | 1014.5 |
| 20260509031917 | 49 | 123 | 0.0 | 1.7 | 0.00 | 0.00 | 0.00 | 81 | 1014.5 |
| 20260509031913 | 49 | 123 | 0.0 | 1.7 | 0.00 | 0.00 | 0.00 | 81 | 1014.5 |
| 20260509031629 | 49 | 123 | 0.0 | 0.9 | 0.00 | 0.00 | 0.00 | 81 | 1014.5 |
| 20260509031529 | 49 | 123 | 0.0 | 0.9 | 0.00 | 0.00 | 0.00 | 80 | 1014.6 |
| 20260509031429 | 49 | 123 | 0.0 | 0.9 | 0.00 | 0.00 | 0.00 | 80 | 1014.5 |
| 20260509031329 | 49 | 123 | 0.0 | 1.7 | 0.00 | 0.00 | 0.00 | 80 | 1014.5 |
| 20260509031200 | 49 | 123 | 0.0 | 1.7 | 0.00 | 0.00 | 0.00 | 80 | 1014.5 |
| 20260509031129 | 49 | 123 | 0.9 | 1.7 | 0.00 | 0.00 | 0.00 | 81 | 1014.5 |
| 20260509031029 | 49 | 123 | 0.9 | 1.7 | 0.00 | 0.00 | 0.00 | 81 | 1014.5 |
| 20260509030928 | 49 | 123 | 0.9 | 1.7 | 0.00 | 0.00 | 0.00 | 81 | 1014.5 |
| 20260509030828 | 49 | 123 | 0.9 | 1.7 | 0.00 | 0.00 | 0.00 | 81 | 1014.5 |
| 20260509030700 | 49 | 123 | 0.9 | 1.7 | 0.00 | 0.00 | 0.00 | 80 | 1014.5 |
| 20260509030629 | 49 | 123 | 0.9 | 1.7 | 0.00 | 0.00 | 0.00 | 80 | 1014.6 |
| 20260509030529 | 49 | 123 | 0.9 | 1.7 | 0.00 | 0.00 | 0.00 | 81 | 1014.5 |
| 20260509030429 | 49 | 123 | 0.0 | 1.7 | 0.00 | 0.00 | 0.00 | 81 | 1014.5 |
| 20260509030328 | 49 | 123 | 0.0 | 1.7 | 0.00 | 0.00 | 0.00 | 80 | 1014.5 |
| 20260509030200 | 49 | 123 | 0.0 | 1.7 | 0.00 | 0.00 | 0.00 | 80 | 1014.5 |
| 20260509030128 | 49 | 123 | 0.0 | 0.9 | 0.00 | 0.00 | 0.00 | 80 | 1014.5 |
| 20260509030029 | 49 | 123 | 0.0 | 0.9 | 0.00 | 0.00 | 0.00 | 80 | 1014.5 |
| 20260509025929 | 49 | 123 | 0.0 | 0.0 | 0.00 | 0.00 | 0.00 | 81 | 1014.5 |
| 20260509025829 | 49 | 123 | 0.0 | 0.0 | 0.00 | 0.00 | 0.00 | 80 | 1014.5 |
| 20260509025729 | 49 | 123 | 0.0 | 0.0 | 0.00 | 0.00 | 0.00 | 81 | 1014.5 |
| 20260509025701 | 49 | 123 | 0.0 | 0.0 | 0.00 | 0.00 | 0.00 | 80 | 1014.5 |
| 20260509025630 | 49 | 123 | 0.0 | 0.9 | 0.00 | 0.00 | 0.00 | 80 | 1014.5 |
| 20260509025529 | 49 | 123 | 0.0 | 0.9 | 0.00 | 0.00 | 0.00 | 80 | 1014.5 |
| 20260509025429 | 49 | 123 | 0.0 | 0.9 | 0.00 | 0.00 | 0.00 | 80 | 1014.5 |
| 20260509025329 | 49 | 123 | 0.0 | 0.9 | 0.00 | 0.00 | 0.00 | 80 | 1014.5 |
| 20260509025201 | 49 | 123 | 0.0 | 1.7 | 0.00 | 0.00 | 0.00 | 80 | 1014.5 |
| 20260509025129 | 49 | 123 | 0.0 | 1.7 | 0.00 | 0.00 | 0.00 | 80 | 1014.6 |
| 20260509025029 | 49 | 123 | 0.0 | 1.7 | 0.00 | 0.00 | 0.00 | 80 | 1014.5 |
| 20260509024929 | 49 | 123 | 0.0 | 1.7 | 0.00 | 0.00 | 0.00 | 80 | 1014.5 |
| 20260509024829 | 49 | 123 | 0.0 | 1.7 | 0.00 | 0.00 | 0.00 | 80 | 1014.5 |
| 20260509024701 | 49 | 123 | 0.0 | 1.7 | 0.00 | 0.00 | 0.00 | 80 | 1014.6 |
| 20260509024628 | 49 | 123 | 0.0 | 1.7 | 0.00 | 0.00 | 0.00 | 80 | 1014.6 |
| 20260509024528 | 49 | 123 | 0.0 | 1.7 | 0.00 | 0.00 | 0.00 | 80 | 1014.6 |
| 20260509024429 | 49 | 123 | 0.0 | 1.7 | 0.00 | 0.00 | 0.00 | 80 | 1014.6 |
| 20260509024328 | 49 | 123 | 0.0 | 1.7 | 0.00 | 0.00 | 0.00 | 80 | 1014.5 |
| 20260509024201 | 49 | 123 | 0.0 | 1.7 | 0.00 | 0.00 | 0.00 | 80 | 1014.6 |
| 20260509024129 | 49 | 123 | 0.9 | 1.7 | 0.00 | 0.00 | 0.00 | 80 | 1014.6 |
| 20260509024029 | 49 | 123 | 0.9 | 1.7 | 0.00 | 0.00 | 0.00 | 80 | 1014.6 |
| 20260509023929 | 49 | 123 | 0.9 | 1.7 | 0.00 | 0.00 | 0.00 | 80 | 1014.7 |
| 20260509023828 | 49 | 123 | 0.9 | 1.7 | 0.00 | 0.00 | 0.00 | 80 | 1014.7 |
| 20260509023700 | 49 | 123 | 0.9 | 1.7 | 0.00 | 0.00 | 0.00 | 80 | 1014.7 |
| 20260509023629 | 49 | 123 | 0.9 | 1.7 | 0.00 | 0.00 | 0.00 | 80 | 1014.8 |
| 20260509023529 | 49 | 123 | 0.9 | 1.7 | 0.00 | 0.00 | 0.00 | 80 | 1014.7 |
| 20260509023429 | 49 | 123 | 0.9 | 1.7 | 0.00 | 0.00 | 0.00 | 80 | 1014.7 |
| 20260509023329 | 49 | 123 | 0.0 | 1.7 | 0.00 | 0.00 | 0.00 | 80 | 1014.7 |
| 20260509023200 | 49 | 123 | 0.0 | 1.7 | 0.00 | 0.00 | 0.00 | 80 | 1014.6 |
| 20260509023130 | 49 | 123 | 0.0 | 1.7 | 0.00 | 0.00 | 0.00 | 80 | 1014.6 |
| 20260509023029 | 49 | 123 | 0.0 | 1.7 | 0.00 | 0.00 | 0.00 | 79 | 1014.6 |
| 20260509022929 | 49 | 123 | 0.0 | 0.9 | 0.00 | 0.00 | 0.00 | 80 | 1014.6 |
| 20260509022829 | 49 | 123 | 0.0 | 0.9 | 0.00 | 0.00 | 0.00 | 80 | 1014.7 |
| 20260509022701 | 49 | 123 | 0.0 | 0.9 | 0.00 | 0.00 | 0.00 | 79 | 1014.6 |
| 20260509022629 | 49 | 123 | 0.0 | 0.9 | 0.00 | 0.00 | 0.00 | 79 | 1014.7 |
| 20260509022527 | 49 | 123 | 0.0 | 1.7 | 0.00 | 0.00 | 0.00 | 79 | 1014.7 |
| 20260509022427 | 49 | 123 | 0.0 | 1.7 | 0.00 | 0.00 | 0.00 | 79 | 1014.7 |
| 20260509022325 | 49 | 123 | 0.0 | 1.7 | 0.00 | 0.00 | 0.00 | 79 | 1014.6 |
| 20260509022223 | 49 | 123 | 0.0 | 1.7 | 0.00 | 0.00 | 0.00 | 79 | 1014.6 |
| 20260509022201 | 49 | 123 | 0.0 | 1.7 | 0.00 | 0.00 | 0.00 | 80 | 1014.6 |
| 20260509022123 | 49 | 123 | 0.0 | 1.7 | 0.00 | 0.00 | 0.00 | 80 | 1014.6 |
| 20260509022022 | 49 | 123 | 0.0 | 2.6 | 0.00 | 0.00 | 0.00 | 80 | 1014.6 |
| 20260509021917 | 49 | 123 | 0.9 | 2.6 | 0.00 | 0.00 | 0.00 | 80 | 1014.6 |
| 20260509021815 | 49 | 123 | 0.9 | 2.6 | 0.00 | 0.00 | 0.00 | 80 | 1014.5 |
| 20260509021701 | 49 | 123 | 0.9 | 2.6 | 0.00 | 0.00 | 0.00 | 79 | 1014.4 |
| 20260509021615 | 49 | 123 | 0.9 | 2.6 | 0.00 | 0.00 | 0.00 | 79 | 1014.3 |
| 20260509021514 | 49 | 123 | 0.9 | 2.6 | 0.00 | 0.00 | 0.00 | 79 | 1014.3 |
| 20260509021413 | 49 | 123 | 0.9 | 2.6 | 0.00 | 0.00 | 0.00 | 79 | 1014.3 |
| 20260509021313 | 49 | 123 | 0.9 | 2.6 | 0.00 | 0.00 | 0.00 | 79 | 1014.3 |
| 20260509021201 | 49 | 123 | 0.9 | 2.6 | 0.00 | 0.00 | 0.00 | 79 | 1014.2 |
| 20260509021111 | 49 | 123 | 0.9 | 2.6 | 0.00 | 0.00 | 0.00 | 79 | 1014.2 |
| 20260509021009 | 49 | 136 | 0.0 | 2.6 | 0.00 | 0.00 | 0.00 | 79 | 1014.3 |
| 20260509020909 | 49 | 136 | 0.0 | 2.6 | 0.00 | 0.00 | 0.00 | 79 | 1014.3 |
| 20260509020807 | 49 | 136 | 0.0 | 2.6 | 0.00 | 0.00 | 0.00 | 79 | 1014.3 |
| 20260509020700 | 49 | 136 | 0.0 | 2.6 | 0.00 | 0.00 | 0.00 | 79 | 1014.4 |
| 20260509020605 | 49 | 137 | 0.0 | 0.9 | 0.00 | 0.00 | 0.00 | 79 | 1014.4 |
| 20260509020503 | 49 | 137 | 0.0 | 0.9 | 0.00 | 0.00 | 0.00 | 79 | 1014.4 |
| 20260509020403 | 49 | 137 | 0.0 | 0.9 | 0.00 | 0.00 | 0.00 | 79 | 1014.5 |
| 20260509020303 | 49 | 137 | 0.0 | 0.9 | 0.00 | 0.00 | 0.00 | 79 | 1014.5 |
| 20260509020201 | 49 | 137 | 0.0 | 0.9 | 0.00 | 0.00 | 0.00 | 79 | 1014.5 |
| 20260509020001 | 49 | 137 | 0.0 | 0.9 | 0.00 | 0.00 | 0.00 | 79 | 1014.6 |
| 20260509015925 | 49 | 137 | 0.0 | 1.7 | 0.00 | 0.00 | 0.00 | 79 | 1014.6 |
| 20260509015917 | 49 | 137 | 0.9 | 2.6 | 0.00 | 0.00 | 0.00 | 79 | 1014.6 |
| 20260509015913 | 49 | 137 | 0.9 | 3.5 | 0.00 | 0.00 | 0.00 | 79 | 1014.6 |
| 20260509015601 | 49 | 137 | 0.9 | 4.3 | 0.00 | 0.00 | 0.00 | 79 | 1014.6 |
| 20260509015501 | 49 | 137 | 0.9 | 4.3 | 0.00 | 0.00 | 0.00 | 79 | 1014.5 |
| 20260509015424 | 49 | 137 | 1.7 | 4.3 | 0.00 | 0.00 | 0.00 | 78 | 1014.5 |
| 20260509015415 | 49 | 137 | 1.7 | 4.3 | 0.00 | 0.00 | 0.00 | 78 | 1014.5 |
| 20260509015411 | 49 | 137 | 1.7 | 4.3 | 0.00 | 0.00 | 0.00 | 78 | 1014.5 |
| 20260509015101 | 49 | 137 | 2.6 | 4.3 | 0.00 | 0.00 | 0.00 | 78 | 1014.5 |
| 20260509015001 | 49 | 137 | 2.6 | 6.1 | 0.00 | 0.00 | 0.00 | 78 | 1014.4 |
| 20260509014901 | 49 | 136 | 2.6 | 6.1 | 0.00 | 0.00 | 0.00 | 78 | 1014.4 |
| 20260509014801 | 49 | 138 | 3.5 | 7.0 | 0.00 | 0.00 | 0.00 | 78 | 1014.4 |
| 20260509014700 | 49 | 132 | 3.5 | 7.0 | 0.00 | 0.00 | 0.00 | 78 | 1014.4 |
| 20260509014600 | 49 | 136 | 3.5 | 7.0 | 0.00 | 0.00 | 0.00 | 77 | 1014.4 |
| 20260509014500 | 49 | 127 | 3.5 | 7.0 | 0.00 | 0.00 | 0.00 | 77 | 1014.4 |
| 20260509014400 | 50 | 143 | 3.5 | 7.0 | 0.00 | 0.00 | 0.00 | 77 | 1014.3 |
| 20260509014301 | 50 | 144 | 3.5 | 7.0 | 0.00 | 0.00 | 0.00 | 77 | 1014.3 |
| 20260509014201 | 50 | 143 | 3.5 | 7.0 | 0.00 | 0.00 | 0.00 | 77 | 1014.3 |
| 20260509014101 | 50 | 140 | 3.5 | 7.0 | 0.00 | 0.00 | 0.00 | 77 | 1014.3 |
| 20260509014001 | 50 | 126 | 3.5 | 7.0 | 0.00 | 0.00 | 0.00 | 77 | 1014.2 |
| 20260509013901 | 50 | 148 | 3.5 | 7.0 | 0.00 | 0.00 | 0.00 | 76 | 1014.2 |
| 20260509013801 | 50 | 132 | 3.5 | 7.0 | 0.00 | 0.00 | 0.00 | 76 | 1014.2 |
| 20260509013700 | 50 | 138 | 3.5 | 7.0 | 0.00 | 0.00 | 0.00 | 76 | 1014.2 |
| 20260509013600 | 50 | 128 | 2.6 | 7.0 | 0.00 | 0.00 | 0.00 | 76 | 1014.3 |
| 20260509013500 | 50 | 137 | 2.6 | 6.1 | 0.00 | 0.00 | 0.00 | 76 | 1014.2 |
| 20260509013400 | 50 | 142 | 2.6 | 5.2 | 0.00 | 0.00 | 0.00 | 76 | 1014.2 |
| 20260509013301 | 50 | 142 | 2.6 | 5.2 | 0.00 | 0.00 | 0.00 | 76 | 1014.3 |
| 20260509013201 | 50 | 144 | 2.6 | 5.2 | 0.00 | 0.00 | 0.00 | 76 | 1014.3 |
| 20260509013101 | 50 | 144 | 2.6 | 5.2 | 0.00 | 0.00 | 0.00 | 76 | 1014.3 |
| 20260509012957 | 50 | 132 | 2.6 | 5.2 | 0.00 | 0.00 | 0.00 | 76 | 1014.3 |
| 20260509012857 | 50 | 119 | 2.6 | 5.2 | 0.00 | 0.00 | 0.00 | 76 | 1014.3 |
| 20260509012757 | 50 | 137 | 2.6 | 4.3 | 0.00 | 0.00 | 0.00 | 76 | 1014.3 |
| 20260509012702 | 50 | 136 | 2.6 | 5.2 | 0.00 | 0.00 | 0.00 | 76 | 1014.3 |
| 20260509012656 | 50 | 134 | 2.6 | 5.2 | 0.00 | 0.00 | 0.00 | 76 | 1014.3 |
| 20260509012556 | 50 | 142 | 2.6 | 5.2 | 0.00 | 0.00 | 0.00 | 76 | 1014.2 |
| 20260509012451 | 50 | 140 | 2.6 | 5.2 | 0.00 | 0.00 | 0.00 | 76 | 1014.2 |
| 20260509012351 | 50 | 147 | 2.6 | 5.2 | 0.00 | 0.00 | 0.00 | 75 | 1014.3 |
| 20260509012250 | 50 | 148 | 1.7 | 5.2 | 0.00 | 0.00 | 0.00 | 75 | 1014.3 |
| 20260509012200 | 50 | 139 | 1.7 | 5.2 | 0.00 | 0.00 | 0.00 | 75 | 1014.3 |
| 20260509012151 | 50 | 144 | 1.7 | 5.2 | 0.00 | 0.00 | 0.00 | 75 | 1014.2 |
| 20260509012051 | 50 | 143 | 1.7 | 5.2 | 0.00 | 0.00 | 0.00 | 75 | 1014.2 |
| 20260509011945 | 50 | 141 | 1.7 | 5.2 | 0.00 | 0.00 | 0.00 | 75 | 1014.2 |
| 20260509011845 | 50 | 138 | 1.7 | 5.2 | 0.00 | 0.00 | 0.00 | 75 | 1014.2 |
| 20260509011744 | 50 | 111 | 1.7 | 5.2 | 0.00 | 0.00 | 0.00 | 75 | 1014.2 |
| 20260509011701 | 50 | 141 | 1.7 | 4.3 | 0.00 | 0.00 | 0.00 | 75 | 1014.2 |
| 20260509011645 | 50 | 141 | 1.7 | 4.3 | 0.00 | 0.00 | 0.00 | 75 | 1014.2 |
| 20260509011544 | 50 | 140 | 1.7 | 4.3 | 0.00 | 0.00 | 0.00 | 75 | 1014.2 |
| 20260509011441 | 50 | 140 | 1.7 | 4.3 | 0.00 | 0.00 | 0.00 | 75 | 1014.2 |
| 20260509011339 | 50 | 136 | 1.7 | 4.3 | 0.00 | 0.00 | 0.00 | 75 | 1014.2 |
| 20260509011239 | 50 | 146 | 1.7 | 4.3 | 0.00 | 0.00 | 0.00 | 75 | 1014.2 |
| 20260509011201 | 50 | 143 | 1.7 | 3.5 | 0.00 | 0.00 | 0.00 | 75 | 1014.2 |
| 20260509011139 | 50 | 143 | 1.7 | 3.5 | 0.00 | 0.00 | 0.00 | 75 | 1014.2 |
| 20260509011039 | 50 | 144 | 1.7 | 3.5 | 0.00 | 0.00 | 0.00 | 75 | 1014.2 |
| 20260509010938 | 50 | 145 | 1.7 | 3.5 | 0.00 | 0.00 | 0.00 | 76 | 1014.2 |
| 20260509010836 | 50 | 145 | 1.7 | 3.5 | 0.00 | 0.00 | 0.00 | 76 | 1014.2 |
| 20260509010737 | 50 | 145 | 1.7 | 3.5 | 0.00 | 0.00 | 0.00 | 76 | 1014.2 |
| 20260509010701 | 50 | 145 | 1.7 | 3.5 | 0.00 | 0.00 | 0.00 | 76 | 1014.2 |
| 20260509010635 | 50 | 144 | 1.7 | 3.5 | 0.00 | 0.00 | 0.00 | 76 | 1014.2 |
| 20260509010533 | 50 | 144 | 1.7 | 3.5 | 0.00 | 0.00 | 0.00 | 76 | 1014.2 |
| 20260509010431 | 50 | 144 | 1.7 | 3.5 | 0.00 | 0.00 | 0.00 | 76 | 1014.2 |
| 20260509010330 | 50 | 144 | 1.7 | 3.5 | 0.00 | 0.00 | 0.00 | 76 | 1014.2 |
| 20260509010201 | 50 | 144 | 1.7 | 3.5 | 0.00 | 0.00 | 0.00 | 76 | 1014.2 |
| 20260509010129 | 50 | 143 | 1.7 | 4.3 | 0.00 | 0.00 | 0.00 | 76 | 1014.2 |
| 20260509010028 | 50 | 143 | 1.7 | 4.3 | 0.00 | 0.00 | 0.00 | 76 | 1014.2 |
| 20260509005928 | 50 | 142 | 1.7 | 4.3 | 0.00 | 0.00 | 0.00 | 76 | 1014.2 |
| 20260509005828 | 50 | 146 | 1.7 | 4.3 | 0.00 | 0.00 | 0.00 | 76 | 1014.2 |
| 20260509005729 | 50 | 143 | 2.6 | 4.3 | 0.00 | 0.00 | 0.00 | 76 | 1014.2 |
| 20260509005702 | 50 | 142 | 2.6 | 4.3 | 0.00 | 0.00 | 0.00 | 76 | 1014.1 |
| 20260509005629 | 50 | 142 | 2.6 | 4.3 | 0.00 | 0.00 | 0.00 | 76 | 1014.1 |
| 20260509005529 | 50 | 140 | 2.6 | 4.3 | 0.00 | 0.00 | 0.00 | 76 | 1014.1 |
| 20260509005429 | 50 | 136 | 2.6 | 6.1 | 0.00 | 0.00 | 0.00 | 76 | 1014.1 |
| 20260509005329 | 50 | 140 | 2.6 | 6.1 | 0.00 | 0.00 | 0.00 | 76 | 1014.1 |
| 20260509005201 | 50 | 138 | 2.6 | 6.1 | 0.00 | 0.00 | 0.00 | 76 | 1014.1 |
| 20260509005128 | 50 | 128 | 2.6 | 6.1 | 0.00 | 0.00 | 0.00 | 76 | 1014.1 |
| 20260509005028 | 50 | 139 | 2.6 | 6.1 | 0.00 | 0.00 | 0.00 | 76 | 1014.1 |
| 20260509004929 | 50 | 133 | 1.7 | 6.1 | 0.00 | 0.00 | 0.00 | 75 | 1014.1 |
| 20260509004829 | 50 | 119 | 1.7 | 6.1 | 0.00 | 0.00 | 0.00 | 75 | 1014.1 |
| 20260509004729 | 50 | 161 | 1.7 | 6.1 | 0.00 | 0.00 | 0.00 | 76 | 1014.1 |
| 20260509004701 | 50 | 154 | 1.7 | 6.1 | 0.00 | 0.00 | 0.00 | 75 | 1014.1 |
| 20260509004629 | 50 | 138 | 1.7 | 6.1 | 0.00 | 0.00 | 0.00 | 75 | 1014.1 |
| 20260509004529 | 50 | 132 | 1.7 | 6.1 | 0.00 | 0.00 | 0.00 | 76 | 1014.1 |
| 20260509004429 | 50 | 153 | 1.7 | 6.1 | 0.00 | 0.00 | 0.00 | 76 | 1014.1 |
| 20260509004328 | 50 | 134 | 1.7 | 6.1 | 0.00 | 0.00 | 0.00 | 76 | 1014.1 |
| 20260509004228 | 50 | 146 | 1.7 | 4.3 | 0.00 | 0.00 | 0.00 | 76 | 1014.1 |
| 20260509004202 | 50 | 145 | 1.7 | 4.3 | 0.00 | 0.00 | 0.00 | 76 | 1014.1 |
| 20260509004158 | 50 | 146 | 1.7 | 3.5 | 0.00 | 0.00 | 0.00 | 76 | 1013.9 |
| 20260509004145 | 50 | 145 | 1.7 | 4.3 | 0.00 | 0.00 | 0.00 | 76 | 1013.9 |
| 20260509004141 | 50 | 146 | 1.7 | 3.5 | 0.00 | 0.00 | 0.00 | 76 | 1013.9 |
| 20260509004137 | 50 | 145 | 1.7 | 3.5 | 0.00 | 0.00 | 0.00 | 76 | 1013.9 |
| 20260509003920 | 50 | 145 | 1.7 | 3.5 | 0.00 | 0.00 | 0.00 | 76 | 1013.9 |
| 20260509003912 | 50 | 146 | 1.7 | 3.5 | 0.00 | 0.00 | 0.00 | 76 | 1013.9 |
| 20260509003629 | 50 | 143 | 1.7 | 3.5 | 0.00 | 0.00 | 0.00 | 76 | 1014.1 |
| 20260509003528 | 50 | 142 | 1.7 | 3.5 | 0.00 | 0.00 | 0.00 | 76 | 1013.9 |
| 20260509003428 | 50 | 144 | 1.7 | 3.5 | 0.00 | 0.00 | 0.00 | 76 | 1013.9 |
| 20260509003328 | 50 | 143 | 1.7 | 3.5 | 0.00 | 0.00 | 0.00 | 76 | 1013.9 |
| 20260509003229 | 50 | 142 | 1.7 | 3.5 | 0.00 | 0.00 | 0.00 | 76 | 1013.9 |
| 20260509003201 | 50 | 144 | 1.7 | 3.5 | 0.00 | 0.00 | 0.00 | 76 | 1013.9 |
| 20260509003129 | 50 | 146 | 1.7 | 3.5 | 0.00 | 0.00 | 0.00 | 76 | 1014.1 |
| 20260509003029 | 50 | 141 | 1.7 | 3.5 | 0.00 | 0.00 | 0.00 | 76 | 1013.9 |
| 20260509002929 | 50 | 141 | 1.7 | 3.5 | 0.00 | 0.00 | 0.00 | 76 | 1013.9 |
| 20260509002829 | 50 | 138 | 1.7 | 3.5 | 0.00 | 0.00 | 0.00 | 76 | 1014.1 |
| 20260509002728 | 50 | 138 | 1.7 | 3.5 | 0.00 | 0.00 | 0.00 | 76 | 1014.1 |
| 20260509002701 | 50 | 136 | 1.7 | 3.5 | 0.00 | 0.00 | 0.00 | 76 | 1014.1 |
| 20260509002628 | 50 | 136 | 1.7 | 3.5 | 0.00 | 0.00 | 0.00 | 76 | 1014.1 |
| 20260509002528 | 50 | 132 | 1.7 | 3.5 | 0.00 | 0.00 | 0.00 | 76 | 1014.1 |
| 20260509002429 | 50 | 122 | 1.7 | 3.5 | 0.00 | 0.00 | 0.00 | 76 | 1014.1 |
| 20260509002329 | 50 | 119 | 1.7 | 3.5 | 0.00 | 0.00 | 0.00 | 76 | 1014.1 |
| 20260509002201 | 50 | 119 | 1.7 | 3.5 | 0.00 | 0.00 | 0.00 | 76 | 1014.2 |
| 20260509002129 | 50 | 117 | 1.7 | 4.3 | 0.00 | 0.00 | 0.00 | 76 | 1014.2 |
| 20260509002029 | 50 | 117 | 1.7 | 4.3 | 0.00 | 0.00 | 0.00 | 76 | 1014.2 |
| 20260509001929 | 50 | 136 | 1.7 | 4.3 | 0.00 | 0.00 | 0.00 | 76 | 1014.2 |
| 20260509001829 | 50 | 136 | 1.7 | 4.3 | 0.00 | 0.00 | 0.00 | 76 | 1014.2 |
| 20260509001701 | 50 | 136 | 0.9 | 4.3 | 0.00 | 0.00 | 0.00 | 76 | 1014.2 |
| 20260509001629 | 50 | 136 | 0.9 | 4.3 | 0.00 | 0.00 | 0.00 | 76 | 1014.3 |
| 20260509001529 | 50 | 143 | 0.9 | 4.3 | 0.00 | 0.00 | 0.00 | 76 | 1014.2 |
| 20260509001429 | 50 | 148 | 0.9 | 4.3 | 0.00 | 0.00 | 0.00 | 76 | 1014.3 |
| 20260509001329 | 50 | 148 | 0.9 | 4.3 | 0.00 | 0.00 | 0.00 | 76 | 1014.3 |
| 20260509001229 | 50 | 148 | 0.9 | 4.3 | 0.00 | 0.00 | 0.00 | 76 | 1014.3 |
| 20260509001200 | 50 | 149 | 0.9 | 4.3 | 0.00 | 0.00 | 0.00 | 76 | 1014.3 |
| 20260509001129 | 50 | 149 | 0.0 | 2.6 | 0.00 | 0.00 | 0.00 | 76 | 1014.3 |
| 20260509001029 | 50 | 149 | 0.0 | 1.7 | 0.00 | 0.00 | 0.00 | 76 | 1014.3 |
| 20260509000929 | 50 | 150 | 0.0 | 1.7 | 0.00 | 0.00 | 0.00 | 76 | 1014.3 |
| 20260509000828 | 50 | 149 | 0.9 | 1.7 | 0.00 | 0.00 | 0.00 | 76 | 1014.3 |
| 20260509000728 | 50 | 149 | 0.9 | 1.7 | 0.00 | 0.00 | 0.00 | 76 | 1014.3 |
| 20260509000701 | 50 | 150 | 0.9 | 1.7 | 0.00 | 0.00 | 0.00 | 75 | 1014.3 |
| 20260509000629 | 50 | 149 | 0.0 | 1.7 | 0.00 | 0.00 | 0.00 | 75 | 1014.4 |
| 20260509000529 | 50 | 149 | 0.0 | 1.7 | 0.00 | 0.00 | 0.00 | 75 | 1014.4 |
| 20260509000430 | 50 | 149 | 0.0 | 1.7 | 0.00 | 0.00 | 0.00 | 75 | 1014.4 |
| 20260509000328 | 50 | 150 | 0.0 | 1.7 | 0.00 | 0.00 | 0.00 | 75 | 1014.4 |
| 20260509000201 | 50 | 150 | 0.0 | 1.7 | 0.00 | 0.00 | 0.00 | 76 | 1014.4 |
| 20260509000129 | 50 | 150 | 0.0 | 1.7 | 0.00 | 0.00 | 0.00 | 75 | 1014.4 |
| 20260509000029 | 51 | 150 | 0.0 | 1.7 | 0.00 | 0.00 | 0.00 | 75 | 1014.5 |
| 20260508235929 | 51 | 150 | 0.0 | 1.7 | 0.00 | 0.00 | 0.00 | 75 | 1014.5 |
| 20260508235829 | 51 | 150 | 0.0 | 0.9 | 0.00 | 0.00 | 0.00 | 75 | 1014.5 |
| 20260508235733 | 51 | 150 | 0.0 | 0.9 | 0.00 | 0.00 | 0.00 | 75 | 1014.5 |
| 20260508235700 | 51 | 150 | 0.0 | 0.9 | 0.00 | 0.00 | 0.00 | 75 | 1014.5 |
| 20260508235629 | 51 | 150 | 0.0 | 0.9 | 0.00 | 0.00 | 0.00 | 75 | 1014.5 |
| 20260508235529 | 51 | 149 | 0.0 | 0.9 | 0.00 | 0.00 | 0.00 | 75 | 1014.5 |
| 20260508235429 | 51 | 149 | 0.0 | 0.9 | 0.00 | 0.00 | 0.00 | 75 | 1014.5 |
| 20260508235419 | 51 | 149 | 0.0 | 0.9 | 0.00 | 0.00 | 0.00 | 75 | 1014.6 |
| 20260508235328 | 51 | 149 | 0.0 | 0.9 | 0.00 | 0.00 | 0.00 | 75 | 1014.6 |
| 20260508235231 | 51 | 149 | 0.0 | 0.9 | 0.00 | 0.00 | 0.00 | 75 | 1014.6 |
| 20260508235129 | 51 | 149 | 0.0 | 0.9 | 0.00 | 0.00 | 0.00 | 75 | 1014.5 |
| 20260508235029 | 51 | 149 | 0.0 | 0.9 | 0.00 | 0.00 | 0.00 | 75 | 1014.6 |
| 20260508234928 | 51 | 149 | 0.0 | 0.9 | 0.00 | 0.00 | 0.00 | 75 | 1014.6 |
| 20260508234828 | 51 | 149 | 0.0 | 0.9 | 0.00 | 0.00 | 0.00 | 75 | 1014.6 |
| 20260508234701 | 51 | 149 | 0.0 | 0.9 | 0.00 | 0.00 | 0.00 | 75 | 1014.6 |
| 20260508234628 | 51 | 149 | 0.0 | 1.7 | 0.00 | 0.00 | 0.00 | 74 | 1014.6 |
| 20260508234529 | 51 | 149 | 0.0 | 4.3 | 0.00 | 0.00 | 0.00 | 74 | 1014.6 |
| 20260508234429 | 51 | 149 | 0.9 | 4.3 | 0.00 | 0.00 | 0.00 | 74 | 1014.6 |
| 20260508234329 | 51 | 149 | 0.9 | 4.3 | 0.00 | 0.00 | 0.00 | 74 | 1014.6 |
| 20260508234201 | 51 | 149 | 0.9 | 4.3 | 0.00 | 0.00 | 0.00 | 74 | 1014.6 |
| 20260508234128 | 51 | 149 | 0.9 | 4.3 | 0.00 | 0.00 | 0.00 | 74 | 1014.6 |
| 20260508234028 | 51 | 149 | 0.9 | 4.3 | 0.00 | 0.00 | 0.00 | 74 | 1014.6 |
| 20260508233928 | 51 | 149 | 0.9 | 4.3 | 0.00 | 0.00 | 0.00 | 74 | 1014.6 |
| 20260508233828 | 51 | 149 | 1.7 | 4.3 | 0.00 | 0.00 | 0.00 | 74 | 1014.7 |
| 20260508233700 | 51 | 149 | 1.7 | 4.3 | 0.00 | 0.00 | 0.00 | 74 | 1014.6 |
| 20260508233629 | 51 | 149 | 1.7 | 4.3 | 0.00 | 0.00 | 0.00 | 74 | 1014.6 |
| 20260508233529 | 51 | 152 | 1.7 | 4.3 | 0.00 | 0.00 | 0.00 | 74 | 1014.6 |
| 20260508233429 | 51 | 152 | 1.7 | 4.3 | 0.00 | 0.00 | 0.00 | 74 | 1014.6 |
| 20260508233330 | 51 | 152 | 2.6 | 4.3 | 0.00 | 0.00 | 0.00 | 74 | 1014.7 |
| 20260508233200 | 51 | 152 | 2.6 | 4.3 | 0.00 | 0.00 | 0.00 | 74 | 1014.7 |
| 20260508233129 | 51 | 152 | 2.6 | 4.3 | 0.00 | 0.00 | 0.00 | 74 | 1014.6 |
| 20260508233029 | 51 | 153 | 2.6 | 4.3 | 0.00 | 0.00 | 0.00 | 74 | 1014.6 |
| 20260508232929 | 51 | 153 | 2.6 | 4.3 | 0.00 | 0.00 | 0.00 | 74 | 1014.6 |
| 20260508232827 | 51 | 154 | 2.6 | 4.3 | 0.00 | 0.00 | 0.00 | 74 | 1014.6 |
| 20260508232727 | 51 | 145 | 2.6 | 4.3 | 0.00 | 0.00 | 0.00 | 74 | 1014.6 |
| 20260508232701 | 51 | 144 | 2.6 | 4.3 | 0.00 | 0.00 | 0.00 | 74 | 1014.6 |
| 20260508232626 | 51 | 145 | 2.6 | 4.3 | 0.00 | 0.00 | 0.00 | 74 | 1014.6 |
| 20260508232526 | 51 | 136 | 2.6 | 4.3 | 0.00 | 0.00 | 0.00 | 74 | 1014.6 |
| 20260508232426 | 51 | 146 | 2.6 | 4.3 | 0.00 | 0.00 | 0.00 | 74 | 1014.6 |
| 20260508232326 | 51 | 147 | 2.6 | 4.3 | 0.00 | 0.00 | 0.00 | 74 | 1014.5 |
| 20260508232223 | 51 | 150 | 2.6 | 4.3 | 0.00 | 0.00 | 0.00 | 74 | 1014.5 |
| 20260508232201 | 51 | 147 | 2.6 | 4.3 | 0.00 | 0.00 | 0.00 | 74 | 1014.5 |
| 20260508232121 | 51 | 161 | 2.6 | 4.3 | 0.00 | 0.00 | 0.00 | 74 | 1014.5 |
| 20260508232020 | 51 | 144 | 2.6 | 4.3 | 0.00 | 0.00 | 0.00 | 74 | 1014.5 |
| 20260508231920 | 51 | 142 | 2.6 | 4.3 | 0.00 | 0.00 | 0.00 | 74 | 1014.5 |
| 20260508231820 | 51 | 144 | 2.6 | 4.3 | 0.00 | 0.00 | 0.00 | 74 | 1014.5 |
| 20260508231720 | 51 | 146 | 2.6 | 4.3 | 0.00 | 0.00 | 0.00 | 74 | 1014.5 |
| 20260508231705 | 51 | 150 | 2.6 | 4.3 | 0.00 | 0.00 | 0.00 | 74 | 1014.5 |
| 20260508231621 | 51 | 140 | 2.6 | 4.3 | 0.00 | 0.00 | 0.00 | 74 | 1014.5 |
| 20260508231521 | 51 | 138 | 2.6 | 4.3 | 0.00 | 0.00 | 0.00 | 74 | 1014.5 |
| 20260508231421 | 51 | 138 | 2.6 | 4.3 | 0.00 | 0.00 | 0.00 | 74 | 1014.5 |
| 20260508231321 | 51 | 141 | 2.6 | 4.3 | 0.00 | 0.00 | 0.00 | 74 | 1014.5 |
| 20260508231221 | 51 | 148 | 2.6 | 4.3 | 0.00 | 0.00 | 0.00 | 74 | 1014.5 |
| 20260508231201 | 51 | 142 | 2.6 | 4.3 | 0.00 | 0.00 | 0.00 | 74 | 1014.5 |
| 20260508231120 | 51 | 141 | 2.6 | 4.3 | 0.00 | 0.00 | 0.00 | 74 | 1014.6 |
| 20260508231020 | 51 | 130 | 2.6 | 4.3 | 0.00 | 0.00 | 0.00 | 74 | 1014.5 |
| 20260508230920 | 51 | 140 | 2.6 | 4.3 | 0.00 | 0.00 | 0.00 | 74 | 1014.5 |
| 20260508230820 | 51 | 138 | 2.6 | 4.3 | 0.00 | 0.00 | 0.00 | 74 | 1014.6 |
| 20260508230721 | 51 | 137 | 2.6 | 4.3 | 0.00 | 0.00 | 0.00 | 74 | 1014.6 |
| 20260508230701 | 51 | 136 | 2.6 | 4.3 | 0.00 | 0.00 | 0.00 | 74 | 1014.6 |
| 20260508230621 | 51 | 150 | 1.7 | 4.3 | 0.00 | 0.00 | 0.00 | 74 | 1014.6 |
| 20260508230521 | 51 | 146 | 1.7 | 4.3 | 0.00 | 0.00 | 0.00 | 74 | 1014.6 |
| 20260508230424 | 51 | 148 | 1.7 | 4.3 | 0.00 | 0.00 | 0.00 | 74 | 1014.7 |
| 20260508230420 | 51 | 143 | 1.7 | 4.3 | 0.00 | 0.00 | 0.00 | 74 | 1014.6 |
| 20260508230416 | 51 | 150 | 1.7 | 4.3 | 0.00 | 0.00 | 0.00 | 74 | 1014.7 |
| 20260508230412 | 51 | 151 | 1.7 | 4.3 | 0.00 | 0.00 | 0.00 | 74 | 1014.7 |
| 20260508230117 | 51 | 150 | 1.7 | 4.3 | 0.00 | 0.00 | 0.00 | 73 | 1014.6 |
| 20260508230017 | 51 | 161 | 1.7 | 4.3 | 0.00 | 0.00 | 0.00 | 74 | 1014.6 |
| 20260508225917 | 51 | 152 | 1.7 | 4.3 | 0.00 | 0.00 | 0.00 | 74 | 1014.7 |
| 20260508225817 | 51 | 153 | 1.7 | 4.3 | 0.00 | 0.00 | 0.00 | 74 | 1014.7 |
| 20260508225701 | 51 | 153 | 1.7 | 4.3 | 0.00 | 0.00 | 0.00 | 74 | 1014.7 |
| 20260508225617 | 51 | 153 | 1.7 | 4.3 | 0.00 | 0.00 | 0.00 | 74 | 1014.7 |
| 20260508225517 | 51 | 153 | 1.7 | 4.3 | 0.00 | 0.00 | 0.00 | 74 | 1014.6 |
| 20260508225417 | 51 | 154 | 1.7 | 4.3 | 0.00 | 0.00 | 0.00 | 74 | 1014.7 |
| 20260508225316 | 51 | 153 | 1.7 | 4.3 | 0.00 | 0.00 | 0.00 | 74 | 1014.7 |
| 20260508225201 | 51 | 153 | 1.7 | 4.3 | 0.00 | 0.00 | 0.00 | 74 | 1014.7 |
| 20260508225116 | 51 | 153 | 1.7 | 4.3 | 0.00 | 0.00 | 0.00 | 74 | 1014.7 |
| 20260508225016 | 51 | 153 | 1.7 | 4.3 | 0.00 | 0.00 | 0.00 | 74 | 1014.7 |
| 20260508224917 | 51 | 153 | 1.7 | 4.3 | 0.00 | 0.00 | 0.00 | 74 | 1014.7 |
| 20260508224817 | 51 | 153 | 1.7 | 4.3 | 0.00 | 0.00 | 0.00 | 74 | 1014.7 |
| 20260508224700 | 51 | 154 | 1.7 | 4.3 | 0.00 | 0.00 | 0.00 | 74 | 1014.6 |
| 20260508224617 | 51 | 154 | 1.7 | 4.3 | 0.00 | 0.00 | 0.00 | 74 | 1014.6 |
| 20260508224517 | 51 | 157 | 0.9 | 2.6 | 0.00 | 0.00 | 0.00 | 74 | 1014.7 |
| 20260508224416 | 51 | 157 | 0.9 | 2.6 | 0.00 | 0.00 | 0.00 | 74 | 1014.7 |
| 20260508224316 | 51 | 157 | 0.9 | 2.6 | 0.00 | 0.00 | 0.00 | 74 | 1014.6 |
| 20260508224201 | 51 | 157 | 0.9 | 2.6 | 0.00 | 0.00 | 0.00 | 74 | 1014.7 |
| 20260508224116 | 51 | 157 | 0.9 | 2.6 | 0.00 | 0.00 | 0.00 | 74 | 1014.7 |
| 20260508224016 | 51 | 157 | 0.9 | 2.6 | 0.00 | 0.00 | 0.00 | 74 | 1014.7 |
| 20260508223912 | 51 | 157 | 0.9 | 2.6 | 0.00 | 0.00 | 0.00 | 74 | 1014.7 |
| 20260508223813 | 51 | 157 | 0.9 | 2.6 | 0.00 | 0.00 | 0.00 | 73 | 1014.8 |
| 20260508223701 | 51 | 157 | 0.9 | 2.6 | 0.00 | 0.00 | 0.00 | 73 | 1014.7 |
| 20260508223612 | 51 | 157 | 0.9 | 2.6 | 0.00 | 0.00 | 0.00 | 74 | 1014.8 |
| 20260508223512 | 51 | 157 | 0.9 | 2.6 | 0.00 | 0.00 | 0.00 | 73 | 1014.8 |
| 20260508223412 | 51 | 157 | 0.9 | 2.6 | 0.00 | 0.00 | 0.00 | 73 | 1014.7 |
| 20260508223312 | 51 | 157 | 0.9 | 2.6 | 0.00 | 0.00 | 0.00 | 73 | 1014.7 |
| 20260508223201 | 51 | 157 | 0.9 | 2.6 | 0.00 | 0.00 | 0.00 | 73 | 1014.7 |
| 20260508223113 | 51 | 157 | 0.9 | 3.5 | 0.00 | 0.00 | 0.00 | 73 | 1014.7 |
| 20260508223013 | 51 | 155 | 0.9 | 3.5 | 0.00 | 0.00 | 0.00 | 73 | 1014.7 |
| 20260508222912 | 51 | 144 | 1.7 | 4.3 | 0.00 | 0.00 | 0.00 | 73 | 1014.7 |
| 20260508222812 | 51 | 138 | 1.7 | 4.3 | 0.00 | 0.00 | 0.00 | 73 | 1014.7 |
| 20260508222700 | 51 | 138 | 1.7 | 4.3 | 0.00 | 0.00 | 0.00 | 73 | 1014.7 |
| 20260508222613 | 51 | 135 | 1.7 | 4.3 | 0.00 | 0.00 | 0.00 | 73 | 1014.7 |
| 20260508222513 | 51 | 135 | 1.7 | 4.3 | 0.00 | 0.00 | 0.00 | 73 | 1014.7 |
| 20260508222413 | 51 | 121 | 1.7 | 4.3 | 0.00 | 0.00 | 0.00 | 73 | 1014.6 |
| 20260508222313 | 51 | 121 | 1.7 | 4.3 | 0.00 | 0.00 | 0.00 | 73 | 1014.6 |
| 20260508222200 | 51 | 121 | 1.7 | 4.3 | 0.00 | 0.00 | 0.00 | 73 | 1014.6 |
| 20260508222112 | 51 | 119 | 1.7 | 4.3 | 0.00 | 0.00 | 0.00 | 73 | 1014.5 |
| 20260508222008 | 51 | 149 | 1.7 | 4.3 | 0.00 | 0.00 | 0.00 | 73 | 1014.5 |
| 20260508221927 | 51 | 142 | 1.7 | 3.5 | 0.00 | 0.00 | 0.00 | 73 | 1014.5 |
| 20260508221919 | 51 | 145 | 1.7 | 3.5 | 0.00 | 0.00 | 0.00 | 73 | 1014.5 |
| 20260508221915 | 51 | 144 | 1.7 | 3.5 | 0.00 | 0.00 | 0.00 | 73 | 1014.5 |
| 20260508221911 | 52 | 142 | 1.7 | 3.5 | 0.00 | 0.00 | 0.00 | 73 | 1014.5 |
| 20260508221609 | 52 | 142 | 1.7 | 3.5 | 0.00 | 0.00 | 0.00 | 73 | 1014.5 |
| 20260508221509 | 52 | 142 | 1.7 | 3.5 | 0.00 | 0.00 | 0.00 | 73 | 1014.5 |
| 20260508221409 | 52 | 142 | 1.7 | 3.5 | 0.00 | 0.00 | 0.00 | 73 | 1014.5 |
| 20260508221308 | 52 | 138 | 1.7 | 3.5 | 0.00 | 0.00 | 0.00 | 72 | 1014.5 |
| 20260508221200 | 52 | 132 | 1.7 | 3.5 | 0.00 | 0.00 | 0.00 | 72 | 1014.5 |
| 20260508221108 | 52 | 144 | 1.7 | 3.5 | 0.00 | 0.00 | 0.00 | 72 | 1014.5 |
| 20260508221008 | 52 | 144 | 1.7 | 3.5 | 0.00 | 0.00 | 0.00 | 72 | 1014.5 |
| 20260508220909 | 52 | 144 | 0.9 | 3.5 | 0.00 | 0.00 | 0.00 | 72 | 1014.5 |
| 20260508220809 | 52 | 142 | 0.9 | 3.5 | 0.00 | 0.00 | 0.00 | 72 | 1014.5 |
| 20260508220709 | 52 | 140 | 0.9 | 3.5 | 0.00 | 0.00 | 0.00 | 72 | 1014.5 |
| 20260508220700 | 52 | 139 | 0.9 | 3.5 | 0.00 | 0.00 | 0.00 | 72 | 1014.5 |
| 20260508220609 | 52 | 132 | 0.9 | 2.6 | 0.00 | 0.00 | 0.00 | 72 | 1014.5 |
| 20260508220508 | 52 | 131 | 0.9 | 2.6 | 0.00 | 0.00 | 0.00 | 72 | 1014.5 |
| 20260508220408 | 52 | 129 | 0.9 | 1.7 | 0.00 | 0.00 | 0.00 | 72 | 1014.5 |
| 20260508220308 | 52 | 129 | 0.9 | 2.6 | 0.00 | 0.00 | 0.00 | 72 | 1014.5 |
| 20260508220201 | 52 | 129 | 0.9 | 2.6 | 0.00 | 0.00 | 0.00 | 72 | 1014.5 |
| 20260508220107 | 52 | 129 | 0.9 | 2.6 | 0.00 | 0.00 | 0.00 | 71 | 1014.5 |
| 20260508220006 | 52 | 129 | 0.9 | 2.6 | 0.00 | 0.00 | 0.00 | 71 | 1014.5 |
| 20260508215906 | 52 | 129 | 0.9 | 2.6 | 0.00 | 0.00 | 0.00 | 71 | 1014.5 |
| 20260508215806 | 52 | 129 | 0.9 | 3.5 | 0.00 | 0.00 | 0.00 | 71 | 1014.5 |
| 20260508215701 | 52 | 128 | 0.9 | 3.5 | 0.00 | 0.00 | 0.00 | 71 | 1014.5 |
| 20260508215605 | 52 | 128 | 0.9 | 3.5 | 0.00 | 0.00 | 0.00 | 71 | 1014.4 |
| 20260508215505 | 52 | 128 | 0.9 | 3.5 | 0.00 | 0.00 | 0.00 | 71 | 1014.4 |
| 20260508215405 | 52 | 128 | 1.7 | 3.5 | 0.00 | 0.00 | 0.00 | 71 | 1014.4 |
| 20260508215306 | 52 | 134 | 0.9 | 3.5 | 0.00 | 0.00 | 0.00 | 71 | 1014.4 |
| 20260508215205 | 52 | 135 | 0.9 | 3.5 | 0.00 | 0.00 | 0.00 | 71 | 1014.4 |
| 20260508215201 | 52 | 134 | 0.9 | 3.5 | 0.00 | 0.00 | 0.00 | 71 | 1014.4 |
| 20260508215106 | 53 | 134 | 0.9 | 3.5 | 0.00 | 0.00 | 0.00 | 71 | 1014.4 |
| 20260508215006 | 53 | 134 | 0.9 | 3.5 | 0.00 | 0.00 | 0.00 | 70 | 1014.5 |
| 20260508214906 | 53 | 135 | 0.9 | 3.5 | 0.00 | 0.00 | 0.00 | 70 | 1014.5 |
| 20260508214805 | 53 | 133 | 0.9 | 3.5 | 0.00 | 0.00 | 0.00 | 70 | 1014.4 |
| 20260508214700 | 53 | 130 | 0.9 | 3.5 | 0.00 | 0.00 | 0.00 | 70 | 1014.5 |
| 20260508214605 | 53 | 130 | 0.9 | 3.5 | 0.00 | 0.00 | 0.00 | 70 | 1014.5 |
| 20260508214505 | 53 | 128 | 0.9 | 2.6 | 0.00 | 0.00 | 0.00 | 70 | 1014.5 |
| 20260508214405 | 53 | 127 | 0.9 | 2.6 | 0.00 | 0.00 | 0.00 | 70 | 1014.4 |
| 20260508214305 | 53 | 127 | 0.9 | 2.6 | 0.00 | 0.00 | 0.00 | 69 | 1014.4 |
| 20260508214201 | 53 | 127 | 0.9 | 2.6 | 0.00 | 0.00 | 0.00 | 69 | 1014.4 |
| 20260508214102 | 53 | 127 | 0.9 | 2.6 | 0.00 | 0.00 | 0.00 | 69 | 1014.4 |
| 20260508214002 | 53 | 127 | 0.9 | 2.6 | 0.00 | 0.00 | 0.00 | 69 | 1014.4 |
| 20260508213902 | 53 | 127 | 0.9 | 2.6 | 0.00 | 0.00 | 0.00 | 69 | 1014.4 |
| 20260508213802 | 53 | 126 | 0.9 | 2.6 | 0.00 | 0.00 | 0.00 | 68 | 1014.4 |
| 20260508213701 | 54 | 125 | 0.9 | 2.6 | 0.00 | 0.00 | 0.00 | 68 | 1014.4 |
| 20260508213601 | 54 | 124 | 0.9 | 3.5 | 0.00 | 0.00 | 0.00 | 68 | 1014.4 |
| 20260508213501 | 54 | 124 | 0.9 | 3.5 | 0.00 | 0.00 | 0.00 | 68 | 1014.4 |
| 20260508213401 | 54 | 124 | 0.9 | 3.5 | 0.00 | 0.00 | 0.00 | 68 | 1014.4 |
| 20260508213301 | 54 | 124 | 0.9 | 3.5 | 0.00 | 0.00 | 0.00 | 68 | 1014.4 |
| 20260508213201 | 54 | 143 | 0.9 | 3.5 | 0.00 | 0.00 | 0.00 | 67 | 1014.4 |
| 20260508213101 | 54 | 148 | 0.9 | 3.5 | 0.00 | 0.00 | 0.00 | 67 | 1014.4 |
| 20260508213001 | 54 | 148 | 0.9 | 3.5 | 0.00 | 0.00 | 0.00 | 67 | 1014.4 |
| 20260508212901 | 54 | 148 | 0.9 | 3.5 | 0.00 | 0.00 | 0.00 | 67 | 1014.4 |
| 20260508212801 | 55 | 148 | 0.9 | 3.5 | 0.00 | 0.00 | 0.00 | 67 | 1014.4 |
| 20260508212701 | 55 | 123 | 0.9 | 3.5 | 0.00 | 0.00 | 0.00 | 67 | 1014.4 |
| 20260508212601 | 55 | 104 | 0.9 | 6.1 | 0.00 | 0.00 | 0.00 | 66 | 1014.4 |
| 20260508212501 | 55 | 104 | 0.9 | 6.1 | 0.00 | 0.00 | 0.00 | 67 | 1014.4 |
| 20260508212400 | 55 | 103 | 0.9 | 6.1 | 0.00 | 0.00 | 0.00 | 67 | 1014.4 |
| 20260508212300 | 55 | 103 | 1.7 | 6.1 | 0.00 | 0.00 | 0.00 | 67 | 1014.4 |
| 20260508212201 | 55 | 103 | 1.7 | 6.1 | 0.00 | 0.00 | 0.00 | 67 | 1014.3 |
| 20260508212101 | 55 | 93 | 1.7 | 6.1 | 0.00 | 0.00 | 0.00 | 67 | 1014.3 |
| 20260508212001 | 55 | 90 | 1.7 | 6.1 | 0.00 | 0.00 | 0.00 | 67 | 1014.3 |
| 20260508211901 | 55 | 92 | 1.7 | 6.1 | 0.00 | 0.00 | 0.00 | 66 | 1014.3 |
| 20260508211801 | 55 | 98 | 1.7 | 6.1 | 0.00 | 0.00 | 0.00 | 66 | 1014.3 |
| 20260508211701 | 55 | 108 | 1.7 | 6.1 | 0.00 | 0.00 | 0.00 | 66 | 1014.4 |
| 20260508211605 | 55 | 96 | 0.9 | 6.1 | 0.00 | 0.00 | 0.00 | 66 | 1014.2 |
| 20260508211500 | 55 | 72 | 0.9 | 6.1 | 0.00 | 0.00 | 0.00 | 66 | 1014.3 |
| 20260508211400 | 55 | 89 | 1.7 | 6.1 | 0.00 | 0.00 | 0.00 | 66 | 1014.2 |
| 20260508211300 | 55 | 105 | 1.7 | 7.8 | 0.00 | 0.00 | 0.00 | 66 | 1014.3 |
| 20260508211200 | 55 | 94 | 1.7 | 7.8 | 0.00 | 0.00 | 0.00 | 66 | 1014.3 |
| 20260508211104 | 55 | 133 | 1.7 | 7.8 | 0.00 | 0.00 | 0.00 | 66 | 1014.3 |
| 20260508211000 | 55 | 89 | 1.7 | 7.8 | 0.00 | 0.00 | 0.00 | 66 | 1014.3 |
| 20260508210900 | 55 | 94 | 1.7 | 7.8 | 0.00 | 0.00 | 0.00 | 66 | 1014.4 |
| 20260508210801 | 55 | 74 | 1.7 | 7.8 | 0.00 | 0.00 | 0.00 | 66 | 1014.3 |
| 20260508210701 | 55 | 123 | 2.6 | 7.8 | 0.00 | 0.00 | 0.00 | 66 | 1014.3 |
| 20260508210603 | 55 | 105 | 2.6 | 7.8 | 0.00 | 0.00 | 0.00 | 66 | 1014.3 |
| 20260508210501 | 55 | 144 | 2.6 | 7.8 | 0.00 | 0.00 | 0.00 | 66 | 1014.3 |
| 20260508210401 | 55 | 104 | 2.6 | 7.8 | 0.00 | 0.00 | 0.00 | 66 | 1014.3 |
| 20260508210302 | 55 | 102 | 2.6 | 6.1 | 0.00 | 0.00 | 0.00 | 66 | 1014.3 |
| 20260508210201 | 55 | 83 | 2.6 | 6.1 | 0.00 | 0.00 | 0.00 | 66 | 1014.3 |
| 20260508210001 | 56 | 70 | 2.6 | 7.0 | 0.00 | 0.00 | 0.00 | 66 | 1014.3 |
| 20260508205901 | 56 | 90 | 2.6 | 7.0 | 0.00 | 0.00 | 0.00 | 66 | 1014.3 |
| 20260508205801 | 56 | 86 | 2.6 | 7.0 | 0.00 | 0.00 | 0.00 | 66 | 1014.3 |
| 20260508205701 | 56 | 117 | 2.6 | 7.0 | 0.00 | 0.00 | 0.00 | 66 | 1014.3 |
| 20260508205601 | 56 | 97 | 2.6 | 7.0 | 0.00 | 0.00 | 0.00 | 65 | 1014.3 |
| 20260508205501 | 56 | 89 | 2.6 | 7.0 | 0.00 | 0.00 | 0.00 | 65 | 1014.3 |
| 20260508205420 | 56 | 93 | 2.6 | 7.8 | 0.00 | 0.00 | 0.00 | 65 | 1014.3 |
| 20260508205416 | 56 | 128 | 2.6 | 7.8 | 0.00 | 0.00 | 0.00 | 65 | 1014.3 |
| 20260508205411 | 56 | 119 | 2.6 | 7.8 | 0.00 | 0.00 | 0.00 | 65 | 1014.3 |
| 20260508205149 | 56 | 65 | 2.6 | 7.8 | 0.00 | 0.00 | 0.00 | 65 | 1014.2 |
| 20260508205142 | 56 | 65 | 2.6 | 7.8 | 0.00 | 0.00 | 0.00 | 65 | 1014.3 |
| 20260508205134 | 56 | 116 | 2.6 | 7.8 | 0.00 | 0.00 | 0.00 | 65 | 1014.3 |
| 20260508204919 | 56 | 71 | 2.6 | 7.8 | 0.00 | 0.00 | 0.00 | 65 | 1014.2 |
| 20260508204915 | 56 | 118 | 2.6 | 7.8 | 0.00 | 0.00 | 0.00 | 64 | 1014.3 |
| 20260508204910 | 56 | 65 | 2.6 | 7.8 | 0.00 | 0.00 | 0.00 | 65 | 1014.2 |
| 20260508204600 | 56 | 92 | 2.6 | 7.8 | 0.00 | 0.00 | 0.00 | 64 | 1014.2 |
| 20260508204501 | 56 | 129 | 2.6 | 7.8 | 0.00 | 0.00 | 0.00 | 65 | 1014.2 |
| 20260508204401 | 56 | 111 | 2.6 | 7.8 | 0.00 | 0.00 | 0.00 | 65 | 1014.2 |
| 20260508204301 | 56 | 84 | 2.6 | 7.8 | 0.00 | 0.00 | 0.00 | 64 | 1014.2 |
| 20260508204200 | 56 | 61 | 2.6 | 7.8 | 0.00 | 0.00 | 0.00 | 64 | 1014.2 |
| 20260508204100 | 56 | 102 | 2.6 | 7.8 | 0.00 | 0.00 | 0.00 | 64 | 1014.2 |
| 20260508204000 | 56 | 94 | 2.6 | 7.8 | 0.00 | 0.00 | 0.00 | 64 | 1014.2 |
| 20260508203901 | 56 | 82 | 2.6 | 7.8 | 0.00 | 0.00 | 0.00 | 64 | 1014.2 |
| 20260508203801 | 56 | 96 | 2.6 | 7.8 | 0.00 | 0.00 | 0.00 | 65 | 1014.1 |
| 20260508203702 | 56 | 63 | 2.6 | 7.8 | 0.00 | 0.00 | 0.00 | 64 | 1014.2 |
| 20260508203602 | 56 | 96 | 2.6 | 7.8 | 0.00 | 0.00 | 0.00 | 64 | 1014.2 |
| 20260508203502 | 56 | 73 | 2.6 | 7.8 | 0.00 | 0.00 | 0.00 | 64 | 1014.2 |
| 20260508203401 | 56 | 70 | 3.5 | 7.8 | 0.00 | 0.00 | 0.00 | 64 | 1014.2 |
| 20260508203301 | 56 | 79 | 3.5 | 8.7 | 0.00 | 0.00 | 0.00 | 64 | 1014.2 |
| 20260508203201 | 56 | 117 | 3.5 | 8.7 | 0.00 | 0.00 | 0.00 | 64 | 1014.2 |
| 20260508203101 | 56 | 67 | 3.5 | 8.7 | 0.00 | 0.00 | 0.00 | 64 | 1014.2 |
| 20260508203001 | 56 | 127 | 3.5 | 8.7 | 0.00 | 0.00 | 0.00 | 64 | 1014.2 |
| 20260508202901 | 56 | 76 | 3.5 | 8.7 | 0.00 | 0.00 | 0.00 | 64 | 1014.2 |
| 20260508202801 | 56 | 69 | 3.5 | 8.7 | 0.00 | 0.00 | 0.00 | 64 | 1014.2 |
| 20260508202701 | 56 | 80 | 3.5 | 8.7 | 0.00 | 0.00 | 0.00 | 64 | 1014.2 |
| 20260508202600 | 57 | 65 | 2.6 | 8.7 | 0.00 | 0.00 | 0.00 | 64 | 1014.1 |
| 20260508202501 | 57 | 68 | 2.6 | 8.7 | 0.00 | 0.00 | 0.00 | 64 | 1014.2 |
| 20260508202401 | 57 | 20 | 2.6 | 8.7 | 0.00 | 0.00 | 0.00 | 64 | 1014.2 |
| 20260508202301 | 57 | 116 | 2.6 | 8.7 | 0.00 | 0.00 | 0.00 | 64 | 1014.2 |
| 20260508202201 | 57 | 88 | 2.6 | 8.7 | 0.00 | 0.00 | 0.00 | 64 | 1014.2 |
| 20260508202100 | 57 | 82 | 2.6 | 9.6 | 0.00 | 0.00 | 0.00 | 64 | 1014.1 |
| 20260508202000 | 57 | 109 | 3.5 | 9.6 | 0.00 | 0.00 | 0.00 | 64 | 1014.1 |
| 20260508201900 | 57 | 73 | 2.6 | 9.6 | 0.00 | 0.00 | 0.00 | 63 | 1014.1 |
| 20260508201800 | 57 | 114 | 2.6 | 9.6 | 0.00 | 0.00 | 0.00 | 64 | 1014.2 |
| 20260508201701 | 57 | 125 | 3.5 | 9.6 | 0.00 | 0.00 | 0.00 | 64 | 1014.2 |
| 20260508201601 | 57 | 84 | 3.5 | 9.6 | 0.00 | 0.00 | 0.00 | 63 | 1014.2 |
| 20260508201501 | 57 | 57 | 3.5 | 9.6 | 0.00 | 0.00 | 0.00 | 63 | 1014.2 |
| 20260508201401 | 57 | 125 | 3.5 | 9.6 | 0.00 | 0.00 | 0.00 | 63 | 1014.1 |
| 20260508201300 | 57 | 60 | 3.5 | 9.6 | 0.00 | 0.00 | 0.00 | 64 | 1014.1 |
| 20260508201200 | 57 | 96 | 3.5 | 9.6 | 0.00 | 0.00 | 0.00 | 64 | 1014.1 |
| 20260508201100 | 57 | 69 | 3.5 | 7.8 | 0.00 | 0.00 | 0.00 | 63 | 1014.1 |
| 20260508201001 | 57 | 53 | 3.5 | 9.6 | 0.00 | 0.00 | 0.00 | 63 | 1014.1 |
| 20260508200901 | 57 | 65 | 3.5 | 9.6 | 0.00 | 0.00 | 0.00 | 63 | 1014.1 |
| 20260508200801 | 57 | 78 | 3.5 | 9.6 | 0.00 | 0.00 | 0.00 | 63 | 1014.1 |
| 20260508200702 | 57 | 72 | 3.5 | 9.6 | 0.00 | 0.00 | 0.00 | 63 | 1014.1 |
| 20260508200602 | 57 | 71 | 3.5 | 9.6 | 0.00 | 0.00 | 0.00 | 63 | 1014.2 |
| 20260508200502 | 57 | 57 | 3.5 | 9.6 | 0.00 | 0.00 | 0.00 | 63 | 1014.2 |
| 20260508200421 | 57 | 78 | 3.5 | 9.6 | 0.00 | 0.00 | 0.00 | 63 | 1014.2 |
| 20260508200417 | 57 | 104 | 3.5 | 9.6 | 0.00 | 0.00 | 0.00 | 63 | 1014.2 |
| 20260508200413 | 57 | 75 | 2.6 | 9.6 | 0.00 | 0.00 | 0.00 | 63 | 1014.1 |
| 20260508200001 | 57 | 55 | 2.6 | 9.6 | 0.00 | 0.00 | 0.00 | 63 | 1014.1 |
| 20260508195901 | 57 | 77 | 2.6 | 9.6 | 0.00 | 0.00 | 0.00 | 63 | 1014.1 |
| 20260508195801 | 57 | 96 | 3.5 | 9.6 | 0.00 | 0.00 | 0.00 | 63 | 1014.1 |
| 20260508195701 | 58 | 84 | 3.5 | 9.6 | 0.00 | 0.00 | 0.00 | 63 | 1014.1 |
| 20260508195601 | 57 | 88 | 3.5 | 9.6 | 0.00 | 0.00 | 0.00 | 63 | 1014.1 |
| 20260508195501 | 58 | 105 | 3.5 | 9.6 | 0.00 | 0.00 | 0.00 | 63 | 1014.1 |
| 20260508195400 | 58 | 59 | 3.5 | 9.6 | 0.00 | 0.00 | 0.00 | 63 | 1013.9 |
| 20260508195300 | 58 | 69 | 3.5 | 7.8 | 0.00 | 0.00 | 0.00 | 63 | 1013.9 |
| 20260508195201 | 58 | 73 | 3.5 | 7.8 | 0.00 | 0.00 | 0.00 | 63 | 1014.1 |
| 20260508195101 | 58 | 87 | 2.6 | 7.8 | 0.00 | 0.00 | 0.00 | 63 | 1013.9 |
| 20260508195000 | 58 | 88 | 2.6 | 7.8 | 0.00 | 0.00 | 0.00 | 63 | 1013.9 |
| 20260508194900 | 58 | 71 | 2.6 | 7.8 | 0.00 | 0.00 | 0.00 | 63 | 1013.9 |
| 20260508194800 | 58 | 72 | 2.6 | 8.7 | 0.00 | 0.00 | 0.00 | 63 | 1013.9 |
| 20260508194701 | 58 | 74 | 2.6 | 8.7 | 0.00 | 0.00 | 0.00 | 62 | 1013.9 |
| 20260508194601 | 58 | 62 | 2.6 | 8.7 | 0.00 | 0.00 | 0.00 | 63 | 1013.9 |
| 20260508194500 | 58 | 82 | 3.5 | 8.7 | 0.00 | 0.00 | 0.00 | 62 | 1013.9 |
| 20260508194419 | 58 | 103 | 3.5 | 8.7 | 0.00 | 0.00 | 0.00 | 63 | 1013.9 |
| 20260508194415 | 58 | 101 | 3.5 | 8.7 | 0.00 | 0.00 | 0.00 | 62 | 1013.9 |
| 20260508194411 | 58 | 88 | 3.5 | 8.7 | 0.00 | 0.00 | 0.00 | 62 | 1013.9 |
| 20260508194102 | 58 | 111 | 3.5 | 8.7 | 0.00 | 0.00 | 0.00 | 62 | 1013.9 |
| 20260508194001 | 58 | 74 | 3.5 | 8.7 | 0.00 | 0.00 | 0.00 | 62 | 1013.9 |
| 20260508193920 | 58 | 65 | 3.5 | 8.7 | 0.00 | 0.00 | 0.00 | 62 | 1013.8 |
| 20260508193916 | 58 | 74 | 3.5 | 8.7 | 0.00 | 0.00 | 0.00 | 62 | 1013.8 |
| 20260508193912 | 58 | 80 | 3.5 | 8.7 | 0.00 | 0.00 | 0.00 | 62 | 1013.8 |
| 20260508193601 | 58 | 46 | 3.5 | 9.6 | 0.00 | 0.00 | 0.00 | 62 | 1013.8 |
| 20260508193501 | 58 | 94 | 3.5 | 9.6 | 0.00 | 0.00 | 0.00 | 62 | 1013.7 |
| 20260508193401 | 58 | 137 | 3.5 | 9.6 | 0.00 | 0.00 | 0.00 | 62 | 1013.8 |
| 20260508193301 | 58 | 81 | 3.5 | 9.6 | 0.00 | 0.00 | 0.00 | 62 | 1013.8 |
| 20260508193201 | 58 | 77 | 3.5 | 9.6 | 0.00 | 0.00 | 0.00 | 62 | 1013.7 |
| 20260508193101 | 58 | 91 | 3.5 | 9.6 | 0.00 | 0.00 | 0.00 | 62 | 1013.6 |
| 20260508193001 | 58 | 51 | 3.5 | 9.6 | 0.00 | 0.00 | 0.00 | 62 | 1013.7 |
| 20260508192920 | 58 | 66 | 3.5 | 9.6 | 0.00 | 0.00 | 0.00 | 62 | 1013.6 |
| 20260508192916 | 58 | 84 | 3.5 | 9.6 | 0.00 | 0.00 | 0.00 | 62 | 1013.6 |
| 20260508192912 | 58 | 64 | 3.5 | 9.6 | 0.00 | 0.00 | 0.00 | 62 | 1013.7 |
| 20260508192601 | 58 | 91 | 3.5 | 9.6 | 0.00 | 0.00 | 0.00 | 62 | 1013.6 |
| 20260508192501 | 58 | 101 | 3.5 | 9.6 | 0.00 | 0.00 | 0.00 | 62 | 1013.6 |
| 20260508192401 | 58 | 86 | 3.5 | 9.6 | 0.00 | 0.00 | 0.00 | 62 | 1013.6 |
| 20260508192301 | 58 | 74 | 3.5 | 9.6 | 0.00 | 0.00 | 0.00 | 62 | 1013.6 |
| 20260508192200 | 59 | 94 | 2.6 | 9.6 | 0.00 | 0.00 | 0.00 | 62 | 1013.6 |
| 20260508192100 | 59 | 77 | 2.6 | 10.4 | 0.00 | 0.00 | 0.00 | 62 | 1013.6 |
| 20260508192006 | 59 | 55 | 2.6 | 10.4 | 0.00 | 0.00 | 0.00 | 62 | 1013.6 |
| 20260508191901 | 59 | 109 | 2.6 | 10.4 | 0.00 | 0.00 | 0.00 | 61 | 1013.6 |
| 20260508191801 | 59 | 84 | 2.6 | 10.4 | 0.00 | 0.00 | 0.00 | 61 | 1013.6 |
| 20260508191701 | 59 | 91 | 2.6 | 10.4 | 0.00 | 0.00 | 0.00 | 61 | 1013.6 |
| 20260508191600 | 59 | 63 | 2.6 | 10.4 | 0.00 | 0.00 | 0.00 | 62 | 1013.5 |
| 20260508191500 | 59 | 83 | 2.6 | 10.4 | 0.00 | 0.00 | 0.00 | 61 | 1013.6 |
| 20260508191401 | 59 | 98 | 3.5 | 10.4 | 0.00 | 0.00 | 0.00 | 61 | 1013.5 |
| 20260508191301 | 59 | 105 | 3.5 | 10.4 | 0.00 | 0.00 | 0.00 | 61 | 1013.5 |
| 20260508191201 | 59 | 78 | 3.5 | 10.4 | 0.00 | 0.00 | 0.00 | 61 | 1013.4 |
| 20260508191101 | 59 | 99 | 3.5 | 7.8 | 0.00 | 0.00 | 0.00 | 61 | 1013.5 |
| 20260508191001 | 59 | 68 | 3.5 | 7.8 | 0.00 | 0.00 | 0.00 | 61 | 1013.4 |
| 20260508190901 | 59 | 72 | 3.5 | 7.8 | 0.00 | 0.00 | 0.00 | 61 | 1013.4 |
| 20260508190801 | 59 | 48 | 3.5 | 7.8 | 0.00 | 0.00 | 0.00 | 61 | 1013.4 |
| 20260508190701 | 59 | 53 | 3.5 | 7.8 | 0.00 | 0.00 | 0.00 | 61 | 1013.4 |
| 20260508190601 | 59 | 111 | 3.5 | 7.8 | 0.00 | 0.00 | 0.00 | 61 | 1013.4 |
| 20260508190501 | 59 | 76 | 3.5 | 7.8 | 0.00 | 0.00 | 0.00 | 61 | 1013.3 |
| 20260508190421 | 59 | 68 | 3.5 | 7.8 | 0.00 | 0.00 | 0.00 | 61 | 1013.4 |
| 20260508190417 | 59 | 78 | 3.5 | 7.8 | 0.00 | 0.00 | 0.00 | 61 | 1013.3 |
| 20260508190413 | 59 | 90 | 3.5 | 7.8 | 0.00 | 0.00 | 0.00 | 61 | 1013.3 |
| 20260508190001 | 59 | 71 | 3.5 | 7.8 | 0.00 | 0.00 | 0.00 | 60 | 1013.3 |
| 20260508185901 | 59 | 109 | 3.5 | 7.8 | 0.00 | 0.00 | 0.00 | 61 | 1013.3 |
| 20260508185801 | 60 | 61 | 3.5 | 7.8 | 0.00 | 0.00 | 0.00 | 60 | 1013.3 |
| 20260508185700 | 60 | 69 | 3.5 | 7.8 | 0.00 | 0.00 | 0.00 | 60 | 1013.3 |
| 20260508185600 | 60 | 88 | 3.5 | 7.8 | 0.00 | 0.00 | 0.00 | 60 | 1013.3 |
| 20260508185500 | 60 | 78 | 3.5 | 8.7 | 0.00 | 0.00 | 0.00 | 60 | 1013.2 |
| 20260508185401 | 60 | 45 | 3.5 | 8.7 | 0.00 | 0.00 | 0.00 | 60 | 1013.2 |
| 20260508185301 | 60 | 101 | 3.5 | 8.7 | 0.00 | 0.00 | 0.00 | 60 | 1013.2 |
| 20260508185201 | 60 | 111 | 3.5 | 8.7 | 0.00 | 0.00 | 0.00 | 60 | 1013.2 |
| 20260508185101 | 60 | 78 | 3.5 | 8.7 | 0.00 | 0.00 | 0.00 | 60 | 1013.2 |
| 20260508185001 | 60 | 69 | 3.5 | 8.7 | 0.00 | 0.00 | 0.00 | 60 | 1013.2 |
| 20260508184920 | 60 | 78 | 3.5 | 8.7 | 0.00 | 0.00 | 0.00 | 60 | 1013.2 |
| 20260508184916 | 60 | 69 | 3.5 | 8.7 | 0.00 | 0.00 | 0.00 | 60 | 1013.2 |
| 20260508184912 | 60 | 65 | 3.5 | 8.7 | 0.00 | 0.00 | 0.00 | 59 | 1013.1 |
| 20260508184649 | 60 | 57 | 2.6 | 7.8 | 0.00 | 0.00 | 0.00 | 59 | 1013.1 |
| 20260508184644 | 60 | 86 | 2.6 | 8.7 | 0.00 | 0.00 | 0.00 | 59 | 1013.1 |
| 20260508184640 | 60 | 83 | 2.6 | 8.7 | 0.00 | 0.00 | 0.00 | 59 | 1013.1 |
| 20260508184421 | 60 | 72 | 2.6 | 7.8 | 0.00 | 0.00 | 0.00 | 59 | 1013.1 |
| 20260508184417 | 60 | 66 | 2.6 | 7.8 | 0.00 | 0.00 | 0.00 | 59 | 1013.1 |
| 20260508184413 | 60 | 57 | 2.6 | 7.8 | 0.00 | 0.00 | 0.00 | 59 | 1013.1 |
| 20260508184100 | 60 | 72 | 2.6 | 8.7 | 0.00 | 0.00 | 0.00 | 59 | 1013.1 |
| 20260508184001 | 60 | 76 | 2.6 | 8.7 | 0.00 | 0.00 | 0.00 | 59 | 1013.0 |
| 20260508183901 | 60 | 99 | 2.6 | 8.7 | 0.00 | 0.00 | 0.00 | 59 | 1013.1 |
| 20260508183802 | 60 | 96 | 2.6 | 8.7 | 0.00 | 0.00 | 0.00 | 58 | 1013.1 |
| 20260508183701 | 60 | 77 | 2.6 | 8.7 | 0.00 | 0.00 | 0.00 | 58 | 1013.1 |
| 20260508183601 | 61 | 75 | 2.6 | 8.7 | 0.00 | 0.00 | 0.00 | 58 | 1013.0 |
| 20260508183501 | 61 | 91 | 2.6 | 8.7 | 0.00 | 0.00 | 0.00 | 58 | 1013.1 |
| 20260508183401 | 61 | 103 | 2.6 | 8.7 | 0.00 | 0.00 | 0.00 | 58 | 1013.1 |
| 20260508183301 | 61 | 72 | 2.6 | 8.7 | 0.00 | 0.00 | 0.00 | 58 | 1013.1 |
| 20260508183201 | 61 | 69 | 2.6 | 8.7 | 0.00 | 0.00 | 0.00 | 58 | 1013.1 |
| 20260508183101 | 61 | 65 | 2.6 | 7.0 | 0.00 | 0.00 | 0.00 | 58 | 1013.1 |
| 20260508183001 | 61 | 76 | 2.6 | 7.8 | 0.00 | 0.00 | 0.00 | 58 | 1013.1 |
| 20260508182901 | 61 | 88 | 2.6 | 7.8 | 0.00 | 0.00 | 0.00 | 58 | 1013.0 |
| 20260508182801 | 61 | 84 | 2.6 | 7.8 | 0.00 | 0.00 | 0.00 | 57 | 1013.0 |
| 20260508182701 | 61 | 80 | 2.6 | 7.8 | 0.00 | 0.00 | 0.00 | 57 | 1013.0 |
| 20260508182601 | 61 | 65 | 2.6 | 7.8 | 0.00 | 0.00 | 0.00 | 57 | 1013.0 |
| 20260508182500 | 61 | 69 | 3.5 | 7.8 | 0.00 | 0.00 | 0.00 | 57 | 1013.0 |
| 20260508182401 | 62 | 104 | 2.6 | 7.8 | 0.00 | 0.00 | 0.00 | 57 | 1013.0 |
| 20260508182300 | 62 | 76 | 2.6 | 7.8 | 0.00 | 0.00 | 0.00 | 57 | 1012.9 |
| 20260508182200 | 62 | 115 | 2.6 | 7.8 | 0.00 | 0.00 | 0.00 | 57 | 1013.0 |
| 20260508182100 | 62 | 69 | 2.6 | 7.8 | 0.00 | 0.00 | 0.00 | 57 | 1012.9 |
| 20260508182001 | 62 | 78 | 2.6 | 7.8 | 0.00 | 0.00 | 0.00 | 57 | 1012.9 |
| 20260508181900 | 62 | 79 | 2.6 | 7.8 | 0.00 | 0.00 | 0.00 | 57 | 1012.9 |
| 20260508181801 | 62 | 63 | 2.6 | 7.8 | 0.00 | 0.00 | 0.00 | 57 | 1012.9 |
| 20260508181701 | 62 | 64 | 2.6 | 7.8 | 0.00 | 0.00 | 0.00 | 57 | 1012.9 |
| 20260508181601 | 62 | 55 | 2.6 | 7.8 | 0.00 | 0.00 | 0.00 | 56 | 1012.9 |
| 20260508181501 | 62 | 42 | 2.6 | 7.8 | 0.00 | 0.00 | 0.00 | 56 | 1012.9 |
| 20260508181401 | 62 | 57 | 2.6 | 7.8 | 0.00 | 0.00 | 0.00 | 56 | 1012.8 |
| 20260508181301 | 62 | 70 | 2.6 | 7.8 | 0.00 | 0.00 | 0.00 | 56 | 1012.8 |
| 20260508181200 | 62 | 92 | 2.6 | 7.0 | 0.00 | 0.00 | 0.00 | 56 | 1012.8 |
| 20260508181101 | 62 | 92 | 2.6 | 7.0 | 0.00 | 0.00 | 0.00 | 56 | 1012.8 |
| 20260508181001 | 62 | 65 | 2.6 | 7.0 | 0.00 | 0.00 | 0.00 | 56 | 1012.8 |
| 20260508180901 | 62 | 91 | 2.6 | 7.0 | 0.00 | 0.00 | 0.00 | 56 | 1012.8 |
| 20260508180801 | 62 | 82 | 2.6 | 7.0 | 0.00 | 0.00 | 0.00 | 56 | 1012.7 |
| 20260508180701 | 62 | 78 | 2.6 | 7.0 | 0.00 | 0.00 | 0.00 | 56 | 1012.8 |
| 20260508180601 | 62 | 46 | 2.6 | 7.0 | 0.00 | 0.00 | 0.00 | 56 | 1012.8 |
| 20260508180501 | 62 | 38 | 2.6 | 7.0 | 0.00 | 0.00 | 0.00 | 56 | 1012.8 |
| 20260508180400 | 62 | 83 | 2.6 | 7.0 | 0.00 | 0.00 | 0.00 | 56 | 1012.7 |
| 20260508180301 | 63 | 86 | 1.7 | 7.0 | 0.00 | 0.00 | 0.00 | 55 | 1012.7 |
| 20260508180201 | 63 | 74 | 1.7 | 7.0 | 0.00 | 0.00 | 0.00 | 55 | 1012.7 |
| 20260508180101 | 63 | 85 | 1.7 | 7.0 | 0.00 | 0.00 | 0.00 | 55 | 1012.7 |
| 20260508180001 | 63 | 76 | 1.7 | 7.0 | 0.00 | 0.00 | 0.00 | 55 | 1012.7 |
| 20260508175901 | 63 | 93 | 1.7 | 7.0 | 0.00 | 0.00 | 0.00 | 55 | 1012.7 |
| 20260508175801 | 63 | 106 | 1.7 | 7.0 | 0.00 | 0.00 | 0.00 | 55 | 1012.7 |
| 20260508175700 | 63 | 97 | 1.7 | 7.0 | 0.00 | 0.00 | 0.00 | 55 | 1012.7 |
| 20260508175600 | 63 | 124 | 1.7 | 7.0 | 0.00 | 0.00 | 0.00 | 55 | 1012.7 |
| 20260508175500 | 63 | 77 | 1.7 | 7.0 | 0.00 | 0.00 | 0.00 | 54 | 1012.7 |
| 20260508175405 | 63 | 111 | 1.7 | 6.1 | 0.00 | 0.00 | 0.00 | 55 | 1012.7 |
| 20260508175300 | 63 | 89 | 1.7 | 7.0 | 0.00 | 0.00 | 0.00 | 54 | 1012.7 |
| 20260508175200 | 63 | 98 | 1.7 | 7.0 | 0.00 | 0.00 | 0.00 | 55 | 1012.6 |
| 20260508175101 | 63 | 84 | 1.7 | 7.8 | 0.00 | 0.00 | 0.00 | 55 | 1012.7 |
| 20260508175001 | 63 | 68 | 2.6 | 7.8 | 0.00 | 0.00 | 0.00 | 55 | 1012.7 |
| 20260508174904 | 63 | 61 | 2.6 | 7.8 | 0.00 | 0.00 | 0.00 | 54 | 1012.6 |
| 20260508174800 | 64 | 97 | 2.6 | 7.8 | 0.00 | 0.00 | 0.00 | 54 | 1012.7 |
| 20260508174700 | 64 | 98 | 2.6 | 7.8 | 0.00 | 0.00 | 0.00 | 54 | 1012.6 |
| 20260508174600 | 64 | 90 | 2.6 | 7.8 | 0.00 | 0.00 | 0.00 | 53 | 1012.6 |
| 20260508174500 | 64 | 126 | 2.6 | 7.8 | 0.00 | 0.00 | 0.00 | 54 | 1012.6 |
| 20260508174401 | 64 | 100 | 2.6 | 7.8 | 0.00 | 0.00 | 0.00 | 54 | 1012.6 |
| 20260508174303 | 64 | 85 | 2.6 | 7.8 | 0.00 | 0.00 | 0.00 | 54 | 1012.5 |
| 20260508174200 | 64 | 73 | 3.5 | 9.6 | 0.00 | 0.00 | 0.00 | 53 | 1012.5 |
| 20260508174100 | 64 | 82 | 3.5 | 9.6 | 0.00 | 0.00 | 0.00 | 53 | 1012.5 |
| 20260508174001 | 64 | 78 | 2.6 | 9.6 | 0.00 | 0.00 | 0.00 | 54 | 1012.5 |
| 20260508173901 | 64 | 92 | 2.6 | 9.6 | 0.00 | 0.00 | 0.00 | 53 | 1012.5 |
| 20260508173800 | 64 | 86 | 2.6 | 9.6 | 0.00 | 0.00 | 0.00 | 53 | 1012.5 |
| 20260508173701 | 64 | 76 | 2.6 | 9.6 | 0.00 | 0.00 | 0.00 | 54 | 1012.5 |
| 20260508173601 | 64 | 98 | 2.6 | 9.6 | 0.00 | 0.00 | 0.00 | 54 | 1012.5 |
| 20260508173501 | 64 | 97 | 2.6 | 9.6 | 0.00 | 0.00 | 0.00 | 53 | 1012.5 |
| 20260508173401 | 64 | 57 | 2.6 | 9.6 | 0.00 | 0.00 | 0.00 | 53 | 1012.5 |
| 20260508173301 | 64 | 78 | 2.6 | 9.6 | 0.00 | 0.00 | 0.00 | 54 | 1012.5 |
| 20260508173201 | 64 | 86 | 1.7 | 6.1 | 0.00 | 0.00 | 0.00 | 54 | 1012.4 |
| 20260508173101 | 64 | 96 | 2.6 | 7.8 | 0.00 | 0.00 | 0.00 | 53 | 1012.5 |
| 20260508173001 | 64 | 105 | 2.6 | 7.8 | 0.00 | 0.00 | 0.00 | 53 | 1012.5 |
| 20260508172900 | 64 | 74 | 2.6 | 7.8 | 0.00 | 0.00 | 0.00 | 53 | 1012.4 |
| 20260508172801 | 64 | 43 | 2.6 | 7.8 | 0.00 | 0.00 | 0.00 | 54 | 1012.5 |
| 20260508172701 | 64 | 92 | 2.6 | 7.8 | 0.00 | 0.00 | 0.00 | 55 | 1012.5 |
| 20260508172601 | 64 | 96 | 2.6 | 7.8 | 0.00 | 0.00 | 0.00 | 54 | 1012.4 |
| 20260508172501 | 64 | 65 | 2.6 | 7.8 | 0.00 | 0.00 | 0.00 | 53 | 1012.4 |
| 20260508172400 | 64 | 90 | 2.6 | 7.8 | 0.00 | 0.00 | 0.00 | 53 | 1012.4 |
| 20260508172300 | 64 | 111 | 2.6 | 7.8 | 0.00 | 0.00 | 0.00 | 53 | 1012.4 |
| 20260508172200 | 64 | 85 | 1.7 | 7.8 | 0.00 | 0.00 | 0.00 | 53 | 1012.4 |
| 20260508172100 | 64 | 123 | 1.7 | 6.1 | 0.00 | 0.00 | 0.00 | 53 | 1012.4 |
| 20260508172000 | 64 | 96 | 1.7 | 6.1 | 0.00 | 0.00 | 0.00 | 53 | 1012.4 |
| 20260508171923 | 64 | 50 | 1.7 | 6.1 | 0.00 | 0.00 | 0.00 | 53 | 1012.4 |
| 20260508171915 | 64 | 104 | 1.7 | 6.1 | 0.00 | 0.00 | 0.00 | 53 | 1012.4 |
| 20260508171911 | 64 | 69 | 1.7 | 6.1 | 0.00 | 0.00 | 0.00 | 53 | 1012.4 |
| 20260508171601 | 64 | 61 | 1.7 | 6.1 | 0.00 | 0.00 | 0.00 | 53 | 1012.3 |
| 20260508171501 | 64 | 71 | 1.7 | 6.1 | 0.00 | 0.00 | 0.00 | 53 | 1012.3 |
| 20260508171400 | 64 | 80 | 1.7 | 6.1 | 0.00 | 0.00 | 0.00 | 54 | 1012.4 |
| 20260508171301 | 64 | 84 | 1.7 | 6.1 | 0.00 | 0.00 | 0.00 | 53 | 1012.3 |
| 20260508171201 | 64 | 93 | 1.7 | 6.1 | 0.00 | 0.00 | 0.00 | 53 | 1012.3 |
| 20260508171101 | 64 | 69 | 1.7 | 9.6 | 0.00 | 0.00 | 0.00 | 53 | 1012.3 |
| 20260508171001 | 64 | 40 | 1.7 | 9.6 | 0.00 | 0.00 | 0.00 | 53 | 1012.3 |
| 20260508170801 | 64 | 94 | 2.6 | 9.6 | 0.00 | 0.00 | 0.00 | 52 | 1012.3 |
| 20260508170701 | 64 | 118 | 2.6 | 9.6 | 0.00 | 0.00 | 0.00 | 52 | 1012.3 |
| 20260508170600 | 64 | 100 | 2.6 | 9.6 | 0.00 | 0.00 | 0.00 | 53 | 1012.3 |
| 20260508170500 | 64 | 129 | 2.6 | 9.6 | 0.00 | 0.00 | 0.00 | 54 | 1012.3 |
| 20260508170400 | 64 | 96 | 2.6 | 9.6 | 0.00 | 0.00 | 0.00 | 54 | 1012.3 |
| 20260508170300 | 64 | 98 | 2.6 | 9.6 | 0.00 | 0.00 | 0.00 | 54 | 1012.1 |
| 20260508170201 | 64 | 114 | 2.6 | 9.6 | 0.00 | 0.00 | 0.00 | 53 | 1012.1 |
| 20260508170001 | 64 | 56 | 2.6 | 7.8 | 0.00 | 0.00 | 0.00 | 53 | 1012.1 |
| 20260508165923 | 64 | 98 | 2.6 | 7.8 | 0.00 | 0.00 | 0.00 | 53 | 1012.1 |
| 20260508165915 | 64 | 58 | 2.6 | 7.8 | 0.00 | 0.00 | 0.00 | 53 | 1012.1 |
| 20260508165911 | 64 | 102 | 2.6 | 7.8 | 0.00 | 0.00 | 0.00 | 53 | 1012.1 |
| 20260508165600 | 64 | 133 | 2.6 | 7.8 | 0.00 | 0.00 | 0.00 | 53 | 1012.1 |
| 20260508165501 | 64 | 90 | 2.6 | 7.8 | 0.00 | 0.00 | 0.00 | 54 | 1012.1 |
| 20260508165400 | 64 | 121 | 2.6 | 7.8 | 0.00 | 0.00 | 0.00 | 53 | 1012.3 |
| 20260508165300 | 64 | 74 | 2.6 | 7.8 | 0.00 | 0.00 | 0.00 | 53 | 1012.1 |
| 20260508165201 | 64 | 78 | 2.6 | 7.8 | 0.00 | 0.00 | 0.00 | 53 | 1012.1 |
| 20260508165101 | 64 | 74 | 2.6 | 7.8 | 0.00 | 0.00 | 0.00 | 53 | 1012.1 |
| 20260508165001 | 64 | 86 | 2.6 | 7.8 | 0.00 | 0.00 | 0.00 | 53 | 1012.1 |
| 20260508164901 | 64 | 89 | 2.6 | 7.8 | 0.00 | 0.00 | 0.00 | 52 | 1012.1 |
| 20260508164800 | 64 | 63 | 1.7 | 7.8 | 0.00 | 0.00 | 0.00 | 53 | 1012.1 |
| 20260508164701 | 64 | 119 | 1.7 | 7.8 | 0.00 | 0.00 | 0.00 | 53 | 1012.1 |
| 20260508164601 | 64 | 18 | 1.7 | 7.0 | 0.00 | 0.00 | 0.00 | 53 | 1012.1 |
| 20260508164501 | 64 | 126 | 1.7 | 7.0 | 0.00 | 0.00 | 0.00 | 53 | 1012.0 |
| 20260508164401 | 64 | 120 | 1.7 | 7.0 | 0.00 | 0.00 | 0.00 | 52 | 1012.0 |
| 20260508164302 | 64 | 100 | 1.7 | 7.0 | 0.00 | 0.00 | 0.00 | 52 | 1012.0 |
| 20260508164202 | 64 | 98 | 1.7 | 7.8 | 0.00 | 0.00 | 0.00 | 52 | 1012.1 |
| 20260508164100 | 64 | 96 | 2.6 | 7.8 | 0.00 | 0.00 | 0.00 | 52 | 1012.1 |
| 20260508164000 | 64 | 126 | 1.7 | 7.8 | 0.00 | 0.00 | 0.00 | 52 | 1012.1 |
| 20260508163901 | 64 | 84 | 1.7 | 7.8 | 0.00 | 0.00 | 0.00 | 52 | 1012.1 |
| 20260508163801 | 64 | 94 | 1.7 | 7.8 | 0.00 | 0.00 | 0.00 | 51 | 1012.1 |
| 20260508163701 | 64 | 74 | 1.7 | 7.8 | 0.00 | 0.00 | 0.00 | 52 | 1012.1 |
| 20260508163601 | 65 | 77 | 1.7 | 7.8 | 0.00 | 0.00 | 0.00 | 53 | 1012.1 |
| 20260508163501 | 64 | 93 | 2.6 | 7.8 | 0.00 | 0.00 | 0.00 | 52 | 1012.3 |
| 20260508163400 | 65 | 71 | 2.6 | 7.8 | 0.00 | 0.00 | 0.00 | 53 | 1012.3 |
| 20260508163300 | 65 | 63 | 1.7 | 7.8 | 0.00 | 0.00 | 0.00 | 52 | 1012.1 |
| 20260508163201 | 65 | 77 | 1.7 | 6.1 | 0.00 | 0.00 | 0.00 | 53 | 1012.1 |
| 20260508163101 | 65 | 93 | 1.7 | 6.1 | 0.00 | 0.00 | 0.00 | 52 | 1012.1 |
| 20260508163001 | 65 | 115 | 1.7 | 6.1 | 0.00 | 0.00 | 0.00 | 52 | 1012.1 |
| 20260508162901 | 65 | 87 | 1.7 | 6.1 | 0.00 | 0.00 | 0.00 | 51 | 1012.1 |
| 20260508162801 | 65 | 120 | 1.7 | 6.1 | 0.00 | 0.00 | 0.00 | 52 | 1012.1 |
| 20260508162701 | 65 | 88 | 1.7 | 6.1 | 0.00 | 0.00 | 0.00 | 51 | 1012.1 |
| 20260508162600 | 65 | 83 | 1.7 | 6.1 | 0.00 | 0.00 | 0.00 | 51 | 1012.1 |
| 20260508162500 | 65 | 89 | 1.7 | 7.0 | 0.00 | 0.00 | 0.00 | 52 | 1012.1 |
| 20260508162400 | 65 | 110 | 1.7 | 7.0 | 0.00 | 0.00 | 0.00 | 52 | 1012.1 |
| 20260508162300 | 65 | 109 | 1.7 | 7.0 | 0.00 | 0.00 | 0.00 | 52 | 1012.3 |
| 20260508162200 | 65 | 111 | 1.7 | 7.0 | 0.00 | 0.00 | 0.00 | 52 | 1012.1 |
| 20260508162101 | 65 | 102 | 1.7 | 7.0 | 0.00 | 0.00 | 0.00 | 51 | 1012.3 |
| 20260508162001 | 65 | 92 | 1.7 | 7.0 | 0.00 | 0.00 | 0.00 | 52 | 1012.3 |
| 20260508161901 | 65 | 92 | 1.7 | 7.0 | 0.00 | 0.00 | 0.00 | 52 | 1012.3 |
| 20260508161805 | 65 | 96 | 1.7 | 7.0 | 0.00 | 0.00 | 0.00 | 52 | 1012.1 |
| 20260508161700 | 65 | 93 | 1.7 | 7.0 | 0.00 | 0.00 | 0.00 | 51 | 1012.1 |
| 20260508161600 | 65 | 94 | 1.7 | 7.0 | 0.00 | 0.00 | 0.00 | 51 | 1012.1 |
| 20260508161500 | 65 | 107 | 1.7 | 6.1 | 0.00 | 0.00 | 0.00 | 52 | 1012.1 |
| 20260508161401 | 65 | 113 | 1.7 | 6.1 | 0.00 | 0.00 | 0.00 | 52 | 1012.1 |
| 20260508161301 | 65 | 113 | 1.7 | 7.8 | 0.00 | 0.00 | 0.00 | 52 | 1012.1 |
| 20260508161201 | 65 | 91 | 1.7 | 7.8 | 0.00 | 0.00 | 0.00 | 52 | 1012.1 |
| 20260508161101 | 65 | 90 | 1.7 | 7.8 | 0.00 | 0.00 | 0.00 | 51 | 1012.1 |
| 20260508161001 | 65 | 110 | 1.7 | 7.8 | 0.00 | 0.00 | 0.00 | 52 | 1012.1 |
| 20260508160901 | 65 | 73 | 1.7 | 7.8 | 0.00 | 0.00 | 0.00 | 51 | 1012.1 |
| 20260508160802 | 65 | 88 | 1.7 | 7.8 | 0.00 | 0.00 | 0.00 | 51 | 1012.1 |
| 20260508160700 | 65 | 96 | 1.7 | 7.8 | 0.00 | 0.00 | 0.00 | 52 | 1012.1 |
| 20260508160601 | 65 | 93 | 1.7 | 7.8 | 0.00 | 0.00 | 0.00 | 51 | 1012.0 |
| 20260508160500 | 65 | 90 | 1.7 | 7.8 | 0.00 | 0.00 | 0.00 | 50 | 1012.0 |
| 20260508160400 | 65 | 105 | 1.7 | 7.8 | 0.00 | 0.00 | 0.00 | 51 | 1012.0 |
| 20260508160301 | 65 | 82 | 1.7 | 7.8 | 0.00 | 0.00 | 0.00 | 51 | 1012.1 |
| 20260508160200 | 65 | 98 | 1.7 | 7.8 | 0.00 | 0.00 | 0.00 | 51 | 1012.1 |
| 20260508160001 | 65 | 91 | 2.6 | 7.8 | 0.00 | 0.00 | 0.00 | 51 | 1012.1 |
| 20260508155923 | 66 | 98 | 1.7 | 7.8 | 0.00 | 0.00 | 0.00 | 50 | 1012.1 |
| 20260508155915 | 66 | 80 | 2.6 | 7.8 | 0.00 | 0.00 | 0.00 | 52 | 1012.1 |
| 20260508155903 | 66 | 67 | 2.6 | 7.8 | 0.00 | 0.00 | 0.00 | 50 | 1012.1 |
| 20260508155643 | 66 | 109 | 2.6 | 7.8 | 0.00 | 0.00 | 0.00 | 52 | 1012.1 |
| 20260508155424 | 66 | 78 | 2.6 | 7.8 | 0.00 | 0.00 | 0.00 | 50 | 1012.0 |
| 20260508155420 | 66 | 88 | 2.6 | 7.8 | 0.00 | 0.00 | 0.00 | 51 | 1012.0 |
| 20260508155412 | 66 | 98 | 1.7 | 7.8 | 0.00 | 0.00 | 0.00 | 50 | 1012.1 |
| 20260508155101 | 66 | 83 | 1.7 | 7.8 | 0.00 | 0.00 | 0.00 | 49 | 1012.1 |
| 20260508155001 | 66 | 92 | 1.7 | 7.8 | 0.00 | 0.00 | 0.00 | 50 | 1012.1 |
| 20260508154900 | 66 | 112 | 1.7 | 7.8 | 0.00 | 0.00 | 0.00 | 51 | 1012.0 |
| 20260508154800 | 66 | 110 | 1.7 | 6.1 | 0.00 | 0.00 | 0.00 | 50 | 1012.1 |
| 20260508154700 | 66 | 113 | 1.7 | 4.3 | 0.00 | 0.00 | 0.00 | 50 | 1012.1 |
| 20260508154600 | 66 | 92 | 1.7 | 6.1 | 0.00 | 0.00 | 0.00 | 50 | 1012.1 |
| 20260508154500 | 66 | 75 | 1.7 | 6.1 | 0.00 | 0.00 | 0.00 | 50 | 1012.1 |
| 20260508154401 | 66 | 88 | 1.7 | 6.1 | 0.00 | 0.00 | 0.00 | 50 | 1012.1 |
| 20260508154301 | 66 | 46 | 1.7 | 6.1 | 0.00 | 0.00 | 0.00 | 50 | 1012.1 |
| 20260508154201 | 67 | 102 | 1.7 | 6.1 | 0.00 | 0.00 | 0.00 | 51 | 1012.1 |
| 20260508154153 | 67 | 71 | 2.6 | 6.1 | 0.00 | 0.00 | 0.00 | 49 | 1012.1 |
| 20260508154146 | 67 | 93 | 2.6 | 6.1 | 0.00 | 0.00 | 0.00 | 51 | 1012.1 |
| 20260508154142 | 67 | 109 | 2.6 | 6.1 | 0.00 | 0.00 | 0.00 | 49 | 1012.1 |
| 20260508153925 | 67 | 92 | 2.6 | 6.1 | 0.00 | 0.00 | 0.00 | 49 | 1012.1 |
| 20260508153921 | 67 | 100 | 2.6 | 6.1 | 0.00 | 0.00 | 0.00 | 49 | 1012.1 |
| 20260508153913 | 67 | 71 | 2.6 | 6.1 | 0.00 | 0.00 | 0.00 | 49 | 1012.1 |
| 20260508153600 | 67 | 89 | 2.6 | 5.2 | 0.00 | 0.00 | 0.00 | 48 | 1012.1 |
| 20260508153500 | 67 | 80 | 2.6 | 5.2 | 0.00 | 0.00 | 0.00 | 49 | 1012.1 |
| 20260508153400 | 67 | 83 | 2.6 | 5.2 | 0.00 | 0.00 | 0.00 | 50 | 1012.1 |
| 20260508153300 | 67 | 63 | 1.7 | 5.2 | 0.00 | 0.00 | 0.00 | 49 | 1012.1 |
| 20260508153201 | 67 | 114 | 2.6 | 5.2 | 0.00 | 0.00 | 0.00 | 49 | 1012.1 |
| 20260508153101 | 67 | 71 | 2.6 | 5.2 | 0.00 | 0.00 | 0.00 | 49 | 1012.1 |
| 20260508153001 | 67 | 47 | 2.6 | 7.0 | 0.00 | 0.00 | 0.00 | 49 | 1012.3 |
| 20260508152901 | 67 | 65 | 2.6 | 7.0 | 0.00 | 0.00 | 0.00 | 48 | 1012.3 |
| 20260508152801 | 67 | 101 | 2.6 | 7.0 | 0.00 | 0.00 | 0.00 | 49 | 1012.3 |
| 20260508152701 | 67 | 85 | 2.6 | 7.0 | 0.00 | 0.00 | 0.00 | 49 | 1012.3 |
| 20260508152601 | 67 | 95 | 2.6 | 7.0 | 0.00 | 0.00 | 0.00 | 49 | 1012.3 |
| 20260508152501 | 67 | 99 | 2.6 | 7.0 | 0.00 | 0.00 | 0.00 | 49 | 1012.3 |
| 20260508152400 | 67 | 130 | 2.6 | 7.0 | 0.00 | 0.00 | 0.00 | 49 | 1012.3 |
| 20260508152300 | 67 | 59 | 2.6 | 7.0 | 0.00 | 0.00 | 0.00 | 49 | 1012.3 |
| 20260508152201 | 67 | 97 | 2.6 | 7.0 | 0.00 | 0.00 | 0.00 | 49 | 1012.3 |
| 20260508152101 | 67 | 102 | 2.6 | 7.0 | 0.00 | 0.00 | 0.00 | 49 | 1012.3 |
| 20260508152001 | 67 | 355 | 2.6 | 5.2 | 0.00 | 0.00 | 0.00 | 49 | 1012.3 |
| 20260508151901 | 67 | 329 | 2.6 | 5.2 | 0.00 | 0.00 | 0.00 | 50 | 1012.4 |
| 20260508151800 | 67 | 50 | 2.6 | 5.2 | 0.00 | 0.00 | 0.00 | 50 | 1012.4 |
| 20260508151700 | 67 | 29 | 2.6 | 6.1 | 0.00 | 0.00 | 0.00 | 50 | 1012.4 |
| 20260508151600 | 67 | 5 | 2.6 | 7.0 | 0.00 | 0.00 | 0.00 | 49 | 1012.4 |
| 20260508151500 | 67 | 49 | 2.6 | 7.0 | 0.00 | 0.00 | 0.00 | 49 | 1012.4 |
| 20260508151400 | 67 | 16 | 2.6 | 7.0 | 0.00 | 0.00 | 0.00 | 50 | 1012.4 |
| 20260508151300 | 67 | 331 | 2.6 | 7.0 | 0.00 | 0.00 | 0.00 | 50 | 1012.5 |
| 20260508151201 | 67 | 24 | 2.6 | 7.0 | 0.00 | 0.00 | 0.00 | 52 | 1012.4 |
| 20260508151101 | 67 | 46 | 3.5 | 10.4 | 0.00 | 0.00 | 0.00 | 51 | 1012.5 |
| 20260508151001 | 67 | 47 | 3.5 | 10.4 | 0.00 | 0.00 | 0.00 | 51 | 1012.5 |
| 20260508150901 | 66 | 37 | 3.5 | 10.4 | 0.00 | 0.00 | 0.00 | 52 | 1012.5 |
| 20260508150801 | 66 | 5 | 3.5 | 10.4 | 0.00 | 0.00 | 0.00 | 51 | 1012.5 |
| 20260508150700 | 66 | 59 | 3.5 | 10.4 | 0.00 | 0.00 | 0.00 | 51 | 1012.5 |
| 20260508150601 | 66 | 91 | 3.5 | 10.4 | 0.00 | 0.00 | 0.00 | 52 | 1012.5 |
| 20260508150500 | 66 | 108 | 3.5 | 10.4 | 0.00 | 0.00 | 0.00 | 52 | 1012.5 |
| 20260508150401 | 66 | 76 | 3.5 | 10.4 | 0.00 | 0.00 | 0.00 | 52 | 1012.6 |
| 20260508150300 | 66 | 69 | 2.6 | 10.4 | 0.00 | 0.00 | 0.00 | 52 | 1012.6 |
| 20260508150201 | 66 | 145 | 2.6 | 10.4 | 0.00 | 0.00 | 0.00 | 53 | 1012.5 |
| 20260508150101 | 66 | 78 | 2.6 | 7.8 | 0.00 | 0.00 | 0.00 | 53 | 1012.5 |
| 20260508150001 | 66 | 31 | 1.7 | 7.8 | 0.00 | 0.00 | 0.00 | 53 | 1012.5 |
| 20260508145900 | 66 | 90 | 1.7 | 7.8 | 0.00 | 0.00 | 0.00 | 53 | 1012.6 |
| 20260508145800 | 66 | 87 | 1.7 | 7.8 | 0.00 | 0.00 | 0.00 | 52 | 1012.6 |
| 20260508145701 | 66 | 61 | 1.7 | 6.1 | 0.00 | 0.00 | 0.00 | 50 | 1012.6 |
| 20260508145600 | 66 | 117 | 1.7 | 7.8 | 0.00 | 0.00 | 0.00 | 50 | 1012.6 |
| 20260508145500 | 66 | 103 | 1.7 | 7.8 | 0.00 | 0.00 | 0.00 | 50 | 1012.6 |
| 20260508145425 | 66 | 110 | 1.7 | 7.8 | 0.00 | 0.00 | 0.00 | 50 | 1012.6 |
| 20260508145421 | 66 | 111 | 1.7 | 8.7 | 0.00 | 0.00 | 0.00 | 51 | 1012.6 |
| 20260508145411 | 66 | 109 | 2.6 | 8.7 | 0.00 | 0.00 | 0.00 | 50 | 1012.6 |
| 20260508145100 | 67 | 109 | 2.6 | 8.7 | 0.00 | 0.00 | 0.00 | 50 | 1012.6 |
| 20260508145001 | 67 | 112 | 2.6 | 8.7 | 0.00 | 0.00 | 0.00 | 49 | 1012.6 |
| 20260508144901 | 67 | 109 | 2.6 | 8.7 | 0.00 | 0.00 | 0.00 | 49 | 1012.6 |
| 20260508144801 | 67 | 93 | 2.6 | 8.7 | 0.00 | 0.00 | 0.00 | 49 | 1012.6 |
| 20260508144700 | 67 | 95 | 2.6 | 8.7 | 0.00 | 0.00 | 0.00 | 49 | 1012.6 |
| 20260508144601 | 67 | 59 | 2.6 | 8.7 | 0.00 | 0.00 | 0.00 | 49 | 1012.6 |
| 20260508144501 | 67 | 77 | 2.6 | 8.7 | 0.00 | 0.00 | 0.00 | 50 | 1012.6 |
| 20260508144401 | 67 | 88 | 1.7 | 8.7 | 0.00 | 0.00 | 0.00 | 49 | 1012.6 |
| 20260508144302 | 67 | 84 | 1.7 | 6.1 | 0.00 | 0.00 | 0.00 | 49 | 1012.6 |
| 20260508144201 | 68 | 73 | 1.7 | 6.1 | 0.00 | 0.00 | 0.00 | 49 | 1012.6 |
| 20260508144100 | 68 | 73 | 1.7 | 6.1 | 0.00 | 0.00 | 0.00 | 48 | 1012.6 |
| 20260508144000 | 68 | 72 | 1.7 | 6.1 | 0.00 | 0.00 | 0.00 | 48 | 1012.6 |
| 20260508143900 | 68 | 58 | 2.6 | 6.1 | 0.00 | 0.00 | 0.00 | 51 | 1012.6 |
| 20260508143801 | 68 | 37 | 2.6 | 6.1 | 0.00 | 0.00 | 0.00 | 49 | 1012.6 |
| 20260508143700 | 68 | 30 | 2.6 | 6.1 | 0.00 | 0.00 | 0.00 | 51 | 1012.6 |
| 20260508143601 | 68 | 70 | 1.7 | 6.1 | 0.00 | 0.00 | 0.00 | 50 | 1012.6 |
| 20260508143500 | 68 | 82 | 1.7 | 6.1 | 0.00 | 0.00 | 0.00 | 50 | 1012.6 |
| 20260508143400 | 68 | 78 | 1.7 | 6.1 | 0.00 | 0.00 | 0.00 | 49 | 1012.6 |
| 20260508143301 | 68 | 73 | 1.7 | 6.1 | 0.00 | 0.00 | 0.00 | 48 | 1012.6 |
| 20260508143200 | 68 | 54 | 1.7 | 6.1 | 0.00 | 0.00 | 0.00 | 49 | 1012.6 |
| 20260508143101 | 68 | 11 | 1.7 | 6.1 | 0.00 | 0.00 | 0.00 | 51 | 1012.7 |
| 20260508143001 | 68 | 63 | 1.7 | 6.1 | 0.00 | 0.00 | 0.00 | 50 | 1012.7 |
| 20260508142901 | 68 | 57 | 1.7 | 6.1 | 0.00 | 0.00 | 0.00 | 49 | 1012.7 |
| 20260508142801 | 68 | 37 | 1.7 | 6.1 | 0.00 | 0.00 | 0.00 | 49 | 1012.7 |
| 20260508142700 | 68 | 120 | 1.7 | 6.1 | 0.00 | 0.00 | 0.00 | 49 | 1012.7 |
| 20260508142601 | 67 | 129 | 1.7 | 6.1 | 0.00 | 0.00 | 0.00 | 50 | 1012.7 |
| 20260508142500 | 67 | 78 | 1.7 | 6.1 | 0.00 | 0.00 | 0.00 | 50 | 1012.7 |
| 20260508142400 | 67 | 77 | 1.7 | 6.1 | 0.00 | 0.00 | 0.00 | 51 | 1012.7 |
| 20260508142300 | 67 | 69 | 1.7 | 6.1 | 0.00 | 0.00 | 0.00 | 50 | 1012.6 |
| 20260508142205 | 67 | 74 | 1.7 | 5.2 | 0.00 | 0.00 | 0.00 | 50 | 1012.7 |
| 20260508142100 | 67 | 65 | 1.7 | 5.2 | 0.00 | 0.00 | 0.00 | 50 | 1012.7 |
| 20260508142000 | 67 | 79 | 1.7 | 5.2 | 0.00 | 0.00 | 0.00 | 49 | 1012.7 |
| 20260508141900 | 67 | 98 | 1.7 | 5.2 | 0.00 | 0.00 | 0.00 | 49 | 1012.6 |
| 20260508141800 | 67 | 98 | 1.7 | 5.2 | 0.00 | 0.00 | 0.00 | 49 | 1012.7 |
| 20260508141703 | 67 | 99 | 1.7 | 5.2 | 0.00 | 0.00 | 0.00 | 50 | 1012.7 |
| 20260508141601 | 67 | 94 | 1.7 | 5.2 | 0.00 | 0.00 | 0.00 | 51 | 1012.7 |
| 20260508141501 | 67 | 57 | 1.7 | 4.3 | 0.00 | 0.00 | 0.00 | 50 | 1012.7 |
| 20260508141401 | 67 | 128 | 1.7 | 4.3 | 0.00 | 0.00 | 0.00 | 49 | 1012.7 |
| 20260508141300 | 67 | 103 | 1.7 | 5.2 | 0.00 | 0.00 | 0.00 | 49 | 1012.7 |
| 20260508141201 | 67 | 103 | 1.7 | 5.2 | 0.00 | 0.00 | 0.00 | 50 | 1012.7 |
| 20260508141100 | 67 | 83 | 1.7 | 6.1 | 0.00 | 0.00 | 0.00 | 51 | 1012.7 |
| 20260508141000 | 67 | 59 | 1.7 | 8.7 | 0.00 | 0.00 | 0.00 | 54 | 1012.7 |
| 20260508140901 | 67 | 42 | 1.7 | 8.7 | 0.00 | 0.00 | 0.00 | 52 | 1012.7 |
| 20260508140801 | 66 | 68 | 1.7 | 8.7 | 0.00 | 0.00 | 0.00 | 52 | 1012.8 |
| 20260508140700 | 66 | 68 | 1.7 | 8.7 | 0.00 | 0.00 | 0.00 | 52 | 1012.7 |
| 20260508140601 | 66 | 78 | 1.7 | 8.7 | 0.00 | 0.00 | 0.00 | 53 | 1012.8 |
| 20260508140501 | 66 | 78 | 1.7 | 8.7 | 0.00 | 0.00 | 0.00 | 52 | 1012.8 |
| 20260508140421 | 66 | 80 | 2.6 | 8.7 | 0.00 | 0.00 | 0.00 | 51 | 1012.8 |
| 20260508140417 | 66 | 108 | 1.7 | 8.7 | 0.00 | 0.00 | 0.00 | 50 | 1012.8 |
| 20260508140413 | 66 | 98 | 1.7 | 8.7 | 0.00 | 0.00 | 0.00 | 51 | 1012.8 |
| 20260508140101 | 66 | 84 | 1.7 | 8.7 | 0.00 | 0.00 | 0.00 | 51 | 1012.9 |
| 20260508140001 | 67 | 84 | 1.7 | 6.1 | 0.00 | 0.00 | 0.00 | 51 | 1012.9 |
| 20260508135900 | 67 | 90 | 2.6 | 6.1 | 0.00 | 0.00 | 0.00 | 50 | 1012.9 |
| 20260508135800 | 67 | 64 | 2.6 | 6.1 | 0.00 | 0.00 | 0.00 | 52 | 1012.9 |
| 20260508135700 | 67 | 56 | 2.6 | 6.1 | 0.00 | 0.00 | 0.00 | 53 | 1012.9 |
| 20260508135601 | 67 | 51 | 2.6 | 6.1 | 0.00 | 0.00 | 0.00 | 52 | 1012.9 |
| 20260508135501 | 66 | 81 | 2.6 | 7.0 | 0.00 | 0.00 | 0.00 | 51 | 1012.9 |
| 20260508135400 | 67 | 112 | 2.6 | 7.0 | 0.00 | 0.00 | 0.00 | 50 | 1012.9 |
| 20260508135300 | 67 | 72 | 2.6 | 7.0 | 0.00 | 0.00 | 0.00 | 51 | 1012.9 |
| 20260508135200 | 67 | 71 | 2.6 | 7.0 | 0.00 | 0.00 | 0.00 | 51 | 1012.9 |
| 20260508135100 | 67 | 111 | 2.6 | 7.0 | 0.00 | 0.00 | 0.00 | 51 | 1012.9 |
| 20260508135000 | 67 | 74 | 3.5 | 7.8 | 0.00 | 0.00 | 0.00 | 51 | 1012.9 |
| 20260508134900 | 67 | 107 | 3.5 | 7.8 | 0.00 | 0.00 | 0.00 | 51 | 1012.9 |
| 20260508134800 | 67 | 90 | 3.5 | 8.7 | 0.00 | 0.00 | 0.00 | 51 | 1012.9 |
| 20260508134700 | 67 | 52 | 3.5 | 8.7 | 0.00 | 0.00 | 0.00 | 52 | 1012.9 |
| 20260508134601 | 67 | 5 | 3.5 | 8.7 | 0.00 | 0.00 | 0.00 | 51 | 1013.0 |
| 20260508134500 | 67 | 49 | 3.5 | 8.7 | 0.00 | 0.00 | 0.00 | 51 | 1013.0 |
| 20260508134401 | 67 | 59 | 2.6 | 8.7 | 0.00 | 0.00 | 0.00 | 52 | 1013.0 |
| 20260508134300 | 67 | 44 | 2.6 | 8.7 | 0.00 | 0.00 | 0.00 | 50 | 1013.0 |
| 20260508134201 | 67 | 75 | 2.6 | 8.7 | 0.00 | 0.00 | 0.00 | 50 | 1013.0 |
| 20260508134102 | 67 | 91 | 2.6 | 8.7 | 0.00 | 0.00 | 0.00 | 51 | 1013.0 |
| 20260508134001 | 67 | 94 | 2.6 | 8.7 | 0.00 | 0.00 | 0.00 | 52 | 1013.0 |
| 20260508133901 | 67 | 77 | 2.6 | 8.7 | 0.00 | 0.00 | 0.00 | 52 | 1013.0 |
| 20260508133801 | 67 | 69 | 2.6 | 8.7 | 0.00 | 0.00 | 0.00 | 51 | 1013.0 |
| 20260508133701 | 67 | 187 | 2.6 | 8.7 | 0.00 | 0.00 | 0.00 | 52 | 1013.0 |
| 20260508133601 | 66 | 57 | 1.7 | 8.7 | 0.00 | 0.00 | 0.00 | 53 | 1013.0 |
| 20260508133501 | 66 | 48 | 1.7 | 6.1 | 0.00 | 0.00 | 0.00 | 53 | 1013.0 |
| 20260508133401 | 66 | 323 | 1.7 | 6.1 | 0.00 | 0.00 | 0.00 | 51 | 1013.0 |
| 20260508133301 | 66 | 115 | 1.7 | 6.1 | 0.00 | 0.00 | 0.00 | 51 | 1013.0 |
| 20260508133201 | 66 | 118 | 1.7 | 6.1 | 0.00 | 0.00 | 0.00 | 51 | 1012.9 |
| 20260508133100 | 66 | 142 | 1.7 | 5.2 | 0.00 | 0.00 | 0.00 | 50 | 1013.0 |
| 20260508133000 | 66 | 117 | 1.7 | 5.2 | 0.00 | 0.00 | 0.00 | 51 | 1013.1 |
| 20260508132901 | 66 | 86 | 1.7 | 5.2 | 0.00 | 0.00 | 0.00 | 49 | 1013.1 |
| 20260508132801 | 66 | 86 | 1.7 | 5.2 | 0.00 | 0.00 | 0.00 | 51 | 1013.0 |
| 20260508132701 | 66 | 94 | 1.7 | 5.2 | 0.00 | 0.00 | 0.00 | 51 | 1013.1 |
| 20260508132601 | 66 | 92 | 1.7 | 5.2 | 0.00 | 0.00 | 0.00 | 50 | 1013.0 |
| 20260508132501 | 66 | 100 | 1.7 | 5.2 | 0.00 | 0.00 | 0.00 | 50 | 1013.1 |
| 20260508132401 | 66 | 98 | 0.9 | 5.2 | 0.00 | 0.00 | 0.00 | 52 | 1013.0 |
| 20260508132300 | 66 | 92 | 0.9 | 5.2 | 0.00 | 0.00 | 0.00 | 50 | 1013.0 |
| 20260508132200 | 66 | 112 | 0.9 | 5.2 | 0.00 | 0.00 | 0.00 | 52 | 1013.0 |
| 20260508132100 | 66 | 112 | 1.7 | 5.2 | 0.00 | 0.00 | 0.00 | 53 | 1013.1 |
| 20260508132000 | 66 | 117 | 0.9 | 5.2 | 0.00 | 0.00 | 0.00 | 51 | 1013.0 |
| 20260508131859 | 66 | 105 | 1.7 | 5.2 | 0.00 | 0.00 | 0.00 | 52 | 1013.0 |
| 20260508131754 | 66 | 133 | 1.7 | 6.1 | 0.00 | 0.00 | 0.00 | 52 | 1013.1 |
| 20260508131701 | 66 | 56 | 1.7 | 7.0 | 0.00 | 0.00 | 0.00 | 51 | 1013.1 |
| 20260508131652 | 66 | 56 | 1.7 | 7.0 | 0.00 | 0.00 | 0.00 | 51 | 1013.1 |
| 20260508131552 | 66 | 55 | 1.7 | 7.0 | 0.00 | 0.00 | 0.00 | 51 | 1013.1 |
| 20260508131452 | 66 | 76 | 1.7 | 7.0 | 0.00 | 0.00 | 0.00 | 51 | 1013.1 |
| 20260508131351 | 66 | 76 | 2.6 | 7.0 | 0.00 | 0.00 | 0.00 | 52 | 1013.1 |
| 20260508131246 | 66 | 67 | 2.6 | 7.0 | 0.00 | 0.00 | 0.00 | 52 | 1013.1 |
| 20260508131201 | 67 | 93 | 2.6 | 7.0 | 0.00 | 0.00 | 0.00 | 53 | 1013.1 |
| 20260508131146 | 67 | 97 | 2.6 | 7.0 | 0.00 | 0.00 | 0.00 | 52 | 1013.1 |
| 20260508131047 | 67 | 82 | 3.5 | 7.0 | 0.00 | 0.00 | 0.00 | 53 | 1013.1 |
| 20260508130946 | 67 | 119 | 3.5 | 8.7 | 0.00 | 0.00 | 0.00 | 52 | 1013.1 |
| 20260508130926 | 67 | 117 | 3.5 | 9.6 | 0.00 | 0.00 | 0.00 | 51 | 1013.1 |
| 20260508130916 | 67 | 93 | 3.5 | 9.6 | 0.00 | 0.00 | 0.00 | 52 | 1013.1 |
| 20260508130912 | 67 | 55 | 3.5 | 9.6 | 0.00 | 0.00 | 0.00 | 52 | 1013.1 |
| 20260508130642 | 67 | 57 | 3.5 | 9.6 | 0.00 | 0.00 | 0.00 | 50 | 1013.1 |
| 20260508130541 | 67 | 76 | 3.5 | 9.6 | 0.00 | 0.00 | 0.00 | 51 | 1013.2 |
| 20260508130440 | 67 | 53 | 3.5 | 9.6 | 0.00 | 0.00 | 0.00 | 52 | 1013.2 |
| 20260508130339 | 67 | 75 | 3.5 | 9.6 | 0.00 | 0.00 | 0.00 | 52 | 1013.2 |
| 20260508130236 | 67 | 30 | 3.5 | 9.6 | 0.00 | 0.00 | 0.00 | 53 | 1013.2 |
| 20260508130200 | 67 | 50 | 3.5 | 9.6 | 0.00 | 0.00 | 0.00 | 53 | 1013.2 |
| 20260508130136 | 67 | 90 | 3.5 | 9.6 | 0.00 | 0.00 | 0.00 | 53 | 1013.2 |
| 20260508130036 | 67 | 60 | 3.5 | 9.6 | 0.00 | 0.00 | 0.00 | 53 | 1013.2 |
| 20260508125936 | 67 | 51 | 3.5 | 9.6 | 0.00 | 0.00 | 0.00 | 54 | 1013.2 |
| 20260508125929 | 66 | 17 | 2.6 | 9.6 | 0.00 | 0.00 | 0.00 | 56 | 1013.3 |
| 20260508125916 | 66 | 78 | 3.5 | 9.6 | 0.00 | 0.00 | 0.00 | 55 | 1013.3 |
| 20260508125912 | 66 | 14 | 2.6 | 9.6 | 0.00 | 0.00 | 0.00 | 54 | 1013.3 |
| 20260508125635 | 66 | 49 | 2.6 | 9.6 | 0.00 | 0.00 | 0.00 | 56 | 1013.3 |
| 20260508125535 | 66 | 46 | 2.6 | 8.7 | 0.00 | 0.00 | 0.00 | 55 | 1013.3 |
| 20260508125434 | 65 | 12 | 2.6 | 7.8 | 0.00 | 0.00 | 0.00 | 55 | 1013.3 |
| 20260508125334 | 65 | 66 | 2.6 | 8.7 | 0.00 | 0.00 | 0.00 | 54 | 1013.3 |
| 20260508125234 | 65 | 119 | 3.5 | 9.6 | 0.00 | 0.00 | 0.00 | 55 | 1013.3 |
| 20260508125200 | 65 | 12 | 3.5 | 10.4 | 0.00 | 0.00 | 0.00 | 56 | 1013.3 |
| 20260508125132 | 65 | 34 | 2.6 | 10.4 | 0.00 | 0.00 | 0.00 | 56 | 1013.3 |
| 20260508125030 | 65 | 321 | 2.6 | 10.4 | 0.00 | 0.00 | 0.00 | 56 | 1013.3 |
| 20260508124831 | 65 | 76 | 2.6 | 10.4 | 0.00 | 0.00 | 0.00 | 55 | 1013.4 |
| 20260508124702 | 65 | 38 | 2.6 | 10.4 | 0.00 | 0.00 | 0.00 | 55 | 1013.4 |
| 20260508124629 | 65 | 335 | 2.6 | 10.4 | 0.00 | 0.00 | 0.00 | 55 | 1013.4 |
| 20260508124529 | 65 | 69 | 2.6 | 10.4 | 0.00 | 0.00 | 0.00 | 55 | 1013.4 |
| 20260508124429 | 64 | 88 | 2.6 | 10.4 | 0.00 | 0.00 | 0.00 | 55 | 1013.4 |
| 20260508124329 | 64 | 5 | 1.7 | 10.4 | 0.00 | 0.00 | 0.00 | 56 | 1013.4 |
| 20260508124229 | 64 | 78 | 1.7 | 10.4 | 0.00 | 0.00 | 0.00 | 55 | 1013.4 |
| 20260508124201 | 64 | 66 | 1.7 | 8.7 | 0.00 | 0.00 | 0.00 | 55 | 1013.4 |
| 20260508124129 | 65 | 86 | 1.7 | 4.3 | 0.00 | 0.00 | 0.00 | 55 | 1013.4 |
| 20260508124029 | 65 | 86 | 1.7 | 4.3 | 0.00 | 0.00 | 0.00 | 53 | 1013.5 |
| 20260508123929 | 65 | 107 | 1.7 | 5.2 | 0.00 | 0.00 | 0.00 | 53 | 1013.4 |
| 20260508123829 | 65 | 98 | 1.7 | 5.2 | 0.00 | 0.00 | 0.00 | 53 | 1013.4 |
| 20260508123729 | 65 | 88 | 1.7 | 6.1 | 0.00 | 0.00 | 0.00 | 54 | 1013.4 |
| 20260508123701 | 65 | 90 | 1.7 | 6.1 | 0.00 | 0.00 | 0.00 | 54 | 1013.4 |
| 20260508123629 | 65 | 36 | 2.6 | 7.0 | 0.00 | 0.00 | 0.00 | 56 | 1013.4 |
| 20260508123529 | 65 | 72 | 2.6 | 7.8 | 0.00 | 0.00 | 0.00 | 55 | 1013.4 |
| 20260508123429 | 65 | 80 | 2.6 | 7.8 | 0.00 | 0.00 | 0.00 | 53 | 1013.4 |
| 20260508123329 | 65 | 115 | 2.6 | 7.8 | 0.00 | 0.00 | 0.00 | 53 | 1013.4 |
| 20260508123229 | 65 | 171 | 2.6 | 7.8 | 0.00 | 0.00 | 0.00 | 53 | 1013.4 |
| 20260508123201 | 65 | 172 | 2.6 | 7.8 | 0.00 | 0.00 | 0.00 | 53 | 1013.4 |
| 20260508123128 | 65 | 133 | 2.6 | 7.8 | 0.00 | 0.00 | 0.00 | 54 | 1013.4 |